Time,TemperatureF,DewpointF,PressureIn,WindDirection,WindDirectionDegrees,WindSpeedMPH,WindSpeedGustMPH,Humidity,HourlyPrecipIn,Conditions,Clouds,dailyrainin,SoftwareType,DateUTC
2013-03-07 00:00:00,35.6,26.8,30.29,NW,307,2.0,2.0,70,0.00,,---,0.00,VWS V14.00,2013-03-07 06:00:00,
2013-03-07 00:01:00,36.3,27.1,30.30,NW,307,0.0,0.0,69,0.00,,---,0.00,VWS V14.00,2013-03-07 06:01:00,
2013-03-07 00:02:00,36.3,27.1,30.30,NW,307,0.0,0.0,69,0.00,,---,0.00,VWS V14.00,2013-03-07 06:02:00,
2013-03-07 00:03:00,36.5,27.3,30.30,NW,307,0.0,0.0,69,0.00,,---,0.00,VWS V14.00,2013-03-07 06:03:00,
2013-03-07 00:04:00,36.5,27.3,30.30,NW,307,0.0,0.0,69,0.00,,---,0.00,VWS V14.00,2013-03-07 06:04:00,
2013-03-07 00:05:00,35.6,26.5,30.29,NW,307,0.0,0.0,69,0.00,,---,0.00,VWS V14.00,2013-03-07 06:05:00,
2013-03-07 00:06:00,36.5,27.3,30.30,NW,307,0.0,0.0,69,0.00,,---,0.00,VWS V14.00,2013-03-07 06:06:00,
2013-03-07 00:07:00,36.5,27.7,30.30,NW,307,0.0,0.0,70,0.00,,---,0.00,VWS V14.00,2013-03-07 06:07:00,
2013-03-07 00:08:00,36.5,27.7,30.30,NW,307,0.0,0.0,70,0.00,,---,0.00,VWS V14.00,2013-03-07 06:08:00,
2013-03-07 00:09:00,36.5,27.7,30.30,NW,307,0.0,0.0,70,0.00,,---,0.00,VWS V14.00,2013-03-07 06:09:00,
2013-03-07 00:10:00,35.8,26.3,30.29,NW,307,0.0,0.0,68,0.00,,---,0.00,VWS V14.00,2013-03-07 06:10:00,
2013-03-07 00:11:00,36.5,27.7,30.30,NW,307,0.0,0.0,70,0.00,,---,0.00,VWS V14.00,2013-03-07 06:11:00,
2013-03-07 00:12:00,36.5,27.7,30.30,NW,307,0.0,0.0,70,0.00,,---,0.00,VWS V14.00,2013-03-07 06:12:00,
2013-03-07 00:13:00,36.5,27.7,30.30,NW,307,0.0,0.0,70,0.00,,---,0.00,VWS V14.00,2013-03-07 06:13:00,
2013-03-07 00:14:00,36.6,27.8,30.30,NW,307,0.0,0.0,70,0.00,,---,0.00,VWS V14.00,2013-03-07 06:14:00,
2013-03-07 00:15:00,35.9,26.7,30.29,NW,307,0.0,0.0,69,0.00,,---,0.00,VWS V14.00,2013-03-07 06:15:00,
2013-03-07 00:16:00,36.6,27.8,30.30,NW,307,0.0,0.0,70,0.00,,---,0.00,VWS V14.00,2013-03-07 06:16:00,
2013-03-07 00:17:00,36.6,27.8,30.30,NW,307,0.0,0.0,70,0.00,,---,0.00,VWS V14.00,2013-03-07 06:17:00,
2013-03-07 00:18:00,36.6,27.8,30.30,NW,307,0.0,0.0,70,0.00,,---,0.00,VWS V14.00,2013-03-07 06:18:00,
2013-03-07 00:19:00,36.6,27.8,30.30,NW,307,0.0,0.0,70,0.00,,---,0.00,VWS V14.00,2013-03-07 06:19:00,
2013-03-07 00:20:00,35.9,26.7,30.29,NW,307,0.0,0.0,69,0.00,,---,0.00,VWS V14.00,2013-03-07 06:20:00,
2013-03-07 00:21:00,36.6,27.8,30.30,NW,307,0.0,0.0,70,0.00,,---,0.00,VWS V14.00,2013-03-07 06:21:00,
2013-03-07 00:22:00,36.6,27.8,30.30,NW,307,0.0,0.0,70,0.00,,---,0.00,VWS V14.00,2013-03-07 06:22:00,
2013-03-07 00:23:00,36.8,28.0,30.30,NW,307,0.0,0.0,70,0.00,,---,0.00,VWS V14.00,2013-03-07 06:23:00,
2013-03-07 00:24:00,36.8,28.3,30.30,NW,307,0.0,0.0,71,0.00,,---,0.00,VWS V14.00,2013-03-07 06:24:00,
2013-03-07 00:25:00,35.9,26.7,30.29,NW,307,0.0,0.0,69,0.00,,---,0.00,VWS V14.00,2013-03-07 06:25:00,
2013-03-07 00:26:00,36.8,28.3,30.30,NW,307,0.0,0.0,71,0.00,,---,0.00,VWS V14.00,2013-03-07 06:26:00,
2013-03-07 00:27:00,36.8,28.3,30.30,NW,307,0.0,0.0,71,0.00,,---,0.00,VWS V14.00,2013-03-07 06:27:00,
2013-03-07 00:28:00,36.8,28.3,30.30,NW,307,0.0,0.0,71,0.00,,---,0.00,VWS V14.00,2013-03-07 06:28:00,
2013-03-07 00:29:00,36.8,28.3,30.30,NW,307,0.0,0.0,71,0.00,,---,0.00,VWS V14.00,2013-03-07 06:29:00,
2013-03-07 00:30:00,35.9,26.4,30.29,NW,307,0.0,0.0,68,0.00,,---,0.00,VWS V14.00,2013-03-07 06:30:00,
2013-03-07 00:31:00,36.9,28.4,30.30,NW,307,0.0,0.0,71,0.00,,---,0.00,VWS V14.00,2013-03-07 06:31:00,
2013-03-07 00:32:00,36.9,28.4,30.30,NW,307,0.0,0.0,71,0.00,,---,0.00,VWS V14.00,2013-03-07 06:32:00,
2013-03-07 00:33:00,36.9,28.4,30.30,NW,307,0.0,0.0,71,0.00,,---,0.00,VWS V14.00,2013-03-07 06:33:00,
2013-03-07 00:34:00,36.9,28.4,30.30,NW,307,0.0,0.0,71,0.00,,---,0.00,VWS V14.00,2013-03-07 06:34:00,
2013-03-07 00:35:00,35.9,26.7,30.29,NW,307,0.0,0.0,69,0.00,,---,0.00,VWS V14.00,2013-03-07 06:35:00,
2013-03-07 00:36:00,36.9,28.4,30.31,NW,307,0.0,0.0,71,0.00,,---,0.00,VWS V14.00,2013-03-07 06:36:00,
2013-03-07 00:37:00,36.9,28.4,30.30,NW,307,0.0,0.0,71,0.00,,---,0.00,VWS V14.00,2013-03-07 06:37:00,
2013-03-07 00:38:00,36.9,28.4,30.30,NW,307,0.0,0.0,71,0.00,,---,0.00,VWS V14.00,2013-03-07 06:38:00,
2013-03-07 00:39:00,36.9,28.4,30.30,NW,307,0.0,0.0,71,0.00,,---,0.00,VWS V14.00,2013-03-07 06:39:00,
2013-03-07 00:40:00,35.9,26.7,30.29,NW,307,0.0,0.0,69,0.00,,---,0.00,VWS V14.00,2013-03-07 06:40:00,
2013-03-07 00:41:00,36.9,28.4,30.31,NW,307,0.0,0.0,71,0.00,,---,0.00,VWS V14.00,2013-03-07 06:41:00,
2013-03-07 00:42:00,36.9,28.4,30.31,NW,307,0.0,0.0,71,0.00,,---,0.00,VWS V14.00,2013-03-07 06:42:00,
2013-03-07 00:43:00,36.9,28.4,30.31,NW,307,0.0,0.0,71,0.00,,---,0.00,VWS V14.00,2013-03-07 06:43:00,
2013-03-07 00:44:00,36.8,28.3,30.31,NW,307,0.0,0.0,71,0.00,,---,0.00,VWS V14.00,2013-03-07 06:44:00,
2013-03-07 00:45:00,35.9,26.7,30.29,NW,307,0.0,0.0,69,0.00,,---,0.00,VWS V14.00,2013-03-07 06:45:00,
2013-03-07 00:46:00,36.8,28.3,30.31,NW,307,0.0,0.0,71,0.00,,---,0.00,VWS V14.00,2013-03-07 06:46:00,
2013-03-07 00:47:00,36.8,28.6,30.31,NW,307,0.0,0.0,72,0.00,,---,0.00,VWS V14.00,2013-03-07 06:47:00,
2013-03-07 00:48:00,36.6,28.4,30.31,NW,307,0.0,0.0,72,0.00,,---,0.00,VWS V14.00,2013-03-07 06:48:00,
2013-03-07 00:49:00,36.6,28.4,30.31,NW,307,0.0,0.0,72,0.00,,---,0.00,VWS V14.00,2013-03-07 06:49:00,
2013-03-07 00:50:00,36.0,26.8,30.29,NW,307,0.0,0.0,69,0.00,,---,0.00,VWS V14.00,2013-03-07 06:50:00,
2013-03-07 00:51:00,36.6,28.4,30.31,NW,307,0.0,0.0,72,0.00,,---,0.00,VWS V14.00,2013-03-07 06:51:00,
2013-03-07 00:52:00,36.5,28.4,30.31,NW,307,0.0,0.0,72,0.00,,---,0.00,VWS V14.00,2013-03-07 06:52:00,
2013-03-07 00:53:00,36.5,28.4,30.31,NW,307,0.0,0.0,72,0.00,,---,0.00,VWS V14.00,2013-03-07 06:53:00,
2013-03-07 00:54:00,36.6,28.1,30.31,NW,307,0.0,0.0,71,0.00,,---,0.00,VWS V14.00,2013-03-07 06:54:00,
2013-03-07 00:55:00,36.2,27.0,30.29,NW,307,0.0,0.0,69,0.00,,---,0.00,VWS V14.00,2013-03-07 06:55:00,
2013-03-07 00:56:00,36.6,28.4,30.31,NW,307,0.0,0.0,72,0.00,,---,0.00,VWS V14.00,2013-03-07 06:56:00,
2013-03-07 00:57:00,36.6,28.4,30.31,NW,307,0.0,0.0,72,0.00,,---,0.00,VWS V14.00,2013-03-07 06:57:00,
2013-03-07 00:58:00,36.6,28.4,30.31,NW,307,0.0,0.0,72,0.00,,---,0.00,VWS V14.00,2013-03-07 06:58:00,
2013-03-07 00:59:00,36.6,28.4,30.31,NW,307,0.0,0.0,72,0.00,,---,0.00,VWS V14.00,2013-03-07 06:59:00,
2013-03-07 01:00:00,36.3,27.5,30.30,NW,307,0.0,0.0,70,0.00,,---,0.00,VWS V14.00,2013-03-07 07:00:00,
2013-03-07 01:01:00,36.5,28.4,30.31,NW,307,0.0,0.0,72,0.00,,---,0.00,VWS V14.00,2013-03-07 07:01:00,
2013-03-07 01:02:00,36.5,28.4,30.31,NW,307,0.0,0.0,72,0.00,,---,0.00,VWS V14.00,2013-03-07 07:02:00,
2013-03-07 01:03:00,36.5,28.4,30.31,NW,307,0.0,0.0,72,0.00,,---,0.00,VWS V14.00,2013-03-07 07:03:00,
2013-03-07 01:04:00,36.5,28.4,30.31,NW,307,0.0,0.0,72,0.00,,---,0.00,VWS V14.00,2013-03-07 07:04:00,
2013-03-07 01:05:00,36.5,27.3,30.30,NW,307,0.0,0.0,69,0.00,,---,0.00,VWS V14.00,2013-03-07 07:05:00,
2013-03-07 01:06:00,36.5,28.4,30.31,NW,308,0.0,0.0,72,0.00,,---,0.00,VWS V14.00,2013-03-07 07:06:00,
2013-03-07 01:07:00,36.5,28.4,30.31,NW,307,0.0,0.0,72,0.00,,---,0.00,VWS V14.00,2013-03-07 07:07:00,
2013-03-07 01:08:00,36.5,28.4,30.31,NW,307,0.0,0.0,72,0.00,,---,0.00,VWS V14.00,2013-03-07 07:08:00,
2013-03-07 01:09:00,36.5,28.4,30.30,NW,307,0.0,0.0,72,0.00,,---,0.00,VWS V14.00,2013-03-07 07:09:00,
2013-03-07 01:10:00,36.5,27.7,30.30,NW,307,0.0,0.0,70,0.00,,---,0.00,VWS V14.00,2013-03-07 07:10:00,
2013-03-07 01:11:00,36.5,28.4,30.30,NW,307,0.0,0.0,72,0.00,,---,0.00,VWS V14.00,2013-03-07 07:11:00,
2013-03-07 01:12:00,36.5,28.4,30.30,NW,307,0.0,0.0,72,0.00,,---,0.00,VWS V14.00,2013-03-07 07:12:00,
2013-03-07 01:13:00,36.5,28.4,30.30,NW,307,0.0,0.0,72,0.00,,---,0.00,VWS V14.00,2013-03-07 07:13:00,
2013-03-07 01:14:00,36.5,28.4,30.30,NW,307,0.0,0.0,72,0.00,,---,0.00,VWS V14.00,2013-03-07 07:14:00,
2013-03-07 01:15:00,36.6,27.8,30.30,NW,307,0.0,0.0,70,0.00,,---,0.00,VWS V14.00,2013-03-07 07:15:00,
2013-03-07 01:16:00,36.5,28.4,30.30,NW,307,0.0,0.0,72,0.00,,---,0.00,VWS V14.00,2013-03-07 07:16:00,
2013-03-07 01:17:00,36.5,28.4,30.30,NW,307,0.0,0.0,72,0.00,,---,0.00,VWS V14.00,2013-03-07 07:17:00,
2013-03-07 01:18:00,36.5,28.4,30.30,NW,307,0.0,0.0,72,0.00,,---,0.00,VWS V14.00,2013-03-07 07:18:00,
2013-03-07 01:19:00,36.5,28.4,30.30,NW,307,0.0,0.0,72,0.00,,---,0.00,VWS V14.00,2013-03-07 07:19:00,
2013-03-07 01:20:00,36.6,27.8,30.30,NW,307,0.0,0.0,70,0.00,,---,0.00,VWS V14.00,2013-03-07 07:20:00,
2013-03-07 01:21:00,36.5,28.4,30.30,NW,307,0.0,0.0,72,0.00,,---,0.00,VWS V14.00,2013-03-07 07:21:00,
2013-03-07 01:22:00,36.5,28.4,30.30,NW,307,0.0,0.0,72,0.00,,---,0.00,VWS V14.00,2013-03-07 07:22:00,
2013-03-07 01:23:00,36.5,28.0,30.30,NW,307,0.0,0.0,71,0.00,,---,0.00,VWS V14.00,2013-03-07 07:23:00,
2013-03-07 01:24:00,36.6,28.1,30.30,NW,307,1.0,1.0,71,0.00,,---,0.00,VWS V14.00,2013-03-07 07:24:00,
2013-03-07 01:25:00,36.8,28.3,30.30,NW,307,0.0,0.0,71,0.00,,---,0.00,VWS V14.00,2013-03-07 07:25:00,
2013-03-07 01:26:00,36.8,27.6,30.30,NW,307,4.0,6.0,69,0.00,,---,0.00,VWS V14.00,2013-03-07 07:26:00,
2013-03-07 01:27:00,36.9,27.7,30.30,NW,307,3.0,4.0,69,0.00,,---,0.00,VWS V14.00,2013-03-07 07:27:00,
2013-03-07 01:28:00,37.0,27.4,30.30,NW,307,3.0,5.0,68,0.00,,---,0.00,VWS V14.00,2013-03-07 07:28:00,
2013-03-07 01:29:00,37.0,27.8,30.30,NW,307,3.0,4.0,69,0.00,,---,0.00,VWS V14.00,2013-03-07 07:29:00,
2013-03-07 01:30:00,36.8,28.3,30.30,NW,307,0.0,0.0,71,0.00,,---,0.00,VWS V14.00,2013-03-07 07:30:00,
2013-03-07 01:31:00,37.3,27.7,30.30,NW,307,1.0,3.0,68,0.00,,---,0.00,VWS V14.00,2013-03-07 07:31:00,
2013-03-07 01:32:00,37.3,27.4,30.30,NW,307,2.0,3.0,67,0.00,,---,0.00,VWS V14.00,2013-03-07 07:32:00,
2013-03-07 01:33:00,37.5,27.2,30.30,NW,307,2.0,5.0,66,0.00,,---,0.00,VWS V14.00,2013-03-07 07:33:00,
2013-03-07 01:34:00,37.6,27.6,30.30,NW,307,1.0,5.0,67,0.00,,---,0.00,VWS V14.00,2013-03-07 07:34:00,
2013-03-07 01:35:00,36.9,28.4,30.30,NW,307,0.0,0.0,71,0.00,,---,0.00,VWS V14.00,2013-03-07 07:35:00,
2013-03-07 01:36:00,37.8,27.5,30.30,NW,307,4.0,4.0,66,0.00,,---,0.00,VWS V14.00,2013-03-07 07:36:00,
2013-03-07 01:37:00,37.8,27.1,30.30,NW,307,2.0,5.0,65,0.00,,---,0.00,VWS V14.00,2013-03-07 07:37:00,
2013-03-07 01:38:00,37.8,27.1,30.30,NW,307,3.0,4.0,65,0.00,,---,0.00,VWS V14.00,2013-03-07 07:38:00,
2013-03-07 01:39:00,37.9,27.2,30.30,NW,307,2.0,3.0,65,0.00,,---,0.00,VWS V14.00,2013-03-07 07:39:00,
2013-03-07 01:40:00,36.9,28.4,30.31,NW,307,0.0,0.0,71,0.00,,---,0.00,VWS V14.00,2013-03-07 07:40:00,
2013-03-07 01:41:00,37.9,27.2,30.30,NW,307,0.0,0.0,65,0.00,,---,0.00,VWS V14.00,2013-03-07 07:41:00,
2013-03-07 01:42:00,37.9,27.2,30.30,NW,307,0.0,0.0,65,0.00,,---,0.00,VWS V14.00,2013-03-07 07:42:00,
2013-03-07 01:43:00,37.9,27.2,30.30,NW,307,0.0,1.0,65,0.00,,---,0.00,VWS V14.00,2013-03-07 07:43:00,
2013-03-07 01:44:00,37.8,27.1,30.30,NW,307,0.0,0.0,65,0.00,,---,0.00,VWS V14.00,2013-03-07 07:44:00,
2013-03-07 01:45:00,36.8,28.6,30.31,NW,307,0.0,0.0,72,0.00,,---,0.00,VWS V14.00,2013-03-07 07:45:00,
2013-03-07 01:46:00,37.8,27.1,30.30,NW,307,0.0,0.0,65,0.00,,---,0.00,VWS V14.00,2013-03-07 07:46:00,
2013-03-07 01:47:00,37.8,27.1,30.30,NW,307,0.0,0.0,65,0.00,,---,0.00,VWS V14.00,2013-03-07 07:47:00,
2013-03-07 01:48:00,37.8,27.1,30.31,NW,307,0.0,0.0,65,0.00,,---,0.00,VWS V14.00,2013-03-07 07:48:00,
2013-03-07 01:49:00,37.8,27.1,30.31,NW,307,0.0,0.0,65,0.00,,---,0.00,VWS V14.00,2013-03-07 07:49:00,
2013-03-07 01:50:00,36.6,28.4,30.31,NW,307,0.0,0.0,72,0.00,,---,0.00,VWS V14.00,2013-03-07 07:50:00,
2013-03-07 01:51:00,37.8,27.1,30.30,NW,307,0.0,0.0,65,0.00,,---,0.00,VWS V14.00,2013-03-07 07:51:00,
2013-03-07 01:52:00,37.8,27.1,30.30,NW,307,0.0,0.0,65,0.00,,---,0.00,VWS V14.00,2013-03-07 07:52:00,
2013-03-07 01:53:00,37.8,27.1,30.30,NW,307,0.0,0.0,65,0.00,,---,0.00,VWS V14.00,2013-03-07 07:53:00,
2013-03-07 01:54:00,37.6,26.9,30.30,NW,307,0.0,0.0,65,0.00,,---,0.00,VWS V14.00,2013-03-07 07:54:00,
2013-03-07 01:55:00,36.6,28.1,30.31,NW,307,0.0,0.0,71,0.00,,---,0.00,VWS V14.00,2013-03-07 07:55:00,
2013-03-07 01:56:00,37.6,26.9,30.30,NW,307,0.0,0.0,65,0.00,,---,0.00,VWS V14.00,2013-03-07 07:56:00,
2013-03-07 01:57:00,37.6,26.9,30.30,NW,307,0.0,0.0,65,0.00,,---,0.00,VWS V14.00,2013-03-07 07:57:00,
2013-03-07 01:58:00,37.6,26.9,30.30,NW,307,0.0,0.0,65,0.00,,---,0.00,VWS V14.00,2013-03-07 07:58:00,
2013-03-07 01:59:00,37.6,26.9,30.30,NW,307,0.0,0.0,65,0.00,,---,0.00,VWS V14.00,2013-03-07 07:59:00,
2013-03-07 02:00:00,36.5,28.4,30.31,NW,307,0.0,0.0,72,0.00,,---,0.00,VWS V14.00,2013-03-07 08:00:00,
2013-03-07 02:01:00,37.6,26.9,30.30,NW,307,0.0,0.0,65,0.00,,---,0.00,VWS V14.00,2013-03-07 08:01:00,
2013-03-07 02:02:00,37.6,26.9,30.30,NW,307,0.0,0.0,65,0.00,,---,0.00,VWS V14.00,2013-03-07 08:02:00,
2013-03-07 02:03:00,37.6,26.9,30.30,NW,307,3.0,3.0,65,0.00,,---,0.00,VWS V14.00,2013-03-07 08:03:00,
2013-03-07 02:04:00,37.6,26.9,30.30,NW,307,3.0,4.0,65,0.00,,---,0.00,VWS V14.00,2013-03-07 08:04:00,
2013-03-07 02:05:00,36.5,28.4,30.31,NW,307,0.0,0.0,72,0.00,,---,0.00,VWS V14.00,2013-03-07 08:05:00,
2013-03-07 02:06:00,37.6,26.9,30.30,NW,307,4.0,7.0,65,0.00,,---,0.00,VWS V14.00,2013-03-07 08:06:00,
2013-03-07 02:07:00,37.6,26.9,30.30,NW,307,4.0,5.0,65,0.00,,---,0.00,VWS V14.00,2013-03-07 08:07:00,
2013-03-07 02:08:00,37.6,26.9,30.30,NW,307,4.0,5.0,65,0.00,,---,0.00,VWS V14.00,2013-03-07 08:08:00,
2013-03-07 02:09:00,37.8,27.1,30.30,NW,307,4.0,4.0,65,0.00,,---,0.00,VWS V14.00,2013-03-07 08:09:00,
2013-03-07 02:10:00,36.5,28.4,30.30,NW,307,0.0,0.0,72,0.00,,---,0.00,VWS V14.00,2013-03-07 08:10:00,
2013-03-07 02:11:00,37.8,26.7,30.30,NW,307,0.0,3.0,64,0.00,,---,0.00,VWS V14.00,2013-03-07 08:11:00,
2013-03-07 02:12:00,37.9,26.8,30.30,NW,307,3.0,3.0,64,0.00,,---,0.00,VWS V14.00,2013-03-07 08:12:00,
2013-03-07 02:13:00,37.9,26.5,30.30,NW,307,0.0,5.0,63,0.00,,---,0.00,VWS V14.00,2013-03-07 08:13:00,
2013-03-07 02:14:00,37.9,26.5,30.30,NW,307,2.0,2.0,63,0.00,,---,0.00,VWS V14.00,2013-03-07 08:14:00,
2013-03-07 02:15:00,36.5,28.4,30.30,NW,307,0.0,0.0,72,0.00,,---,0.00,VWS V14.00,2013-03-07 08:15:00,
2013-03-07 02:16:00,37.9,26.8,30.30,NW,307,0.0,3.0,64,0.00,,---,0.00,VWS V14.00,2013-03-07 08:16:00,
2013-03-07 02:17:00,37.9,26.8,30.30,NW,307,0.0,3.0,64,0.00,,---,0.00,VWS V14.00,2013-03-07 08:17:00,
2013-03-07 02:18:00,37.9,26.8,30.30,NW,307,0.0,3.0,64,0.00,,---,0.00,VWS V14.00,2013-03-07 08:18:00,
2013-03-07 02:19:00,37.8,26.7,30.30,NW,307,0.0,3.0,64,0.00,,---,0.00,VWS V14.00,2013-03-07 08:19:00,
2013-03-07 02:20:00,36.5,28.4,30.30,NW,307,0.0,0.0,72,0.00,,---,0.00,VWS V14.00,2013-03-07 08:20:00,
2013-03-07 02:21:00,37.8,27.1,30.30,NW,307,4.0,4.0,65,0.00,,---,0.00,VWS V14.00,2013-03-07 08:21:00,
2013-03-07 02:22:00,37.6,26.9,30.30,NW,307,3.0,5.0,65,0.00,,---,0.00,VWS V14.00,2013-03-07 08:22:00,
2013-03-07 02:23:00,37.6,26.9,30.30,NW,307,0.0,5.0,65,0.00,,---,0.00,VWS V14.00,2013-03-07 08:23:00,
2013-03-07 02:24:00,37.6,27.3,30.30,NW,307,0.0,0.0,66,0.00,,---,0.00,VWS V14.00,2013-03-07 08:24:00,
2013-03-07 02:25:00,36.6,27.4,30.30,NW,307,4.0,5.0,69,0.00,,---,0.00,VWS V14.00,2013-03-07 08:25:00,
2013-03-07 02:26:00,37.5,26.8,30.30,NW,307,0.0,0.0,65,0.00,,---,0.00,VWS V14.00,2013-03-07 08:26:00,
2013-03-07 02:27:00,37.5,26.8,30.30,NW,307,0.0,0.0,65,0.00,,---,0.00,VWS V14.00,2013-03-07 08:27:00,
2013-03-07 02:28:00,37.5,26.8,30.30,NW,307,0.0,0.0,65,0.00,,---,0.00,VWS V14.00,2013-03-07 08:28:00,
2013-03-07 02:29:00,37.5,26.8,30.30,NW,307,0.0,0.0,65,0.00,,---,0.00,VWS V14.00,2013-03-07 08:29:00,
2013-03-07 02:30:00,37.2,27.6,30.30,NW,307,2.0,3.0,68,0.00,,---,0.00,VWS V14.00,2013-03-07 08:30:00,
2013-03-07 02:31:00,37.6,27.3,30.30,NW,307,3.0,4.0,66,0.00,,---,0.00,VWS V14.00,2013-03-07 08:31:00,
2013-03-07 02:32:00,37.6,27.3,30.30,NW,307,2.0,4.0,66,0.00,,---,0.00,VWS V14.00,2013-03-07 08:32:00,
2013-03-07 02:33:00,37.6,26.9,30.30,NW,307,1.0,2.0,65,0.00,,---,0.00,VWS V14.00,2013-03-07 08:33:00,
2013-03-07 02:34:00,37.6,27.3,30.30,NW,307,3.0,3.0,66,0.00,,---,0.00,VWS V14.00,2013-03-07 08:34:00,
2013-03-07 02:35:00,37.6,27.3,30.30,NW,307,2.0,2.0,66,0.00,,---,0.00,VWS V14.00,2013-03-07 08:35:00,
2013-03-07 02:36:00,37.6,27.3,30.30,NW,307,0.0,0.0,66,0.00,,---,0.00,VWS V14.00,2013-03-07 08:36:00,
2013-03-07 02:37:00,37.6,27.3,30.30,NW,307,0.0,0.0,66,0.00,,---,0.00,VWS V14.00,2013-03-07 08:37:00,
2013-03-07 02:38:00,37.6,27.3,30.30,NW,307,0.0,0.0,66,0.00,,---,0.00,VWS V14.00,2013-03-07 08:38:00,
2013-03-07 02:39:00,37.6,27.3,30.30,NW,307,0.0,0.0,66,0.00,,---,0.00,VWS V14.00,2013-03-07 08:39:00,
2013-03-07 02:40:00,37.9,27.2,30.30,NW,307,0.0,2.0,65,0.00,,---,0.00,VWS V14.00,2013-03-07 08:40:00,
2013-03-07 02:41:00,37.6,27.3,30.30,NW,307,0.0,3.0,66,0.00,,---,0.00,VWS V14.00,2013-03-07 08:41:00,
2013-03-07 02:42:00,37.6,27.3,30.30,NW,307,4.0,4.0,66,0.00,,---,0.00,VWS V14.00,2013-03-07 08:42:00,
2013-03-07 02:43:00,37.6,26.9,30.30,NW,307,2.0,6.0,65,0.00,,---,0.00,VWS V14.00,2013-03-07 08:43:00,
2013-03-07 02:44:00,37.6,27.3,30.30,NW,307,3.0,3.0,66,0.00,,---,0.00,VWS V14.00,2013-03-07 08:44:00,
2013-03-07 02:45:00,37.8,27.1,30.30,NW,307,0.0,0.0,65,0.00,,---,0.00,VWS V14.00,2013-03-07 08:45:00,
2013-03-07 02:46:00,37.6,26.9,30.30,NW,307,3.0,4.0,65,0.00,,---,0.00,VWS V14.00,2013-03-07 08:46:00,
2013-03-07 02:47:00,37.6,27.3,30.30,NW,307,4.0,6.0,66,0.00,,---,0.00,VWS V14.00,2013-03-07 08:47:00,
2013-03-07 02:48:00,37.6,27.3,30.30,NW,307,4.0,6.0,66,0.00,,---,0.00,VWS V14.00,2013-03-07 08:48:00,
2013-03-07 02:49:00,37.6,27.3,30.30,NW,307,4.0,5.0,66,0.00,,---,0.00,VWS V14.00,2013-03-07 08:49:00,
2013-03-07 02:50:00,37.8,27.1,30.31,NW,307,0.0,0.0,65,0.00,,---,0.00,VWS V14.00,2013-03-07 08:50:00,
2013-03-07 02:51:00,37.8,27.5,30.30,NW,307,2.0,4.0,66,0.00,,---,0.00,VWS V14.00,2013-03-07 08:51:00,
2013-03-07 02:52:00,37.8,27.5,30.30,NW,307,5.0,5.0,66,0.00,,---,0.00,VWS V14.00,2013-03-07 08:52:00,
2013-03-07 02:53:00,37.8,27.5,30.30,NW,307,5.0,5.0,66,0.00,,---,0.00,VWS V14.00,2013-03-07 08:53:00,
2013-03-07 02:54:00,37.9,27.2,30.30,NW,307,3.0,6.0,65,0.00,,---,0.00,VWS V14.00,2013-03-07 08:54:00,
2013-03-07 02:55:00,37.9,27.6,30.30,NW,307,4.0,5.0,66,0.00,,---,0.00,VWS V14.00,2013-03-07 08:55:00,
2013-03-07 02:56:00,37.6,26.9,30.30,NW,307,0.0,0.0,65,0.00,,---,0.00,VWS V14.00,2013-03-07 08:56:00,
2013-03-07 02:57:00,38.0,27.3,30.30,NW,307,4.0,5.0,65,0.00,,---,0.00,VWS V14.00,2013-03-07 08:57:00,
2013-03-07 02:58:00,38.0,27.3,30.30,NW,307,1.0,4.0,65,0.00,,---,0.00,VWS V14.00,2013-03-07 08:58:00,
2013-03-07 02:59:00,38.0,27.3,30.30,NW,307,2.0,3.0,65,0.00,,---,0.00,VWS V14.00,2013-03-07 08:59:00,
2013-03-07 03:00:00,38.0,27.3,30.30,NW,307,1.0,3.0,65,0.00,,---,0.00,VWS V14.00,2013-03-07 09:00:00,
2013-03-07 03:01:00,37.6,26.9,30.30,NW,307,0.0,0.0,65,0.00,,---,0.00,VWS V14.00,2013-03-07 09:01:00,
2013-03-07 03:02:00,38.0,26.9,30.30,NW,307,3.0,4.0,64,0.00,,---,0.00,VWS V14.00,2013-03-07 09:02:00,
2013-03-07 03:03:00,38.0,26.9,30.30,NW,308,5.0,5.0,64,0.00,,---,0.00,VWS V14.00,2013-03-07 09:03:00,
2013-03-07 03:04:00,38.0,26.9,30.30,NW,307,4.0,6.0,64,0.00,,---,0.00,VWS V14.00,2013-03-07 09:04:00,
2013-03-07 03:05:00,38.0,26.9,30.30,NW,308,3.0,6.0,64,0.00,,---,0.00,VWS V14.00,2013-03-07 09:05:00,
2013-03-07 03:06:00,37.6,26.5,30.30,NW,307,6.0,6.0,64,0.00,,---,0.00,VWS V14.00,2013-03-07 09:06:00,
2013-03-07 03:07:00,38.0,26.5,30.30,NW,308,0.0,5.0,63,0.00,,---,0.00,VWS V14.00,2013-03-07 09:07:00,
2013-03-07 03:08:00,38.0,26.9,30.30,NW,308,4.0,4.0,64,0.00,,---,0.00,VWS V14.00,2013-03-07 09:08:00,
2013-03-07 03:09:00,38.0,26.9,30.30,NW,308,5.0,5.0,64,0.00,,---,0.00,VWS V14.00,2013-03-07 09:09:00,
2013-03-07 03:10:00,38.0,26.9,30.30,NW,308,3.0,6.0,64,0.00,,---,0.00,VWS V14.00,2013-03-07 09:10:00,
2013-03-07 03:11:00,37.8,26.7,30.30,NW,307,2.0,3.0,64,0.00,,---,0.00,VWS V14.00,2013-03-07 09:11:00,
2013-03-07 03:12:00,38.0,26.9,30.30,NW,308,4.0,5.0,64,0.00,,---,0.00,VWS V14.00,2013-03-07 09:12:00,
2013-03-07 03:13:00,38.0,26.9,30.30,NW,308,2.0,4.0,64,0.00,,---,0.00,VWS V14.00,2013-03-07 09:13:00,
2013-03-07 03:14:00,38.2,27.5,30.30,NW,308,3.0,4.0,65,0.00,,---,0.00,VWS V14.00,2013-03-07 09:14:00,
2013-03-07 03:15:00,38.2,26.7,30.30,NW,308,4.0,5.0,63,0.00,,---,0.00,VWS V14.00,2013-03-07 09:15:00,
2013-03-07 03:16:00,37.9,26.8,30.30,NW,307,3.0,3.0,64,0.00,,---,0.00,VWS V14.00,2013-03-07 09:16:00,
2013-03-07 03:17:00,38.2,26.7,30.30,NW,308,2.0,4.0,63,0.00,,---,0.00,VWS V14.00,2013-03-07 09:17:00,
2013-03-07 03:18:00,38.3,26.4,30.30,NW,308,2.0,4.0,62,0.00,,---,0.00,VWS V14.00,2013-03-07 09:18:00,
2013-03-07 03:19:00,38.3,26.4,30.30,NW,308,2.0,3.0,62,0.00,,---,0.00,VWS V14.00,2013-03-07 09:19:00,
2013-03-07 03:20:00,38.3,26.8,30.30,NW,308,0.0,2.0,63,0.00,,---,0.00,VWS V14.00,2013-03-07 09:20:00,
2013-03-07 03:21:00,37.8,27.1,30.30,NW,307,4.0,4.0,65,0.00,,---,0.00,VWS V14.00,2013-03-07 09:21:00,
2013-03-07 03:22:00,38.3,26.8,30.30,NW,308,0.0,0.0,63,0.00,,---,0.00,VWS V14.00,2013-03-07 09:22:00,
2013-03-07 03:23:00,38.3,26.8,30.30,NW,308,2.0,4.0,63,0.00,,---,0.00,VWS V14.00,2013-03-07 09:23:00,
2013-03-07 03:24:00,38.3,26.4,30.30,NW,308,2.0,4.0,62,0.00,,---,0.00,VWS V14.00,2013-03-07 09:24:00,
2013-03-07 03:25:00,38.3,26.4,30.30,NW,308,1.0,3.0,62,0.00,,---,0.00,VWS V14.00,2013-03-07 09:25:00,
2013-03-07 03:26:00,37.6,27.3,30.30,NW,307,0.0,0.0,66,0.00,,---,0.00,VWS V14.00,2013-03-07 09:26:00,
2013-03-07 03:27:00,38.3,26.4,30.30,NW,308,0.0,2.0,62,0.00,,---,0.00,VWS V14.00,2013-03-07 09:27:00,
2013-03-07 03:28:00,38.3,26.4,30.30,NW,308,0.0,0.0,62,0.00,,---,0.00,VWS V14.00,2013-03-07 09:28:00,
2013-03-07 03:29:00,38.3,26.4,30.30,NW,308,0.0,1.0,62,0.00,,---,0.00,VWS V14.00,2013-03-07 09:29:00,
2013-03-07 03:30:00,38.3,26.4,30.30,NW,308,0.0,3.0,62,0.00,,---,0.00,VWS V14.00,2013-03-07 09:30:00,
2013-03-07 03:31:00,37.6,26.9,30.30,NW,307,0.0,3.0,65,0.00,,---,0.00,VWS V14.00,2013-03-07 09:31:00,
2013-03-07 03:32:00,38.2,26.3,30.30,NW,308,0.0,0.0,62,0.00,,---,0.00,VWS V14.00,2013-03-07 09:32:00,
2013-03-07 03:33:00,38.2,26.3,30.30,NW,308,0.0,0.0,62,0.00,,---,0.00,VWS V14.00,2013-03-07 09:33:00,
2013-03-07 03:34:00,38.2,27.1,30.30,NW,308,0.0,0.0,64,0.00,,---,0.00,VWS V14.00,2013-03-07 09:34:00,
2013-03-07 03:35:00,38.2,27.1,30.30,NW,308,0.0,0.0,64,0.00,,---,0.00,VWS V14.00,2013-03-07 09:35:00,
2013-03-07 03:36:00,37.6,27.3,30.30,NW,307,0.0,0.0,66,0.00,,---,0.00,VWS V14.00,2013-03-07 09:36:00,
2013-03-07 03:37:00,38.2,27.1,30.30,NW,308,0.0,0.0,64,0.00,,---,0.00,VWS V14.00,2013-03-07 09:37:00,
2013-03-07 03:39:00,38.0,26.9,30.30,NW,308,0.0,0.0,64,0.00,,---,0.00,VWS V14.00,2013-03-07 09:39:00,
2013-03-07 03:40:00,38.0,26.5,30.30,NW,308,0.0,0.0,63,0.00,,---,0.00,VWS V14.00,2013-03-07 09:40:00,
2013-03-07 03:41:00,37.6,27.3,30.30,NW,307,2.0,3.0,66,0.00,,---,0.00,VWS V14.00,2013-03-07 09:41:00,
2013-03-07 03:42:00,37.9,26.5,30.30,NW,308,0.0,0.0,63,0.00,,---,0.00,VWS V14.00,2013-03-07 09:42:00,
2013-03-07 03:43:00,37.9,26.5,30.30,NW,308,0.0,0.0,63,0.00,,---,0.00,VWS V14.00,2013-03-07 09:43:00,
2013-03-07 03:44:00,37.9,26.5,30.30,NW,308,0.0,0.0,63,0.00,,---,0.00,VWS V14.00,2013-03-07 09:44:00,
2013-03-07 03:45:00,37.8,26.4,30.30,NW,308,0.0,0.0,63,0.00,,---,0.00,VWS V14.00,2013-03-07 09:45:00,
2013-03-07 03:46:00,37.6,26.9,30.30,NW,307,2.0,4.0,65,0.00,,---,0.00,VWS V14.00,2013-03-07 09:46:00,
2013-03-07 03:47:00,37.8,26.7,30.29,NW,308,0.0,0.0,64,0.00,,---,0.00,VWS V14.00,2013-03-07 09:47:00,
2013-03-07 03:48:00,37.6,26.9,30.30,NW,308,0.0,0.0,65,0.00,,---,0.00,VWS V14.00,2013-03-07 09:48:00,
2013-03-07 03:49:00,37.6,26.9,30.30,NW,308,0.0,0.0,65,0.00,,---,0.00,VWS V14.00,2013-03-07 09:49:00,
2013-03-07 03:50:00,37.5,26.8,30.30,NW,308,0.0,0.0,65,0.00,,---,0.00,VWS V14.00,2013-03-07 09:50:00,
2013-03-07 03:51:00,37.8,27.5,30.30,NW,307,3.0,4.0,66,0.00,,---,0.00,VWS V14.00,2013-03-07 09:51:00,
2013-03-07 03:52:00,37.3,27.0,30.30,NW,308,0.0,0.0,66,0.00,,---,0.00,VWS V14.00,2013-03-07 09:52:00,
2013-03-07 03:53:00,37.3,27.0,30.30,NW,308,0.0,0.0,66,0.00,,---,0.00,VWS V14.00,2013-03-07 09:53:00,
2013-03-07 03:54:00,37.2,27.3,30.30,NW,308,0.0,0.0,67,0.00,,---,0.00,VWS V14.00,2013-03-07 09:54:00,
2013-03-07 03:55:00,37.2,27.3,30.30,NW,308,0.0,0.0,67,0.00,,---,0.00,VWS V14.00,2013-03-07 09:55:00,
2013-03-07 03:56:00,38.0,27.3,30.30,NW,307,4.0,4.0,65,0.00,,---,0.00,VWS V14.00,2013-03-07 09:56:00,
2013-03-07 03:57:00,37.0,27.1,30.29,NW,308,1.0,3.0,67,0.00,,---,0.00,VWS V14.00,2013-03-07 09:57:00,
2013-03-07 03:58:00,37.0,27.1,30.29,NW,308,0.0,1.0,67,0.00,,---,0.00,VWS V14.00,2013-03-07 09:58:00,
2013-03-07 03:59:00,36.9,27.3,30.29,NW,308,0.0,0.0,68,0.00,,---,0.00,VWS V14.00,2013-03-07 09:59:00,
2013-03-07 04:00:00,36.9,27.0,30.30,NW,308,0.0,0.0,67,0.00,,---,0.00,VWS V14.00,2013-03-07 10:00:00,
2013-03-07 04:01:00,38.0,27.3,30.30,NW,307,1.0,4.0,65,0.00,,---,0.00,VWS V14.00,2013-03-07 10:01:00,
2013-03-07 04:02:00,36.8,26.9,30.30,NW,308,1.0,2.0,67,0.00,,---,0.00,VWS V14.00,2013-03-07 10:02:00,
2013-03-07 04:03:00,36.8,26.9,30.30,NW,308,0.0,2.0,67,0.00,,---,0.00,VWS V14.00,2013-03-07 10:03:00,
2013-03-07 04:04:00,36.8,27.2,30.30,NW,308,0.0,0.0,68,0.00,,---,0.00,VWS V14.00,2013-03-07 10:04:00,
2013-03-07 04:05:00,36.8,27.2,30.30,NW,308,0.0,0.0,68,0.00,,---,0.00,VWS V14.00,2013-03-07 10:05:00,
2013-03-07 04:06:00,38.0,26.9,30.30,NW,308,3.0,4.0,64,0.00,,---,0.00,VWS V14.00,2013-03-07 10:06:00,
2013-03-07 04:07:00,36.6,27.4,30.30,NW,308,0.0,0.0,69,0.00,,---,0.00,VWS V14.00,2013-03-07 10:07:00,
2013-03-07 04:08:00,36.6,27.4,30.30,NW,308,0.0,0.0,69,0.00,,---,0.00,VWS V14.00,2013-03-07 10:08:00,
2013-03-07 04:09:00,36.6,27.4,30.30,NW,308,0.0,0.0,69,0.00,,---,0.00,VWS V14.00,2013-03-07 10:09:00,
2013-03-07 04:10:00,36.5,27.7,30.30,NW,308,0.0,0.0,70,0.00,,---,0.00,VWS V14.00,2013-03-07 10:10:00,
2013-03-07 04:11:00,38.0,26.9,30.30,NW,308,4.0,5.0,64,0.00,,---,0.00,VWS V14.00,2013-03-07 10:11:00,
2013-03-07 04:12:00,36.3,27.5,30.30,NW,308,0.0,0.0,70,0.00,,---,0.00,VWS V14.00,2013-03-07 10:12:00,
2013-03-07 04:13:00,36.2,27.4,30.30,NW,308,0.0,0.0,70,0.00,,---,0.00,VWS V14.00,2013-03-07 10:13:00,
2013-03-07 04:14:00,36.2,27.4,30.30,NW,308,0.0,0.0,70,0.00,,---,0.00,VWS V14.00,2013-03-07 10:14:00,
2013-03-07 04:15:00,36.0,27.2,30.30,NW,308,0.0,0.0,70,0.00,,---,0.00,VWS V14.00,2013-03-07 10:15:00,
2013-03-07 04:16:00,38.2,26.7,30.30,NW,308,4.0,5.0,63,0.00,,---,0.00,VWS V14.00,2013-03-07 10:16:00,
2013-03-07 04:17:00,36.0,27.5,30.30,NW,308,0.0,0.0,71,0.00,,---,0.00,VWS V14.00,2013-03-07 10:17:00,
2013-03-07 04:18:00,35.9,27.4,30.30,NW,308,0.0,0.0,71,0.00,,---,0.00,VWS V14.00,2013-03-07 10:18:00,
2013-03-07 04:19:00,35.9,27.4,30.30,NW,308,0.0,0.0,71,0.00,,---,0.00,VWS V14.00,2013-03-07 10:19:00,
2013-03-07 04:20:00,35.9,27.4,30.30,NW,308,0.0,0.0,71,0.00,,---,0.00,VWS V14.00,2013-03-07 10:20:00,
2013-03-07 04:21:00,38.3,26.8,30.30,NW,308,0.0,2.0,63,0.00,,---,0.00,VWS V14.00,2013-03-07 10:21:00,
2013-03-07 04:22:00,35.8,27.3,30.30,NW,308,0.0,0.0,71,0.00,,---,0.00,VWS V14.00,2013-03-07 10:22:00,
2013-03-07 04:23:00,35.8,27.3,30.30,NW,308,0.0,0.0,71,0.00,,---,0.00,VWS V14.00,2013-03-07 10:23:00,
2013-03-07 04:24:00,35.8,27.3,30.30,NW,308,0.0,0.0,71,0.00,,---,0.00,VWS V14.00,2013-03-07 10:24:00,
2013-03-07 04:25:00,35.6,27.1,30.30,NW,308,0.0,0.0,71,0.00,,---,0.00,VWS V14.00,2013-03-07 10:25:00,
2013-03-07 04:26:00,38.3,26.4,30.30,NW,308,2.0,4.0,62,0.00,,---,0.00,VWS V14.00,2013-03-07 10:26:00,
2013-03-07 04:27:00,35.6,27.1,30.30,NW,308,0.0,0.0,71,0.00,,---,0.00,VWS V14.00,2013-03-07 10:27:00,
2013-03-07 04:28:00,35.5,27.0,30.30,NW,308,0.0,0.0,71,0.00,,---,0.00,VWS V14.00,2013-03-07 10:28:00,
2013-03-07 04:29:00,35.5,27.0,30.30,NW,308,0.0,0.0,71,0.00,,---,0.00,VWS V14.00,2013-03-07 10:29:00,
2013-03-07 04:30:00,35.5,27.0,30.30,NW,308,0.0,0.0,71,0.00,,---,0.00,VWS V14.00,2013-03-07 10:30:00,
2013-03-07 04:31:00,38.2,26.3,30.30,NW,308,0.0,3.0,62,0.00,,---,0.00,VWS V14.00,2013-03-07 10:31:00,
2013-03-07 04:32:00,35.3,27.2,30.30,NW,308,0.0,0.0,72,0.00,,---,0.00,VWS V14.00,2013-03-07 10:32:00,
2013-03-07 04:33:00,35.2,27.1,30.30,NW,308,0.0,0.0,72,0.00,,---,0.00,VWS V14.00,2013-03-07 10:33:00,
2013-03-07 04:34:00,35.2,27.1,30.30,NW,308,0.0,0.0,72,0.00,,---,0.00,VWS V14.00,2013-03-07 10:34:00,
2013-03-07 04:35:00,35.0,26.9,30.30,NW,308,0.0,0.0,72,0.00,,---,0.00,VWS V14.00,2013-03-07 10:35:00,
2013-03-07 04:36:00,38.2,27.1,30.30,NW,308,0.0,0.0,64,0.00,,---,0.00,VWS V14.00,2013-03-07 10:36:00,
2013-03-07 04:37:00,35.0,26.9,30.30,NW,308,0.0,0.0,72,0.00,,---,0.00,VWS V14.00,2013-03-07 10:37:00,
2013-03-07 04:38:00,34.9,26.8,30.30,NW,308,0.0,0.0,72,0.00,,---,0.00,VWS V14.00,2013-03-07 10:38:00,
2013-03-07 04:39:00,34.9,26.8,30.30,NW,308,0.0,0.0,72,0.00,,---,0.00,VWS V14.00,2013-03-07 10:39:00,
2013-03-07 04:40:00,34.9,26.8,30.30,NW,308,0.0,0.0,72,0.00,,---,0.00,VWS V14.00,2013-03-07 10:40:00,
2013-03-07 04:41:00,37.9,26.5,30.30,NW,308,0.0,0.0,63,0.00,,---,0.00,VWS V14.00,2013-03-07 10:41:00,
2013-03-07 04:42:00,34.7,27.0,30.30,NW,308,0.0,0.0,73,0.00,,---,0.00,VWS V14.00,2013-03-07 10:42:00,
2013-03-07 04:43:00,34.7,27.0,30.30,NW,308,0.0,0.0,73,0.00,,---,0.00,VWS V14.00,2013-03-07 10:43:00,
2013-03-07 04:44:00,34.7,27.0,30.30,NW,308,0.0,0.0,73,0.00,,---,0.00,VWS V14.00,2013-03-07 10:44:00,
2013-03-07 04:45:00,34.6,26.9,30.30,NW,308,0.0,0.0,73,0.00,,---,0.00,VWS V14.00,2013-03-07 10:45:00,
2013-03-07 04:46:00,37.8,26.7,30.30,NW,308,0.0,0.0,64,0.00,,---,0.00,VWS V14.00,2013-03-07 10:46:00,
2013-03-07 04:47:00,34.6,26.9,30.30,NW,308,0.0,0.0,73,0.00,,---,0.00,VWS V14.00,2013-03-07 10:47:00,
2013-03-07 04:48:00,34.4,26.7,30.30,NW,308,0.0,0.0,73,0.00,,---,0.00,VWS V14.00,2013-03-07 10:48:00,
2013-03-07 04:49:00,34.4,26.7,30.30,NW,308,0.0,0.0,73,0.00,,---,0.00,VWS V14.00,2013-03-07 10:49:00,
2013-03-07 04:50:00,34.3,26.6,30.30,NW,308,0.0,0.0,73,0.00,,---,0.00,VWS V14.00,2013-03-07 10:50:00,
2013-03-07 04:51:00,37.5,26.8,30.30,NW,308,0.0,0.0,65,0.00,,---,0.00,VWS V14.00,2013-03-07 10:51:00,
2013-03-07 04:52:00,34.1,26.4,30.30,NW,308,0.0,0.0,73,0.00,,---,0.00,VWS V14.00,2013-03-07 10:52:00,
2013-03-07 04:53:00,34.1,26.4,30.30,NW,308,0.0,0.0,73,0.00,,---,0.00,VWS V14.00,2013-03-07 10:53:00,
2013-03-07 04:54:00,34.1,26.4,30.30,NW,308,0.0,0.0,73,0.00,,---,0.00,VWS V14.00,2013-03-07 10:54:00,
2013-03-07 04:55:00,34.0,26.3,30.30,NW,308,0.0,0.0,73,0.00,,---,0.00,VWS V14.00,2013-03-07 10:55:00,
2013-03-07 04:56:00,37.0,27.1,30.29,NW,308,2.0,3.0,67,0.00,,---,0.00,VWS V14.00,2013-03-07 10:56:00,
2013-03-07 04:57:00,34.0,26.3,30.30,NW,308,0.0,0.0,73,0.00,,---,0.00,VWS V14.00,2013-03-07 10:57:00,
2013-03-07 04:58:00,33.8,26.1,30.30,NW,308,0.0,0.0,73,0.00,,---,0.00,VWS V14.00,2013-03-07 10:58:00,
2013-03-07 04:59:00,33.8,26.1,30.30,NW,308,0.0,0.0,73,0.00,,---,0.00,VWS V14.00,2013-03-07 10:59:00,
2013-03-07 05:00:00,33.8,26.1,30.30,NW,308,0.0,0.0,73,0.00,,---,0.00,VWS V14.00,2013-03-07 11:00:00,
2013-03-07 05:01:00,36.9,27.0,30.30,NW,308,0.0,0.0,67,0.00,,---,0.00,VWS V14.00,2013-03-07 11:01:00,
2013-03-07 05:02:00,33.7,26.0,30.31,NW,308,0.0,0.0,73,0.00,,---,0.00,VWS V14.00,2013-03-07 11:02:00,
2013-03-07 05:03:00,33.7,26.0,30.31,NW,308,0.0,0.0,73,0.00,,---,0.00,VWS V14.00,2013-03-07 11:03:00,
2013-03-07 05:04:00,33.7,26.3,30.31,NW,308,0.0,0.0,74,0.00,,---,0.00,VWS V14.00,2013-03-07 11:04:00,
2013-03-07 05:05:00,33.5,26.1,30.31,NW,308,0.0,0.0,74,0.00,,---,0.00,VWS V14.00,2013-03-07 11:05:00,
2013-03-07 05:06:00,36.6,27.0,30.30,NW,308,0.0,0.0,68,0.00,,---,0.00,VWS V14.00,2013-03-07 11:06:00,
2013-03-07 05:07:00,33.5,26.1,30.31,NW,308,0.0,0.0,74,0.00,,---,0.00,VWS V14.00,2013-03-07 11:07:00,
2013-03-07 05:08:00,33.5,26.1,30.31,NW,308,0.0,0.0,74,0.00,,---,0.00,VWS V14.00,2013-03-07 11:08:00,
2013-03-07 05:09:00,33.4,26.0,30.31,NW,308,0.0,0.0,74,0.00,,---,0.00,VWS V14.00,2013-03-07 11:09:00,
2013-03-07 05:10:00,33.4,26.0,30.31,NW,308,0.0,0.0,74,0.00,,---,0.00,VWS V14.00,2013-03-07 11:10:00,
2013-03-07 05:11:00,36.3,27.5,30.30,NW,308,0.0,0.0,70,0.00,,---,0.00,VWS V14.00,2013-03-07 11:11:00,
2013-03-07 05:12:00,33.4,26.0,30.31,NW,308,0.0,0.0,74,0.00,,---,0.00,VWS V14.00,2013-03-07 11:12:00,
2013-03-07 05:13:00,33.4,26.0,30.31,NW,308,0.0,0.0,74,0.00,,---,0.00,VWS V14.00,2013-03-07 11:13:00,
2013-03-07 05:14:00,33.2,26.1,30.31,NW,308,0.0,0.0,75,0.00,,---,0.00,VWS V14.00,2013-03-07 11:14:00,
2013-03-07 05:15:00,33.2,26.1,30.31,NW,308,0.0,0.0,75,0.00,,---,0.00,VWS V14.00,2013-03-07 11:15:00,
2013-03-07 05:16:00,36.0,27.5,30.30,NW,308,0.0,0.0,71,0.00,,---,0.00,VWS V14.00,2013-03-07 11:16:00,
2013-03-07 05:17:00,33.2,26.1,30.31,NW,308,0.0,0.0,75,0.00,,---,0.00,VWS V14.00,2013-03-07 11:17:00,
2013-03-07 05:18:00,33.2,26.1,30.31,NW,308,0.0,0.0,75,0.00,,---,0.00,VWS V14.00,2013-03-07 11:18:00,
2013-03-07 05:19:00,33.1,26.0,30.31,NW,308,0.0,0.0,75,0.00,,---,0.00,VWS V14.00,2013-03-07 11:19:00,
2013-03-07 05:20:00,33.1,26.0,30.31,NW,308,0.0,0.0,75,0.00,,---,0.00,VWS V14.00,2013-03-07 11:20:00,
2013-03-07 05:21:00,35.8,27.3,30.30,NW,308,0.0,0.0,71,0.00,,---,0.00,VWS V14.00,2013-03-07 11:21:00,
2013-03-07 05:22:00,32.9,25.9,30.31,NW,308,0.0,0.0,75,0.00,,---,0.00,VWS V14.00,2013-03-07 11:22:00,
2013-03-07 05:23:00,32.9,25.9,30.31,NW,308,0.0,0.0,75,0.00,,---,0.00,VWS V14.00,2013-03-07 11:23:00,
2013-03-07 05:24:00,32.9,25.9,30.31,NW,308,0.0,0.0,75,0.00,,---,0.00,VWS V14.00,2013-03-07 11:24:00,
2013-03-07 05:25:00,32.9,25.9,30.31,NW,308,0.0,0.0,75,0.00,,---,0.00,VWS V14.00,2013-03-07 11:25:00,
2013-03-07 05:26:00,35.6,27.1,30.30,NW,308,0.0,0.0,71,0.00,,---,0.00,VWS V14.00,2013-03-07 11:26:00,
2013-03-07 05:27:00,32.8,25.8,30.31,NW,308,0.0,0.0,75,0.00,,---,0.00,VWS V14.00,2013-03-07 11:27:00,
2013-03-07 05:28:00,32.8,25.8,30.31,NW,308,0.0,0.0,75,0.00,,---,0.00,VWS V14.00,2013-03-07 11:28:00,
2013-03-07 05:29:00,32.7,25.7,30.31,NW,308,0.0,0.0,75,0.00,,---,0.00,VWS V14.00,2013-03-07 11:29:00,
2013-03-07 05:30:00,32.7,26.0,30.31,NW,308,0.0,0.0,76,0.00,,---,0.00,VWS V14.00,2013-03-07 11:30:00,
2013-03-07 05:31:00,32.7,26.0,30.31,NW,308,0.0,0.0,76,0.00,,---,0.00,VWS V14.00,2013-03-07 11:31:00,
2013-03-07 05:32:00,35.3,27.2,30.30,NW,308,0.0,0.0,72,0.00,,---,0.00,VWS V14.00,2013-03-07 11:32:00,
2013-03-07 05:33:00,32.5,25.8,30.31,NW,308,0.0,0.0,76,0.00,,---,0.00,VWS V14.00,2013-03-07 11:33:00,
2013-03-07 05:34:00,32.5,25.8,30.31,NW,308,0.0,0.0,76,0.00,,---,0.00,VWS V14.00,2013-03-07 11:34:00,
2013-03-07 05:35:00,32.5,25.8,30.31,NW,308,0.0,0.0,76,0.00,,---,0.00,VWS V14.00,2013-03-07 11:35:00,
2013-03-07 05:36:00,32.4,25.7,30.31,NW,308,0.0,0.0,76,0.00,,---,0.00,VWS V14.00,2013-03-07 11:36:00,
2013-03-07 05:37:00,35.0,26.9,30.30,NW,308,0.0,0.0,72,0.00,,---,0.00,VWS V14.00,2013-03-07 11:37:00,
2013-03-07 05:38:00,32.4,25.7,30.31,NW,308,0.0,0.0,76,0.00,,---,0.00,VWS V14.00,2013-03-07 11:38:00,
2013-03-07 05:39:00,32.2,25.5,30.31,NW,308,0.0,0.0,76,0.00,,---,0.00,VWS V14.00,2013-03-07 11:39:00,
2013-03-07 05:40:00,32.2,25.5,30.31,NW,308,0.0,0.0,76,0.00,,---,0.00,VWS V14.00,2013-03-07 11:40:00,
2013-03-07 05:41:00,32.1,25.7,30.31,NW,308,0.0,0.0,77,0.00,,---,0.00,VWS V14.00,2013-03-07 11:41:00,
2013-03-07 05:42:00,34.7,27.0,30.30,NW,308,0.0,0.0,73,0.00,,---,0.00,VWS V14.00,2013-03-07 11:42:00,
2013-03-07 05:43:00,31.9,25.5,30.31,NW,308,0.0,0.0,77,0.00,,---,0.00,VWS V14.00,2013-03-07 11:43:00,
2013-03-07 05:44:00,31.9,25.5,30.31,NW,308,0.0,0.0,77,0.00,,---,0.00,VWS V14.00,2013-03-07 11:44:00,
2013-03-07 05:45:00,31.9,25.5,30.32,NW,308,0.0,0.0,77,0.00,,---,0.00,VWS V14.00,2013-03-07 11:45:00,
2013-03-07 05:46:00,31.9,25.5,30.32,NW,308,0.0,0.0,77,0.00,,---,0.00,VWS V14.00,2013-03-07 11:46:00,
2013-03-07 05:47:00,34.6,26.9,30.30,NW,308,0.0,0.0,73,0.00,,---,0.00,VWS V14.00,2013-03-07 11:47:00,
2013-03-07 05:48:00,31.9,25.5,30.32,NW,308,0.0,0.0,77,0.00,,---,0.00,VWS V14.00,2013-03-07 11:48:00,
2013-03-07 05:49:00,31.9,25.5,30.32,NW,308,0.0,0.0,77,0.00,,---,0.00,VWS V14.00,2013-03-07 11:49:00,
2013-03-07 05:50:00,31.8,25.4,30.32,NW,308,0.0,0.0,77,0.00,,---,0.00,VWS V14.00,2013-03-07 11:50:00,
2013-03-07 05:51:00,31.8,25.4,30.32,NW,308,0.0,0.0,77,0.00,,---,0.00,VWS V14.00,2013-03-07 11:51:00,
2013-03-07 05:52:00,34.3,26.6,30.30,NW,308,0.0,0.0,73,0.00,,---,0.00,VWS V14.00,2013-03-07 11:52:00,
2013-03-07 05:53:00,31.8,25.4,30.32,NW,308,0.0,0.0,77,0.00,,---,0.00,VWS V14.00,2013-03-07 11:53:00,
2013-03-07 05:54:00,31.8,25.4,30.32,NW,308,0.0,0.0,77,0.00,,---,0.00,VWS V14.00,2013-03-07 11:54:00,
2013-03-07 05:55:00,31.8,25.4,30.32,NW,308,0.0,0.0,77,0.00,,---,0.00,VWS V14.00,2013-03-07 11:55:00,
2013-03-07 05:56:00,31.8,25.7,30.31,NW,308,0.0,0.0,78,0.00,,---,0.00,VWS V14.00,2013-03-07 11:56:00,
2013-03-07 05:57:00,34.0,26.3,30.30,NW,308,0.0,0.0,73,0.00,,---,0.00,VWS V14.00,2013-03-07 11:57:00,
2013-03-07 05:58:00,31.6,25.5,30.31,NW,308,0.0,0.0,78,0.00,,---,0.00,VWS V14.00,2013-03-07 11:58:00,
2013-03-07 05:59:00,31.5,25.4,30.31,NW,308,0.0,0.0,78,0.00,,---,0.00,VWS V14.00,2013-03-07 11:59:00,
2013-03-07 06:00:00,31.5,25.4,30.31,NW,308,0.0,0.0,78,0.00,,---,0.00,VWS V14.00,2013-03-07 12:00:00,
2013-03-07 06:01:00,31.5,25.8,30.31,NW,308,0.0,0.0,79,0.00,,---,0.00,VWS V14.00,2013-03-07 12:01:00,
2013-03-07 06:02:00,33.7,26.0,30.31,NW,308,0.0,0.0,73,0.00,,---,0.00,VWS V14.00,2013-03-07 12:02:00,
2013-03-07 06:03:00,31.5,25.8,30.32,NW,308,1.0,1.0,79,0.00,,---,0.00,VWS V14.00,2013-03-07 12:03:00,
2013-03-07 06:04:00,31.5,25.8,30.32,NW,308,0.0,1.0,79,0.00,,---,0.00,VWS V14.00,2013-03-07 12:04:00,
2013-03-07 06:05:00,31.6,25.9,30.32,NW,308,0.0,0.0,79,0.00,,---,0.00,VWS V14.00,2013-03-07 12:05:00,
2013-03-07 06:06:00,31.6,25.9,30.32,NW,308,0.0,0.0,79,0.00,,---,0.00,VWS V14.00,2013-03-07 12:06:00,
2013-03-07 06:07:00,33.5,26.1,30.31,NW,308,0.0,0.0,74,0.00,,---,0.00,VWS V14.00,2013-03-07 12:07:00,
2013-03-07 06:08:00,31.6,25.9,30.32,NW,308,0.0,2.0,79,0.00,,---,0.00,VWS V14.00,2013-03-07 12:08:00,
2013-03-07 06:09:00,31.8,26.0,30.32,NW,308,0.0,0.0,79,0.00,,---,0.00,VWS V14.00,2013-03-07 12:09:00,
2013-03-07 06:10:00,31.8,26.0,30.32,NW,308,0.0,0.0,79,0.00,,---,0.00,VWS V14.00,2013-03-07 12:10:00,
2013-03-07 06:11:00,31.8,26.0,30.32,NW,308,0.0,3.0,79,0.00,,---,0.00,VWS V14.00,2013-03-07 12:11:00,
2013-03-07 06:12:00,33.4,26.0,30.31,NW,308,0.0,0.0,74,0.00,,---,0.00,VWS V14.00,2013-03-07 12:12:00,
2013-03-07 06:13:00,31.9,26.1,30.32,NW,308,0.0,0.0,79,0.00,,---,0.00,VWS V14.00,2013-03-07 12:13:00,
2013-03-07 06:14:00,31.9,26.1,30.32,NW,308,0.0,0.0,79,0.00,,---,0.00,VWS V14.00,2013-03-07 12:14:00,
2013-03-07 06:15:00,31.9,26.1,30.32,NW,308,0.0,0.0,79,0.00,,---,0.00,VWS V14.00,2013-03-07 12:15:00,
2013-03-07 06:16:00,31.9,26.1,30.32,NW,308,0.0,0.0,79,0.00,,---,0.00,VWS V14.00,2013-03-07 12:16:00,
2013-03-07 06:17:00,33.2,26.1,30.31,NW,308,0.0,0.0,75,0.00,,---,0.00,VWS V14.00,2013-03-07 12:17:00,
2013-03-07 06:18:00,31.9,26.1,30.32,NW,308,0.0,0.0,79,0.00,,---,0.00,VWS V14.00,2013-03-07 12:18:00,
2013-03-07 06:19:00,32.1,26.3,30.32,NW,308,0.0,0.0,79,0.00,,---,0.00,VWS V14.00,2013-03-07 12:19:00,
2013-03-07 06:20:00,32.1,26.3,30.32,NW,308,0.0,0.0,79,0.00,,---,0.00,VWS V14.00,2013-03-07 12:20:00,
2013-03-07 06:21:00,32.1,26.3,30.32,NW,308,0.0,0.0,79,0.00,,---,0.00,VWS V14.00,2013-03-07 12:21:00,
2013-03-07 06:22:00,32.2,26.4,30.32,NW,308,0.0,0.0,79,0.00,,---,0.00,VWS V14.00,2013-03-07 12:22:00,
2013-03-07 06:23:00,32.9,25.9,30.31,NW,308,0.0,0.0,75,0.00,,---,0.00,VWS V14.00,2013-03-07 12:23:00,
2013-03-07 06:24:00,32.4,26.6,30.32,NW,308,0.0,0.0,79,0.00,,---,0.00,VWS V14.00,2013-03-07 12:24:00,
2013-03-07 06:25:00,32.4,26.6,30.32,NW,308,0.0,0.0,79,0.00,,---,0.00,VWS V14.00,2013-03-07 12:25:00,
2013-03-07 06:26:00,32.5,26.7,30.33,NW,308,0.0,0.0,79,0.00,,---,0.00,VWS V14.00,2013-03-07 12:26:00,
2013-03-07 06:27:00,32.8,25.8,30.31,NW,308,0.0,0.0,75,0.00,,---,0.00,VWS V14.00,2013-03-07 12:27:00,
2013-03-07 06:28:00,32.7,26.9,30.33,NW,308,0.0,0.0,79,0.00,,---,0.00,VWS V14.00,2013-03-07 12:28:00,
2013-03-07 06:29:00,32.8,27.0,30.33,NW,308,0.0,0.0,79,0.00,,---,0.00,VWS V14.00,2013-03-07 12:29:00,
2013-03-07 06:30:00,32.9,27.1,30.33,NW,308,0.0,0.0,79,0.00,,---,0.00,VWS V14.00,2013-03-07 12:30:00,
2013-03-07 06:31:00,33.1,27.3,30.33,NW,308,0.0,0.0,79,0.00,,---,0.00,VWS V14.00,2013-03-07 12:31:00,
2013-03-07 06:32:00,33.1,27.3,30.33,NW,308,0.0,0.0,79,0.00,,---,0.00,VWS V14.00,2013-03-07 12:32:00,
2013-03-07 06:33:00,32.5,25.8,30.31,NW,308,0.0,0.0,76,0.00,,---,0.00,VWS V14.00,2013-03-07 12:33:00,
2013-03-07 06:34:00,33.4,27.6,30.33,NW,308,0.0,0.0,79,0.00,,---,0.00,VWS V14.00,2013-03-07 12:34:00,
2013-03-07 06:35:00,33.5,27.7,30.33,NW,308,0.0,0.0,79,0.00,,---,0.00,VWS V14.00,2013-03-07 12:35:00,
2013-03-07 06:36:00,33.7,27.9,30.32,NW,308,0.0,0.0,79,0.00,,---,0.00,VWS V14.00,2013-03-07 12:36:00,
2013-03-07 06:37:00,33.8,28.0,30.32,NW,308,0.0,0.0,79,0.00,,---,0.00,VWS V14.00,2013-03-07 12:37:00,
2013-03-07 06:38:00,32.4,25.7,30.31,NW,308,0.0,0.0,76,0.00,,---,0.00,VWS V14.00,2013-03-07 12:38:00,
2013-03-07 06:39:00,34.1,28.3,30.33,NW,308,0.0,0.0,79,0.00,,---,0.00,VWS V14.00,2013-03-07 12:39:00,
2013-03-07 06:40:00,34.3,28.5,30.33,NW,308,0.0,0.0,79,0.00,,---,0.00,VWS V14.00,2013-03-07 12:40:00,
2013-03-07 06:41:00,34.3,28.5,30.33,NW,308,0.0,0.0,79,0.00,,---,0.00,VWS V14.00,2013-03-07 12:41:00,
2013-03-07 06:42:00,34.4,28.6,30.33,NW,308,0.0,0.0,79,0.00,,---,0.00,VWS V14.00,2013-03-07 12:42:00,
2013-03-07 06:43:00,32.1,25.7,30.31,NW,308,0.0,0.0,77,0.00,,---,0.00,VWS V14.00,2013-03-07 12:43:00,
2013-03-07 06:44:00,34.7,28.9,30.33,NW,308,0.0,0.0,79,0.00,,---,0.00,VWS V14.00,2013-03-07 12:44:00,
2013-03-07 06:45:00,34.9,29.1,30.33,NW,308,0.0,0.0,79,0.00,,---,0.00,VWS V14.00,2013-03-07 12:45:00,
2013-03-07 06:46:00,34.9,29.1,30.33,NW,308,0.0,0.0,79,0.00,,---,0.00,VWS V14.00,2013-03-07 12:46:00,
2013-03-07 06:47:00,35.0,29.2,30.33,NW,308,0.0,0.0,79,0.00,,---,0.00,VWS V14.00,2013-03-07 12:47:00,
2013-03-07 06:48:00,31.9,25.5,30.32,NW,308,0.0,0.0,77,0.00,,---,0.00,VWS V14.00,2013-03-07 12:48:00,
2013-03-07 06:49:00,35.3,29.1,30.33,NW,308,0.0,0.0,78,0.00,,---,0.00,VWS V14.00,2013-03-07 12:49:00,
2013-03-07 06:50:00,35.5,29.3,30.33,NW,308,0.0,0.0,78,0.00,,---,0.00,VWS V14.00,2013-03-07 12:50:00,
2013-03-07 06:51:00,35.6,29.4,30.33,NW,308,0.0,0.0,78,0.00,,---,0.00,VWS V14.00,2013-03-07 12:51:00,
2013-03-07 06:52:00,35.6,29.4,30.33,NW,308,0.0,0.0,78,0.00,,---,0.00,VWS V14.00,2013-03-07 12:52:00,
2013-03-07 06:53:00,31.8,25.4,30.32,NW,308,0.0,0.0,77,0.00,,---,0.00,VWS V14.00,2013-03-07 12:53:00,
2013-03-07 06:54:00,35.8,29.6,30.33,NW,308,0.0,0.0,78,0.00,,---,0.00,VWS V14.00,2013-03-07 12:54:00,
2013-03-07 06:55:00,35.9,29.7,30.33,NW,308,0.0,0.0,78,0.00,,---,0.00,VWS V14.00,2013-03-07 12:55:00,
2013-03-07 06:56:00,35.9,29.7,30.33,NW,308,0.0,0.0,78,0.00,,---,0.00,VWS V14.00,2013-03-07 12:56:00,
2013-03-07 06:57:00,36.0,29.8,30.33,NW,308,0.0,0.0,78,0.00,,---,0.00,VWS V14.00,2013-03-07 12:57:00,
2013-03-07 06:58:00,31.6,25.5,30.31,NW,308,0.0,0.0,78,0.00,,---,0.00,VWS V14.00,2013-03-07 12:58:00,
2013-03-07 06:59:00,36.0,29.8,30.33,NW,308,0.0,0.0,78,0.00,,---,0.00,VWS V14.00,2013-03-07 12:59:00,
2013-03-07 07:00:00,36.2,30.0,30.33,NW,308,0.0,0.0,78,0.00,,---,0.00,VWS V14.00,2013-03-07 13:00:00,
2013-03-07 07:01:00,36.3,30.1,30.33,NW,308,0.0,0.0,78,0.00,,---,0.00,VWS V14.00,2013-03-07 13:01:00,
2013-03-07 07:02:00,36.5,30.3,30.33,NW,308,0.0,0.0,78,0.00,,---,0.00,VWS V14.00,2013-03-07 13:02:00,
2013-03-07 07:03:00,31.5,25.8,30.32,NW,308,0.0,0.0,79,0.00,,---,0.00,VWS V14.00,2013-03-07 13:03:00,
2013-03-07 07:04:00,36.9,30.7,30.33,NW,308,0.0,0.0,78,0.00,,---,0.00,VWS V14.00,2013-03-07 13:04:00,
2013-03-07 07:05:00,37.0,30.5,30.33,NW,308,0.0,0.0,77,0.00,,---,0.00,VWS V14.00,2013-03-07 13:05:00,
2013-03-07 07:06:00,37.2,30.4,30.33,NW,308,0.0,0.0,76,0.00,,---,0.00,VWS V14.00,2013-03-07 13:06:00,
2013-03-07 07:07:00,37.5,30.6,30.33,NW,308,0.0,0.0,76,0.00,,---,0.00,VWS V14.00,2013-03-07 13:07:00,
2013-03-07 07:08:00,31.6,25.9,30.32,NW,308,0.0,2.0,79,0.00,,---,0.00,VWS V14.00,2013-03-07 13:08:00,
2013-03-07 07:09:00,37.9,31.0,30.33,NW,308,0.0,0.0,76,0.00,,---,0.00,VWS V14.00,2013-03-07 13:09:00,
2013-03-07 07:10:00,38.0,30.8,30.33,NW,308,0.0,0.0,75,0.00,,---,0.00,VWS V14.00,2013-03-07 13:10:00,
2013-03-07 07:11:00,38.2,31.0,30.33,NW,308,0.0,0.0,75,0.00,,---,0.00,VWS V14.00,2013-03-07 13:11:00,
2013-03-07 07:12:00,38.3,31.1,30.33,NW,308,0.0,0.0,75,0.00,,---,0.00,VWS V14.00,2013-03-07 13:12:00,
2013-03-07 07:13:00,31.8,26.0,30.32,NW,308,0.0,0.0,79,0.00,,---,0.00,VWS V14.00,2013-03-07 13:13:00,
2013-03-07 07:14:00,38.6,31.4,30.33,NW,308,0.0,0.0,75,0.00,,---,0.00,VWS V14.00,2013-03-07 13:14:00,
2013-03-07 07:15:00,38.8,31.6,30.33,NW,308,0.0,0.0,75,0.00,,---,0.00,VWS V14.00,2013-03-07 13:15:00,
2013-03-07 07:16:00,38.8,31.2,30.33,NW,308,0.0,0.0,74,0.00,,---,0.00,VWS V14.00,2013-03-07 13:16:00,
2013-03-07 07:17:00,38.9,30.7,30.33,NW,308,0.0,2.0,72,0.00,,---,0.00,VWS V14.00,2013-03-07 13:17:00,
2013-03-07 07:18:00,31.9,26.1,30.32,NW,308,0.0,0.0,79,0.00,,---,0.00,VWS V14.00,2013-03-07 13:18:00,
2013-03-07 07:19:00,39.2,31.0,30.33,NW,308,0.0,0.0,72,0.00,,---,0.00,VWS V14.00,2013-03-07 13:19:00,
2013-03-07 07:20:00,39.3,31.4,30.33,NW,308,2.0,2.0,73,0.00,,---,0.00,VWS V14.00,2013-03-07 13:20:00,
2013-03-07 07:21:00,39.5,31.9,30.33,NW,308,3.0,3.0,74,0.00,,---,0.00,VWS V14.00,2013-03-07 13:21:00,
2013-03-07 07:22:00,39.6,31.0,30.32,NW,308,1.0,3.0,71,0.00,,---,0.00,VWS V14.00,2013-03-07 13:22:00,
2013-03-07 07:23:00,32.2,26.4,30.32,NW,308,0.0,0.0,79,0.00,,---,0.00,VWS V14.00,2013-03-07 13:23:00,
2013-03-07 07:24:00,40.2,30.1,30.32,NW,308,4.0,4.0,67,0.00,,---,0.00,VWS V14.00,2013-03-07 13:24:00,
2013-03-07 07:25:00,40.5,30.4,30.32,NW,308,3.0,4.0,67,0.00,,---,0.00,VWS V14.00,2013-03-07 13:25:00,
2013-03-07 07:26:00,40.9,30.4,30.32,NW,308,4.0,6.0,66,0.00,,---,0.00,VWS V14.00,2013-03-07 13:26:00,
2013-03-07 07:27:00,41.2,30.3,30.32,NW,308,4.0,4.0,65,0.00,,---,0.00,VWS V14.00,2013-03-07 13:27:00,
2013-03-07 07:28:00,32.7,26.9,30.33,NW,308,0.0,0.0,79,0.00,,---,0.00,VWS V14.00,2013-03-07 13:28:00,
2013-03-07 07:29:00,41.8,30.1,30.32,NW,307,13.0,13.0,63,0.00,,---,0.00,VWS V14.00,2013-03-07 13:29:00,
2013-03-07 07:30:00,42.2,29.3,30.32,SE,131,6.0,13.0,60,0.00,,---,0.00,VWS V14.00,2013-03-07 13:30:00,
2013-03-07 07:31:00,42.6,29.7,30.32,SE,129,9.0,10.0,60,0.00,,---,0.00,VWS V14.00,2013-03-07 13:31:00,
2013-03-07 07:32:00,42.9,30.0,30.32,ESE,123,12.0,13.0,60,0.00,,---,0.00,VWS V14.00,2013-03-07 13:32:00,
2013-03-07 07:33:00,33.2,27.4,30.33,NW,308,0.0,0.0,79,0.00,,---,0.00,VWS V14.00,2013-03-07 13:33:00,
2013-03-07 07:34:00,43.5,28.9,30.32,SE,137,6.0,14.0,56,0.00,,---,0.00,VWS V14.00,2013-03-07 13:34:00,
2013-03-07 07:35:00,43.8,29.1,30.32,SE,138,9.0,11.0,56,0.00,,---,0.00,VWS V14.00,2013-03-07 13:35:00,
2013-03-07 07:36:00,44.1,29.4,30.32,SSE,147,5.0,10.0,56,0.00,,---,0.00,VWS V14.00,2013-03-07 13:36:00,
2013-03-07 07:37:00,44.2,29.5,30.31,SE,144,7.0,9.0,56,0.00,,---,0.00,VWS V14.00,2013-03-07 13:37:00,
2013-03-07 07:38:00,33.8,28.0,30.33,NW,308,0.0,0.0,79,0.00,,---,0.00,VWS V14.00,2013-03-07 13:38:00,
2013-03-07 07:39:00,44.5,29.4,30.31,SSE,155,8.0,16.0,55,0.00,,---,0.00,VWS V14.00,2013-03-07 13:39:00,
2013-03-07 07:40:00,44.6,29.0,30.32,ESE,121,14.0,16.0,54,0.00,,---,0.00,VWS V14.00,2013-03-07 13:40:00,
2013-03-07 07:42:00,44.8,28.3,30.31,SSE,153,7.0,13.0,52,0.00,,---,0.00,VWS V14.00,2013-03-07 13:42:00,
2013-03-07 07:43:00,34.4,28.6,30.33,NW,308,0.0,0.0,79,0.00,,---,0.00,VWS V14.00,2013-03-07 13:43:00,
2013-03-07 07:46:00,45.2,28.6,30.31,SE,146,5.0,11.0,52,0.00,,---,0.00,VWS V14.00,2013-03-07 13:46:00,
2013-03-07 07:47:00,45.4,28.4,30.31,SE,140,11.0,13.0,51,0.00,,---,0.00,VWS V14.00,2013-03-07 13:47:00,
2013-03-07 07:48:00,35.2,29.4,30.33,NW,308,0.0,0.0,79,0.00,,---,0.00,VWS V14.00,2013-03-07 13:48:00,
2013-03-07 07:49:00,45.4,28.8,30.31,SE,138,8.0,8.0,52,0.00,,---,0.00,VWS V14.00,2013-03-07 13:49:00,
2013-03-07 07:50:00,45.5,28.9,30.31,ESE,122,10.0,12.0,52,0.00,,---,0.00,VWS V14.00,2013-03-07 13:50:00,
2013-03-07 07:51:00,45.7,28.6,30.31,SE,144,14.0,14.0,51,0.00,,---,0.00,VWS V14.00,2013-03-07 13:51:00,
2013-03-07 07:52:00,45.7,28.1,30.31,SSE,149,6.0,15.0,50,0.00,,---,0.00,VWS V14.00,2013-03-07 13:52:00,
2013-03-07 07:53:00,35.8,29.6,30.33,NW,308,0.0,0.0,78,0.00,,---,0.00,VWS V14.00,2013-03-07 13:53:00,
2013-03-07 07:54:00,45.8,28.2,30.31,SE,128,10.0,13.0,50,0.00,,---,0.00,VWS V14.00,2013-03-07 13:54:00,
2013-03-07 07:55:00,45.8,28.2,30.31,SE,135,6.0,11.0,50,0.00,,---,0.00,VWS V14.00,2013-03-07 13:55:00,
2013-03-07 07:56:00,46.0,28.4,30.31,SSE,159,6.0,10.0,50,0.00,,---,0.00,VWS V14.00,2013-03-07 13:56:00,
2013-03-07 07:57:00,46.1,28.5,30.31,SSE,153,7.0,10.0,50,0.00,,---,0.00,VWS V14.00,2013-03-07 13:57:00,
2013-03-07 07:58:00,36.0,29.8,30.33,NW,308,0.0,0.0,78,0.00,,---,0.00,VWS V14.00,2013-03-07 13:58:00,
2013-03-07 07:59:00,46.2,28.1,30.32,SE,136,5.0,9.0,49,0.00,,---,0.00,VWS V14.00,2013-03-07 13:59:00,
2013-03-07 08:00:00,46.2,28.1,30.32,SE,137,5.0,10.0,49,0.00,,---,0.00,VWS V14.00,2013-03-07 14:00:00,
2013-03-07 08:01:00,46.4,28.8,30.32,SE,132,9.0,12.0,50,0.00,,---,0.00,VWS V14.00,2013-03-07 14:01:00,
2013-03-07 08:02:00,46.5,28.4,30.32,ESE,120,11.0,11.0,49,0.00,,---,0.00,VWS V14.00,2013-03-07 14:02:00,
2013-03-07 08:03:00,36.6,30.4,30.33,NW,308,0.0,0.0,78,0.00,,---,0.00,VWS V14.00,2013-03-07 14:03:00,
2013-03-07 08:04:00,46.7,28.1,30.31,SE,138,7.0,13.0,48,0.00,,---,0.00,VWS V14.00,2013-03-07 14:04:00,
2013-03-07 08:05:00,46.7,28.1,30.32,SE,134,6.0,11.0,48,0.00,,---,0.00,VWS V14.00,2013-03-07 14:05:00,
2013-03-07 08:06:00,46.8,28.2,30.31,SE,132,6.0,11.0,48,0.00,,---,0.00,VWS V14.00,2013-03-07 14:06:00,
2013-03-07 08:07:00,46.8,28.2,30.32,SE,130,9.0,11.0,48,0.00,,---,0.00,VWS V14.00,2013-03-07 14:07:00,
2013-03-07 08:08:00,37.6,30.7,30.33,NW,308,0.0,0.0,76,0.00,,---,0.00,VWS V14.00,2013-03-07 14:08:00,
2013-03-07 08:09:00,47.0,28.9,30.31,SE,127,10.0,10.0,49,0.00,,---,0.00,VWS V14.00,2013-03-07 14:09:00,
2013-03-07 08:10:00,47.1,28.4,30.32,SE,128,2.0,10.0,48,0.00,,---,0.00,VWS V14.00,2013-03-07 14:10:00,
2013-03-07 08:11:00,47.4,29.2,30.32,SE,128,3.0,5.0,49,0.00,,---,0.00,VWS V14.00,2013-03-07 14:11:00,
2013-03-07 08:12:00,47.7,29.0,30.32,SE,130,5.0,7.0,48,0.00,,---,0.00,VWS V14.00,2013-03-07 14:12:00,
2013-03-07 08:13:00,38.5,31.3,30.33,NW,308,0.0,0.0,75,0.00,,---,0.00,VWS V14.00,2013-03-07 14:13:00,
2013-03-07 08:14:00,48.0,28.8,30.31,SSE,148,10.0,11.0,47,0.00,,---,0.00,VWS V14.00,2013-03-07 14:14:00,
2013-03-07 08:15:00,48.0,28.2,30.31,SSE,151,4.0,11.0,46,0.00,,---,0.00,VWS V14.00,2013-03-07 14:15:00,
2013-03-07 08:16:00,48.2,28.4,30.31,SSE,150,6.0,10.0,46,0.00,,---,0.00,VWS V14.00,2013-03-07 14:16:00,
2013-03-07 08:17:00,48.3,28.0,30.31,SE,145,9.0,10.0,45,0.00,,---,0.00,VWS V14.00,2013-03-07 14:17:00,
2013-03-07 08:18:00,39.1,30.9,30.33,NW,308,0.0,0.0,72,0.00,,---,0.00,VWS V14.00,2013-03-07 14:18:00,
2013-03-07 08:19:00,48.3,28.0,30.31,SE,145,9.0,10.0,45,0.00,,---,0.00,VWS V14.00,2013-03-07 14:19:00,
2013-03-07 08:20:00,48.3,28.0,30.31,SE,135,7.0,12.0,45,0.00,,---,0.00,VWS V14.00,2013-03-07 14:20:00,
2013-03-07 08:21:00,48.3,28.0,30.31,SE,130,9.0,12.0,45,0.00,,---,0.00,VWS V14.00,2013-03-07 14:21:00,
2013-03-07 08:22:00,48.3,28.0,30.31,SE,130,7.0,11.0,45,0.00,,---,0.00,VWS V14.00,2013-03-07 14:22:00,
2013-03-07 08:23:00,39.9,30.9,30.33,NW,308,2.0,4.0,70,0.00,,---,0.00,VWS V14.00,2013-03-07 14:23:00,
2013-03-07 08:24:00,48.5,28.1,30.32,SE,135,10.0,14.0,45,0.00,,---,0.00,VWS V14.00,2013-03-07 14:24:00,
2013-03-07 08:25:00,48.5,28.1,30.32,SSE,163,10.0,13.0,45,0.00,,---,0.00,VWS V14.00,2013-03-07 14:25:00,
2013-03-07 08:26:00,48.6,27.7,30.32,ESE,123,13.0,16.0,44,0.00,,---,0.00,VWS V14.00,2013-03-07 14:26:00,
2013-03-07 08:27:00,48.6,27.1,30.32,SE,128,11.0,15.0,43,0.00,,---,0.00,VWS V14.00,2013-03-07 14:27:00,
2013-03-07 08:28:00,41.3,30.4,30.32,NW,308,5.0,5.0,65,0.00,,---,0.00,VWS V14.00,2013-03-07 14:28:00,
2013-03-07 08:29:00,48.6,28.2,30.32,SE,126,12.0,13.0,45,0.00,,---,0.00,VWS V14.00,2013-03-07 14:29:00,
2013-03-07 08:30:00,48.6,27.1,30.32,SE,131,9.0,14.0,43,0.00,,---,0.00,VWS V14.00,2013-03-07 14:30:00,
2013-03-07 08:31:00,48.5,27.6,30.32,ESE,121,13.0,13.0,44,0.00,,---,0.00,VWS V14.00,2013-03-07 14:31:00,
2013-03-07 08:32:00,48.5,27.6,30.32,SE,134,8.0,15.0,44,0.00,,---,0.00,VWS V14.00,2013-03-07 14:32:00,
2013-03-07 08:33:00,43.1,29.3,30.32,SE,126,6.0,12.0,58,0.00,,---,0.00,VWS V14.00,2013-03-07 14:33:00,
2013-03-07 08:34:00,48.9,28.0,30.32,SSE,147,7.0,10.0,44,0.00,,---,0.00,VWS V14.00,2013-03-07 14:34:00,
2013-03-07 08:35:00,49.1,27.6,30.32,SSE,147,3.0,9.0,43,0.00,,---,0.00,VWS V14.00,2013-03-07 14:35:00,
2013-03-07 08:36:00,49.2,28.2,30.32,SE,143,13.0,16.0,44,0.00,,---,0.00,VWS V14.00,2013-03-07 14:36:00,
2013-03-07 08:37:00,49.2,28.2,30.32,SE,142,12.0,13.0,44,0.00,,---,0.00,VWS V14.00,2013-03-07 14:37:00,
2013-03-07 08:38:00,44.3,30.0,30.31,SE,141,11.0,11.0,57,0.00,,---,0.00,VWS V14.00,2013-03-07 14:38:00,
2013-03-07 08:39:00,49.2,27.1,30.32,SSE,154,4.0,10.0,42,0.00,,---,0.00,VWS V14.00,2013-03-07 14:39:00,
2013-03-07 08:40:00,49.2,27.1,30.32,SSE,154,6.0,6.0,42,0.00,,---,0.00,VWS V14.00,2013-03-07 14:40:00,
2013-03-07 08:41:00,49.4,27.9,30.32,SSE,154,3.0,6.0,43,0.00,,---,0.00,VWS V14.00,2013-03-07 14:41:00,
2013-03-07 08:42:00,49.5,27.4,30.32,SSE,151,4.0,12.0,42,0.00,,---,0.00,VWS V14.00,2013-03-07 14:42:00,
2013-03-07 08:43:00,44.9,28.8,30.31,SSE,157,7.0,9.0,53,0.00,,---,0.00,VWS V14.00,2013-03-07 14:43:00,
2013-03-07 08:44:00,49.8,28.2,30.31,SSE,150,6.0,6.0,43,0.00,,---,0.00,VWS V14.00,2013-03-07 14:44:00,
2013-03-07 08:45:00,49.8,27.1,30.31,SE,142,6.0,11.0,41,0.00,,---,0.00,VWS V14.00,2013-03-07 14:45:00,
2013-03-07 08:46:00,49.8,27.1,30.31,SE,142,9.0,9.0,41,0.00,,---,0.00,VWS V14.00,2013-03-07 14:46:00,
2013-03-07 08:47:00,49.9,27.1,30.31,SE,142,7.0,9.0,41,0.00,,---,0.00,VWS V14.00,2013-03-07 14:47:00,
2013-03-07 08:48:00,45.4,28.4,30.31,SE,138,9.0,12.0,51,0.00,,---,0.00,VWS V14.00,2013-03-07 14:48:00,
2013-03-07 08:49:00,49.9,27.1,30.31,SE,142,10.0,12.0,41,0.00,,---,0.00,VWS V14.00,2013-03-07 14:49:00,
2013-03-07 08:50:00,49.9,27.1,30.31,SE,138,10.0,10.0,41,0.00,,---,0.00,VWS V14.00,2013-03-07 14:50:00,
2013-03-07 08:51:00,49.8,27.1,30.31,ESE,123,9.0,13.0,41,0.00,,---,0.00,VWS V14.00,2013-03-07 14:51:00,
2013-03-07 08:52:00,49.8,27.1,30.31,ESE,123,6.0,10.0,41,0.00,,---,0.00,VWS V14.00,2013-03-07 14:52:00,
2013-03-07 08:53:00,45.7,28.1,30.31,SE,145,4.0,10.0,50,0.00,,---,0.00,VWS V14.00,2013-03-07 14:53:00,
2013-03-07 08:54:00,49.6,26.9,30.31,ESE,119,10.0,12.0,41,0.00,,---,0.00,VWS V14.00,2013-03-07 14:54:00,
2013-03-07 08:55:00,49.5,26.8,30.31,ESE,115,8.0,14.0,41,0.00,,---,0.00,VWS V14.00,2013-03-07 14:55:00,
2013-03-07 08:56:00,49.6,26.9,30.31,ESE,117,10.0,13.0,41,0.00,,---,0.00,VWS V14.00,2013-03-07 14:56:00,
2013-03-07 08:57:00,49.8,27.1,30.31,ESE,117,5.0,10.0,41,0.00,,---,0.00,VWS V14.00,2013-03-07 14:57:00,
2013-03-07 08:58:00,46.1,28.5,30.31,SE,141,11.0,11.0,50,0.00,,---,0.00,VWS V14.00,2013-03-07 14:58:00,
2013-03-07 08:59:00,49.9,26.6,30.31,ESE,117,8.0,13.0,40,0.00,,---,0.00,VWS V14.00,2013-03-07 14:59:00,
2013-03-07 09:00:00,49.9,26.6,30.31,ESE,119,9.0,11.0,40,0.00,,---,0.00,VWS V14.00,2013-03-07 15:00:00,
2013-03-07 09:01:00,49.9,26.6,30.31,ESE,118,10.0,13.0,40,0.00,,---,0.00,VWS V14.00,2013-03-07 15:01:00,
2013-03-07 09:02:00,49.9,27.1,30.32,ESE,117,4.0,10.0,41,0.00,,---,0.00,VWS V14.00,2013-03-07 15:02:00,
2013-03-07 09:03:00,46.5,28.4,30.32,SE,124,6.0,13.0,49,0.00,,---,0.00,VWS V14.00,2013-03-07 15:03:00,
2013-03-07 09:04:00,50.2,27.4,30.32,SE,137,6.0,6.0,41,0.00,,---,0.00,VWS V14.00,2013-03-07 15:04:00,
2013-03-07 09:05:00,50.2,26.8,30.32,SE,128,8.0,11.0,40,0.00,,---,0.00,VWS V14.00,2013-03-07 15:05:00,
2013-03-07 09:06:00,50.2,26.8,30.32,SE,126,5.0,12.0,40,0.00,,---,0.00,VWS V14.00,2013-03-07 15:06:00,
2013-03-07 09:07:00,50.4,27.0,30.32,SE,128,12.0,12.0,40,0.00,,---,0.00,VWS V14.00,2013-03-07 15:07:00,
2013-03-07 09:08:00,46.8,28.7,30.31,ESE,120,9.0,13.0,49,0.00,,---,0.00,VWS V14.00,2013-03-07 15:08:00,
2013-03-07 09:09:00,50.8,26.8,30.31,SE,130,4.0,7.0,39,0.00,,---,0.00,VWS V14.00,2013-03-07 15:09:00,
2013-03-07 09:10:00,50.8,26.8,30.31,SE,128,7.0,10.0,39,0.00,,---,0.00,VWS V14.00,2013-03-07 15:10:00,
2013-03-07 09:11:00,50.8,26.8,30.31,SE,128,9.0,12.0,39,0.00,,---,0.00,VWS V14.00,2013-03-07 15:11:00,
2013-03-07 09:12:00,51.0,26.9,30.31,SE,135,7.0,12.0,39,0.00,,---,0.00,VWS V14.00,2013-03-07 15:12:00,
2013-03-07 09:13:00,47.9,28.7,30.31,SE,132,8.0,9.0,47,0.00,,---,0.00,VWS V14.00,2013-03-07 15:13:00,
2013-03-07 09:14:00,51.0,26.3,30.31,SE,131,7.0,12.0,38,0.00,,---,0.00,VWS V14.00,2013-03-07 15:14:00,
2013-03-07 09:15:00,51.0,26.9,30.31,SE,131,7.0,9.0,39,0.00,,---,0.00,VWS V14.00,2013-03-07 15:15:00,
2013-03-07 09:16:00,51.0,26.3,30.31,SE,131,2.0,9.0,38,0.00,,---,0.00,VWS V14.00,2013-03-07 15:16:00,
2013-03-07 09:17:00,50.8,26.1,30.31,SE,131,3.0,6.0,38,0.00,,---,0.00,VWS V14.00,2013-03-07 15:17:00,
2013-03-07 09:18:00,48.3,28.0,30.31,SE,144,7.0,14.0,45,0.00,,---,0.00,VWS V14.00,2013-03-07 15:18:00,
2013-03-07 09:19:00,51.0,26.3,30.31,SE,131,4.0,6.0,38,0.00,,---,0.00,VWS V14.00,2013-03-07 15:19:00,
2013-03-07 09:20:00,51.1,26.4,30.31,SE,131,7.0,10.0,38,0.00,,---,0.00,VWS V14.00,2013-03-07 15:20:00,
2013-03-07 09:21:00,51.4,26.7,30.31,SE,131,7.0,10.0,38,0.00,,---,0.00,VWS V14.00,2013-03-07 15:21:00,
2013-03-07 09:22:00,51.6,26.8,30.31,SE,131,4.0,7.0,38,0.00,,---,0.00,VWS V14.00,2013-03-07 15:22:00,
2013-03-07 09:23:00,48.3,27.4,30.31,SE,132,11.0,11.0,44,0.00,,---,0.00,VWS V14.00,2013-03-07 15:23:00,
2013-03-07 09:24:00,51.6,26.8,30.31,SE,128,11.0,11.0,38,0.00,,---,0.00,VWS V14.00,2013-03-07 15:24:00,
2013-03-07 09:25:00,51.4,26.0,30.31,SE,128,6.0,11.0,37,0.00,,---,0.00,VWS V14.00,2013-03-07 15:25:00,
2013-03-07 09:26:00,51.4,26.7,30.31,SE,128,4.0,7.0,38,0.00,,---,0.00,VWS V14.00,2013-03-07 15:26:00,
2013-03-07 09:27:00,51.4,26.7,30.31,SE,124,5.0,11.0,38,0.00,,---,0.00,VWS V14.00,2013-03-07 15:27:00,
2013-03-07 09:28:00,48.6,27.1,30.32,SE,128,11.0,11.0,43,0.00,,---,0.00,VWS V14.00,2013-03-07 15:28:00,
2013-03-07 09:29:00,51.3,27.8,30.31,ESE,121,9.0,13.0,40,0.00,,---,0.00,VWS V14.00,2013-03-07 15:29:00,
2013-03-07 09:30:00,51.6,27.5,30.31,ESE,120,9.0,10.0,39,0.00,,---,0.00,VWS V14.00,2013-03-07 15:30:00,
2013-03-07 09:31:00,51.7,26.3,30.31,ESE,119,11.0,11.0,37,0.00,,---,0.00,VWS V14.00,2013-03-07 15:31:00,
2013-03-07 09:32:00,51.7,26.9,30.31,ESE,123,5.0,11.0,38,0.00,,---,0.00,VWS V14.00,2013-03-07 15:32:00,
2013-03-07 09:33:00,48.5,27.0,30.32,SE,131,11.0,11.0,43,0.00,,---,0.00,VWS V14.00,2013-03-07 15:33:00,
2013-03-07 09:34:00,52.2,26.1,30.31,ESE,121,11.0,11.0,36,0.00,,---,0.00,VWS V14.00,2013-03-07 15:34:00,
2013-03-07 09:35:00,52.2,26.7,30.31,ESE,119,9.0,12.0,37,0.00,,---,0.00,VWS V14.00,2013-03-07 15:35:00,
2013-03-07 09:36:00,52.3,26.8,30.31,ESE,121,10.0,14.0,37,0.00,,---,0.00,VWS V14.00,2013-03-07 15:36:00,
2013-03-07 09:37:00,52.2,26.1,30.31,ESE,118,6.0,12.0,36,0.00,,---,0.00,VWS V14.00,2013-03-07 15:37:00,
2013-03-07 09:38:00,49.2,26.5,30.32,SE,143,11.0,12.0,41,0.00,,---,0.00,VWS V14.00,2013-03-07 15:38:00,
2013-03-07 09:39:00,52.3,26.2,30.31,SSE,168,4.0,12.0,36,0.00,,---,0.00,VWS V14.00,2013-03-07 15:39:00,
2013-03-07 09:40:00,52.6,26.4,30.31,SSE,162,6.0,11.0,36,0.00,,---,0.00,VWS V14.00,2013-03-07 15:40:00,
2013-03-07 09:41:00,52.9,26.0,30.31,SSE,162,4.0,7.0,35,0.00,,---,0.00,VWS V14.00,2013-03-07 15:41:00,
2013-03-07 09:42:00,52.9,26.0,30.31,SSE,162,4.0,5.0,35,0.00,,---,0.00,VWS V14.00,2013-03-07 15:42:00,
2013-03-07 09:43:00,49.6,27.5,30.31,SSE,151,5.0,6.0,42,0.00,,---,0.00,VWS V14.00,2013-03-07 15:43:00,
2013-03-07 09:44:00,52.9,26.0,30.31,SSE,161,5.0,7.0,35,0.00,,---,0.00,VWS V14.00,2013-03-07 15:44:00,
2013-03-07 09:45:00,52.9,26.7,30.31,SSE,160,5.0,7.0,36,0.00,,---,0.00,VWS V14.00,2013-03-07 15:45:00,
2013-03-07 09:46:00,52.8,26.6,30.31,SE,124,11.0,11.0,36,0.00,,---,0.00,VWS V14.00,2013-03-07 15:46:00,
2013-03-07 09:47:00,52.8,25.9,30.31,ESE,121,9.0,12.0,35,0.00,,---,0.00,VWS V14.00,2013-03-07 15:47:00,
2013-03-07 09:48:00,49.9,27.1,30.32,SE,142,6.0,9.0,41,0.00,,---,0.00,VWS V14.00,2013-03-07 15:48:00,
2013-03-07 09:49:00,52.8,25.9,30.31,SE,125,2.0,6.0,35,0.00,,---,0.00,VWS V14.00,2013-03-07 15:49:00,
2013-03-07 09:50:00,52.9,26.0,30.31,SE,125,3.0,3.0,35,0.00,,---,0.00,VWS V14.00,2013-03-07 15:50:00,
2013-03-07 09:51:00,52.9,26.0,30.30,SE,125,3.0,5.0,35,0.00,,---,0.00,VWS V14.00,2013-03-07 15:51:00,
2013-03-07 09:52:00,53.1,26.2,30.31,SE,125,4.0,4.0,35,0.00,,---,0.00,VWS V14.00,2013-03-07 15:52:00,
2013-03-07 09:53:00,49.6,26.9,30.31,ESE,121,9.0,13.0,41,0.00,,---,0.00,VWS V14.00,2013-03-07 15:53:00,
2013-03-07 09:54:00,53.3,26.4,30.30,SE,127,7.0,12.0,35,0.00,,---,0.00,VWS V14.00,2013-03-07 15:54:00,
2013-03-07 09:55:00,53.3,26.4,30.30,ESE,121,11.0,14.0,35,0.00,,---,0.00,VWS V14.00,2013-03-07 15:55:00,
2013-03-07 09:56:00,53.2,25.6,30.30,ESE,120,11.0,11.0,34,0.00,,---,0.00,VWS V14.00,2013-03-07 15:56:00,
2013-03-07 09:57:00,53.1,26.2,30.30,ESE,121,8.0,11.0,35,0.00,,---,0.00,VWS V14.00,2013-03-07 15:57:00,
2013-03-07 09:58:00,49.8,27.1,30.31,ESE,117,5.0,5.0,41,0.00,,---,0.00,VWS V14.00,2013-03-07 15:58:00,
2013-03-07 09:59:00,52.9,26.0,30.30,ESE,120,6.0,11.0,35,0.00,,---,0.00,VWS V14.00,2013-03-07 15:59:00,
2013-03-07 10:00:00,52.9,25.3,30.30,ESE,119,11.0,13.0,34,0.00,,---,0.00,VWS V14.00,2013-03-07 16:00:00,
2013-03-07 10:01:00,52.9,26.0,30.30,ESE,119,9.0,11.0,35,0.00,,---,0.00,VWS V14.00,2013-03-07 16:01:00,
2013-03-07 10:02:00,52.9,25.3,30.30,ESE,119,9.0,10.0,34,0.00,,---,0.00,VWS V14.00,2013-03-07 16:02:00,
2013-03-07 10:03:00,50.1,27.3,30.32,SE,137,5.0,11.0,41,0.00,,---,0.00,VWS V14.00,2013-03-07 16:03:00,
2013-03-07 10:04:00,53.1,25.5,30.30,ESE,120,9.0,9.0,34,0.00,,---,0.00,VWS V14.00,2013-03-07 16:04:00,
2013-03-07 10:05:00,53.1,26.9,30.30,ESE,121,5.0,9.0,36,0.00,,---,0.00,VWS V14.00,2013-03-07 16:05:00,
2013-03-07 10:06:00,53.2,26.3,30.30,ESE,121,3.0,5.0,35,0.00,,---,0.00,VWS V14.00,2013-03-07 16:06:00,
2013-03-07 10:07:00,53.3,27.0,30.30,SE,127,4.0,10.0,36,0.00,,---,0.00,VWS V14.00,2013-03-07 16:07:00,
2013-03-07 10:08:00,50.5,27.1,30.32,SE,129,10.0,12.0,40,0.00,,---,0.00,VWS V14.00,2013-03-07 16:08:00,
2013-03-07 10:09:00,53.8,30.1,30.30,SE,127,13.0,13.0,40,0.00,,---,0.00,VWS V14.00,2013-03-07 16:09:00,
2013-03-07 10:10:00,53.9,25.5,30.30,SE,130,11.0,14.0,33,0.00,,---,0.00,VWS V14.00,2013-03-07 16:10:00,
2013-03-07 10:11:00,53.9,24.7,30.30,SE,125,6.0,13.0,32,0.00,,---,0.00,VWS V14.00,2013-03-07 16:11:00,
2013-03-07 10:12:00,53.8,24.6,30.30,ESE,123,12.0,12.0,32,0.00,,---,0.00,VWS V14.00,2013-03-07 16:12:00,
2013-03-07 10:13:00,51.0,26.9,30.31,SE,135,6.0,10.0,39,0.00,,---,0.00,VWS V14.00,2013-03-07 16:13:00,
2013-03-07 10:14:00,53.5,25.1,30.30,ESE,117,13.0,13.0,33,0.00,,---,0.00,VWS V14.00,2013-03-07 16:14:00,
2013-03-07 10:15:00,53.3,25.7,30.30,SE,127,13.0,15.0,34,0.00,,---,0.00,VWS V14.00,2013-03-07 16:15:00,
2013-03-07 10:16:00,53.5,24.4,30.30,SE,128,9.0,15.0,32,0.00,,---,0.00,VWS V14.00,2013-03-07 16:16:00,
2013-03-07 10:17:00,53.6,24.5,30.30,ESE,121,11.0,14.0,32,0.00,,---,0.00,VWS V14.00,2013-03-07 16:17:00,
2013-03-07 10:18:00,50.8,26.1,30.31,SE,131,3.0,6.0,38,0.00,,---,0.00,VWS V14.00,2013-03-07 16:18:00,
2013-03-07 10:19:00,53.9,24.7,30.30,ESE,123,12.0,12.0,32,0.00,,---,0.00,VWS V14.00,2013-03-07 16:19:00,
2013-03-07 10:20:00,53.9,24.0,30.30,SE,128,8.0,14.0,31,0.00,,---,0.00,VWS V14.00,2013-03-07 16:20:00,
2013-03-07 10:21:00,54.2,25.0,30.30,SE,126,10.0,12.0,32,0.00,,---,0.00,VWS V14.00,2013-03-07 16:21:00,
2013-03-07 10:22:00,54.5,24.5,30.30,SE,126,8.0,10.0,31,0.00,,---,0.00,VWS V14.00,2013-03-07 16:22:00,
2013-03-07 10:23:00,51.6,26.8,30.31,SE,131,3.0,5.0,38,0.00,,---,0.00,VWS V14.00,2013-03-07 16:23:00,
2013-03-07 10:24:00,54.7,23.9,30.30,SE,126,12.0,12.0,30,0.00,,---,0.00,VWS V14.00,2013-03-07 16:24:00,
2013-03-07 10:25:00,54.7,24.7,30.30,SE,136,10.0,12.0,31,0.00,,---,0.00,VWS V14.00,2013-03-07 16:25:00,
2013-03-07 10:26:00,54.7,23.9,30.30,SE,135,5.0,10.0,30,0.00,,---,0.00,VWS V14.00,2013-03-07 16:26:00,
2013-03-07 10:27:00,54.7,24.7,30.30,SE,135,8.0,11.0,31,0.00,,---,0.00,VWS V14.00,2013-03-07 16:27:00,
2013-03-07 10:28:00,51.3,26.6,30.31,SE,124,6.0,6.0,38,0.00,,---,0.00,VWS V14.00,2013-03-07 16:28:00,
2013-03-07 10:29:00,54.8,24.0,30.30,SE,130,11.0,12.0,30,0.00,,---,0.00,VWS V14.00,2013-03-07 16:29:00,
2013-03-07 10:30:00,54.8,24.0,30.30,SE,127,7.0,13.0,30,0.00,,---,0.00,VWS V14.00,2013-03-07 16:30:00,
2013-03-07 10:31:00,54.7,23.9,30.30,SE,130,9.0,12.0,30,0.00,,---,0.00,VWS V14.00,2013-03-07 16:31:00,
2013-03-07 10:32:00,54.7,24.7,30.30,SE,132,10.0,11.0,31,0.00,,---,0.00,VWS V14.00,2013-03-07 16:32:00,
2013-03-07 10:33:00,52.0,27.2,30.31,ESE,123,8.0,8.0,38,0.00,,---,0.00,VWS V14.00,2013-03-07 16:33:00,
2013-03-07 10:34:00,54.8,24.8,30.30,SE,132,8.0,9.0,31,0.00,,---,0.00,VWS V14.00,2013-03-07 16:34:00,
2013-03-07 10:35:00,55.0,24.9,30.29,SE,132,10.0,10.0,31,0.00,,---,0.00,VWS V14.00,2013-03-07 16:35:00,
2013-03-07 10:36:00,55.1,24.2,30.30,SE,134,6.0,13.0,30,0.00,,---,0.00,VWS V14.00,2013-03-07 16:36:00,
2013-03-07 10:37:00,55.3,24.4,30.30,SE,134,6.0,6.0,30,0.00,,---,0.00,VWS V14.00,2013-03-07 16:37:00,
2013-03-07 10:38:00,52.2,26.1,30.31,ESE,118,3.0,6.0,36,0.00,,---,0.00,VWS V14.00,2013-03-07 16:38:00,
2013-03-07 10:39:00,55.7,24.8,30.29,SE,133,9.0,12.0,30,0.00,,---,0.00,VWS V14.00,2013-03-07 16:39:00,
2013-03-07 10:40:00,55.6,23.0,30.29,SE,132,6.0,13.0,28,0.00,,---,0.00,VWS V14.00,2013-03-07 16:40:00,
2013-03-07 10:41:00,55.6,23.9,30.29,SE,131,5.0,10.0,29,0.00,,---,0.00,VWS V14.00,2013-03-07 16:41:00,
2013-03-07 10:42:00,55.6,24.7,30.29,SE,132,6.0,9.0,30,0.00,,---,0.00,VWS V14.00,2013-03-07 16:42:00,
2013-03-07 10:43:00,52.9,26.0,30.31,SSE,162,4.0,5.0,35,0.00,,---,0.00,VWS V14.00,2013-03-07 16:43:00,
2013-03-07 10:44:00,55.9,24.1,30.29,SSE,151,6.0,12.0,29,0.00,,---,0.00,VWS V14.00,2013-03-07 16:44:00,
2013-03-07 10:45:00,55.9,26.5,30.29,SE,146,11.0,12.0,32,0.00,,---,0.00,VWS V14.00,2013-03-07 16:45:00,
2013-03-07 10:46:00,55.6,23.0,30.29,SE,128,11.0,12.0,28,0.00,,---,0.00,VWS V14.00,2013-03-07 16:46:00,
2013-03-07 10:47:00,55.4,23.7,30.29,SE,124,12.0,14.0,29,0.00,,---,0.00,VWS V14.00,2013-03-07 16:47:00,
2013-03-07 10:48:00,52.6,25.8,30.31,ESE,122,4.0,10.0,35,0.00,,---,0.00,VWS V14.00,2013-03-07 16:48:00,
2013-03-07 10:49:00,55.6,23.9,30.29,SSE,152,6.0,9.0,29,0.00,,---,0.00,VWS V14.00,2013-03-07 16:49:00,
2013-03-07 10:50:00,55.7,24.0,30.29,SE,146,9.0,10.0,29,0.00,,---,0.00,VWS V14.00,2013-03-07 16:50:00,
2013-03-07 10:51:00,55.7,24.0,30.29,SE,144,5.0,10.0,29,0.00,,---,0.00,VWS V14.00,2013-03-07 16:51:00,
2013-03-07 10:52:00,55.9,24.9,30.29,SE,140,6.0,10.0,30,0.00,,---,0.00,VWS V14.00,2013-03-07 16:52:00,
2013-03-07 10:53:00,53.2,26.3,30.30,SE,126,7.0,13.0,35,0.00,,---,0.00,VWS V14.00,2013-03-07 16:53:00,
2013-03-07 10:54:00,55.9,23.3,30.29,SE,126,10.0,11.0,28,0.00,,---,0.00,VWS V14.00,2013-03-07 16:54:00,
2013-03-07 10:55:00,55.7,23.1,30.29,ESE,119,9.0,10.0,28,0.00,,---,0.00,VWS V14.00,2013-03-07 16:55:00,
2013-03-07 10:56:00,55.6,23.9,30.29,ESE,123,12.0,14.0,29,0.00,,---,0.00,VWS V14.00,2013-03-07 16:56:00,
2013-03-07 10:57:00,55.6,23.0,30.29,SE,130,9.0,12.0,28,0.00,,---,0.00,VWS V14.00,2013-03-07 16:57:00,
2013-03-07 10:58:00,53.1,25.5,30.30,ESE,121,7.0,9.0,34,0.00,,---,0.00,VWS V14.00,2013-03-07 16:58:00,
2013-03-07 10:59:00,55.9,24.1,30.29,SE,131,2.0,6.0,29,0.00,,---,0.00,VWS V14.00,2013-03-07 16:59:00,
2013-03-07 11:00:00,56.0,24.2,30.29,SE,131,2.0,4.0,29,0.00,,---,0.00,VWS V14.00,2013-03-07 17:00:00,
2013-03-07 11:01:00,56.0,24.2,30.29,SE,131,3.0,4.0,29,0.00,,---,0.00,VWS V14.00,2013-03-07 17:01:00,
2013-03-07 11:02:00,56.0,23.4,30.29,SE,131,2.0,5.0,28,0.00,,---,0.00,VWS V14.00,2013-03-07 17:02:00,
2013-03-07 11:03:00,52.9,25.3,30.30,ESE,120,9.0,9.0,34,0.00,,---,0.00,VWS V14.00,2013-03-07 17:03:00,
2013-03-07 11:04:00,56.2,23.5,30.29,SE,134,5.0,12.0,28,0.00,,---,0.00,VWS V14.00,2013-03-07 17:04:00,
2013-03-07 11:05:00,56.5,23.8,30.29,SE,132,10.0,11.0,28,0.00,,---,0.00,VWS V14.00,2013-03-07 17:05:00,
2013-03-07 11:06:00,56.5,23.8,30.29,ESE,121,12.0,13.0,28,0.00,,---,0.00,VWS V14.00,2013-03-07 17:06:00,
2013-03-07 11:07:00,56.5,23.8,30.29,ESE,119,5.0,13.0,28,0.00,,---,0.00,VWS V14.00,2013-03-07 17:07:00,
2013-03-07 11:08:00,53.6,29.9,30.30,SE,127,9.0,9.0,40,0.00,,---,0.00,VWS V14.00,2013-03-07 17:08:00,
2013-03-07 11:09:00,56.3,23.6,30.29,ESE,122,5.0,9.0,28,0.00,,---,0.00,VWS V14.00,2013-03-07 17:09:00,
2013-03-07 11:10:00,56.2,24.4,30.29,ESE,120,9.0,10.0,29,0.00,,---,0.00,VWS V14.00,2013-03-07 17:10:00,
2013-03-07 11:11:00,55.9,23.3,30.29,ESE,117,9.0,11.0,28,0.00,,---,0.00,VWS V14.00,2013-03-07 17:11:00,
2013-03-07 11:12:00,55.7,24.0,30.29,ESE,115,9.0,10.0,29,0.00,,---,0.00,VWS V14.00,2013-03-07 17:12:00,
2013-03-07 11:13:00,53.6,24.5,30.30,ESE,123,8.0,12.0,32,0.00,,---,0.00,VWS V14.00,2013-03-07 17:13:00,
2013-03-07 11:14:00,55.6,23.9,30.28,ESE,114,3.0,7.0,29,0.00,,---,0.00,VWS V14.00,2013-03-07 17:14:00,
2013-03-07 11:15:00,55.6,23.9,30.28,ESE,114,3.0,3.0,29,0.00,,---,0.00,VWS V14.00,2013-03-07 17:15:00,
2013-03-07 11:16:00,55.7,24.8,30.28,ESE,114,2.0,4.0,30,0.00,,---,0.00,VWS V14.00,2013-03-07 17:16:00,
2013-03-07 11:17:00,55.7,24.8,30.28,ESE,116,6.0,6.0,30,0.00,,---,0.00,VWS V14.00,2013-03-07 17:17:00,
2013-03-07 11:18:00,53.8,25.4,30.30,SE,125,11.0,12.0,33,0.00,,---,0.00,VWS V14.00,2013-03-07 17:18:00,
2013-03-07 11:19:00,56.3,22.8,30.28,SE,131,5.0,8.0,27,0.00,,---,0.00,VWS V14.00,2013-03-07 17:19:00,
2013-03-07 11:20:00,56.6,23.9,30.28,SE,131,0.0,7.0,28,0.00,,---,0.00,VWS V14.00,2013-03-07 17:20:00,
2013-03-07 11:21:00,56.7,24.0,30.27,SE,131,4.0,5.0,28,0.00,,---,0.00,VWS V14.00,2013-03-07 17:21:00,
2013-03-07 11:22:00,56.9,23.3,30.27,SE,130,6.0,7.0,27,0.00,,---,0.00,VWS V14.00,2013-03-07 17:22:00,
2013-03-07 11:23:00,54.5,24.5,30.30,SE,130,11.0,13.0,31,0.00,,---,0.00,VWS V14.00,2013-03-07 17:23:00,
2013-03-07 11:24:00,56.6,23.0,30.27,SE,130,5.0,7.0,27,0.00,,---,0.00,VWS V14.00,2013-03-07 17:24:00,
2013-03-07 11:25:00,56.6,23.0,30.27,SE,130,0.0,5.0,27,0.00,,---,0.00,VWS V14.00,2013-03-07 17:25:00,
2013-03-07 11:26:00,56.6,23.9,30.27,SE,126,6.0,6.0,28,0.00,,---,0.00,VWS V14.00,2013-03-07 17:26:00,
2013-03-07 11:27:00,56.7,24.8,30.27,SSE,147,11.0,13.0,29,0.00,,---,0.00,VWS V14.00,2013-03-07 17:27:00,
2013-03-07 11:28:00,54.8,24.8,30.30,SE,135,7.0,7.0,31,0.00,,---,0.00,VWS V14.00,2013-03-07 17:28:00,
2013-03-07 11:29:00,57.0,24.2,30.27,South,173,5.0,7.0,28,0.00,,---,0.00,VWS V14.00,2013-03-07 17:29:00,
2013-03-07 11:30:00,57.2,23.5,30.27,South,174,7.0,7.0,27,0.00,,---,0.00,VWS V14.00,2013-03-07 17:30:00,
2013-03-07 11:31:00,57.5,24.7,30.27,ESE,122,7.0,11.0,28,0.00,,---,0.00,VWS V14.00,2013-03-07 17:31:00,
2013-03-07 11:32:00,57.5,23.8,30.27,ESE,122,1.0,18.0,27,0.00,,---,0.00,VWS V14.00,2013-03-07 17:32:00,
2013-03-07 11:33:00,54.7,24.7,30.30,SE,132,7.0,10.0,31,0.00,,---,0.00,VWS V14.00,2013-03-07 17:33:00,
2013-03-07 11:34:00,57.6,24.8,30.27,South,173,2.0,18.0,28,0.00,,---,0.00,VWS V14.00,2013-03-07 17:34:00,
2013-03-07 11:35:00,58.3,25.4,30.27,SSE,165,11.0,11.0,28,0.00,,---,0.00,VWS V14.00,2013-03-07 17:35:00,
2013-03-07 11:36:00,58.6,25.6,30.27,ESE,117,9.0,11.0,28,0.00,,---,0.00,VWS V14.00,2013-03-07 17:36:00,
2013-03-07 11:37:00,58.3,24.5,30.27,SE,136,15.0,17.0,27,0.00,,---,0.00,VWS V14.00,2013-03-07 17:37:00,
2013-03-07 11:38:00,55.4,24.5,30.30,SE,136,8.0,10.0,30,0.00,,---,0.00,VWS V14.00,2013-03-07 17:38:00,
2013-03-07 11:39:00,57.8,24.9,30.27,SE,133,3.0,11.0,28,0.00,,---,0.00,VWS V14.00,2013-03-07 17:39:00,
2013-03-07 11:40:00,57.8,24.1,30.27,SE,133,2.0,5.0,27,0.00,,---,0.00,VWS V14.00,2013-03-07 17:40:00,
2013-03-07 11:41:00,57.8,24.1,30.27,ESE,119,11.0,15.0,27,0.00,,---,0.00,VWS V14.00,2013-03-07 17:41:00,
2013-03-07 11:42:00,57.8,24.1,30.27,SE,139,5.0,12.0,27,0.00,,---,0.00,VWS V14.00,2013-03-07 17:42:00,
2013-03-07 11:43:00,55.9,24.9,30.29,SSE,159,7.0,11.0,30,0.00,,---,0.00,VWS V14.00,2013-03-07 17:43:00,
2013-03-07 11:44:00,57.6,23.9,30.27,SE,124,6.0,10.0,27,0.00,,---,0.00,VWS V14.00,2013-03-07 17:44:00,
2013-03-07 11:45:00,57.5,23.8,30.27,ESE,123,5.0,7.0,27,0.00,,---,0.00,VWS V14.00,2013-03-07 17:45:00,
2013-03-07 11:46:00,57.5,23.8,30.27,SE,128,7.0,9.0,27,0.00,,---,0.00,VWS V14.00,2013-03-07 17:46:00,
2013-03-07 11:47:00,57.5,23.8,30.27,ESE,123,11.0,11.0,27,0.00,,---,0.00,VWS V14.00,2013-03-07 17:47:00,
2013-03-07 11:48:00,55.4,23.7,30.29,SSE,157,4.0,12.0,29,0.00,,---,0.00,VWS V14.00,2013-03-07 17:48:00,
2013-03-07 11:49:00,57.3,23.6,30.27,ESE,119,0.0,8.0,27,0.00,,---,0.00,VWS V14.00,2013-03-07 17:49:00,
2013-03-07 11:50:00,57.3,23.6,30.27,ESE,119,2.0,2.0,27,0.00,,---,0.00,VWS V14.00,2013-03-07 17:50:00,
2013-03-07 11:51:00,57.5,23.8,30.27,ESE,121,3.0,9.0,27,0.00,,---,0.00,VWS V14.00,2013-03-07 17:51:00,
2013-03-07 11:52:00,57.8,24.1,30.26,ESE,121,0.0,3.0,27,0.00,,---,0.00,VWS V14.00,2013-03-07 17:52:00,
2013-03-07 11:53:00,55.9,23.3,30.29,SSE,148,5.0,10.0,28,0.00,,---,0.00,VWS V14.00,2013-03-07 17:53:00,
2013-03-07 11:54:00,58.1,23.4,30.26,SE,130,7.0,11.0,26,0.00,,---,0.00,VWS V14.00,2013-03-07 17:54:00,
2013-03-07 11:55:00,58.3,24.5,30.26,SE,131,9.0,11.0,27,0.00,,---,0.00,VWS V14.00,2013-03-07 17:55:00,
2013-03-07 11:56:00,58.0,25.1,30.26,ESE,121,5.0,12.0,28,0.00,,---,0.00,VWS V14.00,2013-03-07 17:56:00,
2013-03-07 11:57:00,58.0,25.1,30.25,ESE,121,2.0,5.0,28,0.00,,---,0.00,VWS V14.00,2013-03-07 17:57:00,
2013-03-07 11:58:00,55.9,24.9,30.29,SE,131,5.0,9.0,30,0.00,,---,0.00,VWS V14.00,2013-03-07 17:58:00,
2013-03-07 11:59:00,58.0,24.2,30.25,ESE,121,0.0,1.0,27,0.00,,---,0.00,VWS V14.00,2013-03-07 17:59:00,
2013-03-07 12:00:00,58.1,24.3,30.25,ESE,121,0.0,3.0,27,0.00,,---,0.00,VWS V14.00,2013-03-07 18:00:00,
2013-03-07 12:01:00,58.3,24.5,30.25,ESE,121,7.0,9.0,27,0.00,,---,0.00,VWS V14.00,2013-03-07 18:01:00,
2013-03-07 12:02:00,58.7,23.9,30.25,SE,136,9.0,12.0,26,0.00,,---,0.00,VWS V14.00,2013-03-07 18:02:00,
2013-03-07 12:03:00,56.0,23.4,30.29,SE,134,12.0,12.0,28,0.00,,---,0.00,VWS V14.00,2013-03-07 18:03:00,
2013-03-07 12:04:00,58.7,23.9,30.25,ESE,119,11.0,11.0,26,0.00,,---,0.00,VWS V14.00,2013-03-07 18:04:00,
2013-03-07 12:05:00,58.4,22.7,30.25,SE,128,9.0,13.0,25,0.00,,---,0.00,VWS V14.00,2013-03-07 18:05:00,
2013-03-07 12:06:00,58.3,22.6,30.25,SE,127,5.0,10.0,25,0.00,,---,0.00,VWS V14.00,2013-03-07 18:06:00,
2013-03-07 12:07:00,58.3,22.6,30.25,SE,127,2.0,6.0,25,0.00,,---,0.00,VWS V14.00,2013-03-07 18:07:00,
2013-03-07 12:08:00,56.3,23.6,30.29,ESE,122,6.0,10.0,28,0.00,,---,0.00,VWS V14.00,2013-03-07 18:08:00,
2013-03-07 12:09:00,58.4,23.7,30.25,SE,126,8.0,10.0,26,0.00,,---,0.00,VWS V14.00,2013-03-07 18:09:00,
2013-03-07 12:10:00,58.4,22.7,30.25,SSE,157,7.0,8.0,25,0.00,,---,0.00,VWS V14.00,2013-03-07 18:10:00,
2013-03-07 12:11:00,58.6,23.8,30.25,SSE,155,4.0,10.0,26,0.00,,---,0.00,VWS V14.00,2013-03-07 18:11:00,
2013-03-07 12:12:00,58.7,23.9,30.25,SSE,157,6.0,7.0,26,0.00,,---,0.00,VWS V14.00,2013-03-07 18:12:00,
2013-03-07 12:13:00,55.6,23.0,30.28,ESE,114,7.0,10.0,28,0.00,,---,0.00,VWS V14.00,2013-03-07 18:13:00,
2013-03-07 12:14:00,58.9,23.2,30.24,SSE,157,4.0,4.0,25,0.00,,---,0.00,VWS V14.00,2013-03-07 18:14:00,
2013-03-07 12:15:00,58.9,23.2,30.24,SSE,157,6.0,6.0,25,0.00,,---,0.00,VWS V14.00,2013-03-07 18:15:00,
2013-03-07 12:16:00,59.0,23.2,30.24,SSE,157,6.0,6.0,25,0.00,,---,0.00,VWS V14.00,2013-03-07 18:16:00,
2013-03-07 12:17:00,59.3,24.4,30.24,SSE,155,6.0,10.0,26,0.00,,---,0.00,VWS V14.00,2013-03-07 18:17:00,
2013-03-07 12:18:00,56.0,23.4,30.28,ESE,122,3.0,6.0,28,0.00,,---,0.00,VWS V14.00,2013-03-07 18:18:00,
2013-03-07 12:19:00,59.5,23.7,30.24,ESE,116,14.0,15.0,25,0.00,,---,0.00,VWS V14.00,2013-03-07 18:19:00,
2013-03-07 12:20:00,59.3,23.5,30.24,SE,138,6.0,14.0,25,0.00,,---,0.00,VWS V14.00,2013-03-07 18:20:00,
2013-03-07 12:21:00,59.3,22.5,30.24,SSE,151,5.0,12.0,24,0.00,,---,0.00,VWS V14.00,2013-03-07 18:21:00,
2013-03-07 12:22:00,59.5,23.7,30.24,SSE,148,5.0,12.0,25,0.00,,---,0.00,VWS V14.00,2013-03-07 18:22:00,
2013-03-07 12:23:00,56.7,23.1,30.27,SE,130,6.0,7.0,27,0.00,,---,0.00,VWS V14.00,2013-03-07 18:23:00,
2013-03-07 12:24:00,59.3,23.5,30.24,SE,138,8.0,11.0,25,0.00,,---,0.00,VWS V14.00,2013-03-07 18:24:00,
2013-03-07 12:25:00,59.2,22.5,30.24,SE,132,10.0,10.0,24,0.00,,---,0.00,VWS V14.00,2013-03-07 18:25:00,
2013-03-07 12:26:00,59.0,22.3,30.24,ESE,118,13.0,13.0,24,0.00,,---,0.00,VWS V14.00,2013-03-07 18:26:00,
2013-03-07 12:27:00,59.0,22.3,30.24,ESE,118,11.0,13.0,24,0.00,,---,0.00,VWS V14.00,2013-03-07 18:27:00,
2013-03-07 12:28:00,56.9,24.1,30.27,South,173,6.0,13.0,28,0.00,,---,0.00,VWS V14.00,2013-03-07 18:28:00,
2013-03-07 12:29:00,58.9,22.2,30.24,ESE,121,8.0,12.0,24,0.00,,---,0.00,VWS V14.00,2013-03-07 18:29:00,
2013-03-07 12:30:00,58.9,22.2,30.24,ESE,121,11.0,11.0,24,0.00,,---,0.00,VWS V14.00,2013-03-07 18:30:00,
2013-03-07 12:31:00,58.7,22.0,30.24,ESE,110,6.0,13.0,24,0.00,,---,0.00,VWS V14.00,2013-03-07 18:31:00,
2013-03-07 12:32:00,58.7,21.0,30.23,ESE,109,6.0,10.0,23,0.00,,---,0.00,VWS V14.00,2013-03-07 18:32:00,
2013-03-07 12:33:00,57.5,24.7,30.27,East,90,18.0,18.0,28,0.00,,---,0.00,VWS V14.00,2013-03-07 18:33:00,
2013-03-07 12:34:00,58.7,22.0,30.23,ESE,111,5.0,6.0,24,0.00,,---,0.00,VWS V14.00,2013-03-07 18:34:00,
2013-03-07 12:35:00,58.9,22.2,30.23,SSE,155,3.0,10.0,24,0.00,,---,0.00,VWS V14.00,2013-03-07 18:35:00,
2013-03-07 12:36:00,59.2,22.5,30.23,SSE,155,10.0,10.0,24,0.00,,---,0.00,VWS V14.00,2013-03-07 18:36:00,
2013-03-07 12:37:00,59.3,22.5,30.23,SSE,157,4.0,10.0,24,0.00,,---,0.00,VWS V14.00,2013-03-07 18:37:00,
2013-03-07 12:38:00,58.1,25.2,30.27,SE,124,11.0,15.0,28,0.00,,---,0.00,VWS V14.00,2013-03-07 18:38:00,
2013-03-07 12:39:00,59.6,21.8,30.23,SE,128,11.0,12.0,23,0.00,,---,0.00,VWS V14.00,2013-03-07 18:39:00,
2013-03-07 12:40:00,59.5,22.7,30.23,SE,125,12.0,12.0,24,0.00,,---,0.00,VWS V14.00,2013-03-07 18:40:00,
2013-03-07 12:41:00,59.3,22.5,30.23,SE,125,9.0,12.0,24,0.00,,---,0.00,VWS V14.00,2013-03-07 18:41:00,
2013-03-07 12:42:00,59.3,22.5,30.23,SSE,155,9.0,14.0,24,0.00,,---,0.00,VWS V14.00,2013-03-07 18:42:00,
2013-03-07 12:43:00,57.8,24.9,30.27,SE,127,9.0,11.0,28,0.00,,---,0.00,VWS V14.00,2013-03-07 18:43:00,
2013-03-07 12:44:00,59.8,22.0,30.23,SSE,151,10.0,13.0,23,0.00,,---,0.00,VWS V14.00,2013-03-07 18:44:00,
2013-03-07 12:45:00,59.8,20.9,30.23,SE,146,9.0,11.0,22,0.00,,---,0.00,VWS V14.00,2013-03-07 18:45:00,
2013-03-07 12:46:00,59.8,22.0,30.23,SE,146,4.0,11.0,23,0.00,,---,0.00,VWS V14.00,2013-03-07 18:46:00,
2013-03-07 12:47:00,59.9,22.0,30.22,SE,146,10.0,13.0,23,0.00,,---,0.00,VWS V14.00,2013-03-07 18:47:00,
2013-03-07 12:48:00,57.5,23.8,30.27,ESE,119,6.0,6.0,27,0.00,,---,0.00,VWS V14.00,2013-03-07 18:48:00,
2013-03-07 12:49:00,60.1,22.2,30.22,SE,136,8.0,16.0,23,0.00,,---,0.00,VWS V14.00,2013-03-07 18:49:00,
2013-03-07 12:50:00,60.2,22.3,30.23,South,180,10.0,10.0,23,0.00,,---,0.00,VWS V14.00,2013-03-07 18:50:00,
2013-03-07 12:51:00,60.4,21.4,30.22,SE,145,6.0,12.0,22,0.00,,---,0.00,VWS V14.00,2013-03-07 18:51:00,
2013-03-07 12:52:00,60.5,21.5,30.22,SE,145,0.0,6.0,22,0.00,,---,0.00,VWS V14.00,2013-03-07 18:52:00,
2013-03-07 12:53:00,58.0,23.3,30.26,SE,127,4.0,5.0,26,0.00,,---,0.00,VWS V14.00,2013-03-07 18:53:00,
2013-03-07 12:54:00,60.2,21.2,30.22,ESE,117,10.0,21.0,22,0.00,,---,0.00,VWS V14.00,2013-03-07 18:54:00,
2013-03-07 12:55:00,60.1,22.2,30.22,SSE,154,12.0,21.0,23,0.00,,---,0.00,VWS V14.00,2013-03-07 18:55:00,
2013-03-07 12:56:00,60.1,21.1,30.22,SSE,147,4.0,12.0,22,0.00,,---,0.00,VWS V14.00,2013-03-07 18:56:00,
2013-03-07 12:57:00,60.2,22.3,30.22,SE,136,12.0,13.0,23,0.00,,---,0.00,VWS V14.00,2013-03-07 18:57:00,
2013-03-07 12:58:00,58.0,26.0,30.25,ESE,121,0.0,0.0,29,0.00,,---,0.00,VWS V14.00,2013-03-07 18:58:00,
2013-03-07 12:59:00,60.1,21.1,30.22,SSE,148,14.0,16.0,22,0.00,,---,0.00,VWS V14.00,2013-03-07 18:59:00,
2013-03-07 13:00:00,60.2,21.2,30.22,SSE,155,6.0,11.0,22,0.00,,---,0.00,VWS V14.00,2013-03-07 19:00:00,
2013-03-07 13:01:00,60.4,21.4,30.22,SSE,157,0.0,6.0,22,0.00,,---,0.00,VWS V14.00,2013-03-07 19:01:00,
2013-03-07 13:02:00,60.4,20.3,30.22,SSE,158,2.0,5.0,21,0.00,,---,0.00,VWS V14.00,2013-03-07 19:02:00,
2013-03-07 13:03:00,58.7,23.9,30.25,SE,124,6.0,15.0,26,0.00,,---,0.00,VWS V14.00,2013-03-07 19:03:00,
2013-03-07 13:04:00,60.5,21.5,30.22,SSE,156,4.0,10.0,22,0.00,,---,0.00,VWS V14.00,2013-03-07 19:04:00,
2013-03-07 13:05:00,60.5,21.5,30.22,SSE,156,4.0,6.0,22,0.00,,---,0.00,VWS V14.00,2013-03-07 19:05:00,
2013-03-07 13:06:00,60.7,21.7,30.22,SSE,156,5.0,9.0,22,0.00,,---,0.00,VWS V14.00,2013-03-07 19:06:00,
2013-03-07 13:07:00,60.7,21.7,30.22,SE,142,6.0,12.0,22,0.00,,---,0.00,VWS V14.00,2013-03-07 19:07:00,
2013-03-07 13:08:00,58.4,22.7,30.25,SE,127,2.0,2.0,25,0.00,,---,0.00,VWS V14.00,2013-03-07 19:08:00,
2013-03-07 13:09:00,60.5,21.5,30.21,SE,140,9.0,12.0,22,0.00,,---,0.00,VWS V14.00,2013-03-07 19:09:00,
2013-03-07 13:10:00,60.5,21.5,30.21,SE,140,1.0,9.0,22,0.00,,---,0.00,VWS V14.00,2013-03-07 19:10:00,
2013-03-07 13:11:00,60.7,22.7,30.21,South,184,1.0,11.0,23,0.00,,---,0.00,VWS V14.00,2013-03-07 19:11:00,
2013-03-07 13:12:00,60.9,22.9,30.21,South,184,3.0,7.0,23,0.00,,---,0.00,VWS V14.00,2013-03-07 19:12:00,
2013-03-07 13:13:00,58.9,23.2,30.24,SSE,157,0.0,0.0,25,0.00,,---,0.00,VWS V14.00,2013-03-07 19:13:00,
2013-03-07 13:14:00,61.2,22.1,30.21,South,190,4.0,10.0,22,0.00,,---,0.00,VWS V14.00,2013-03-07 19:14:00,
2013-03-07 13:15:00,61.3,22.2,30.21,SSW,200,4.0,7.0,22,0.00,,---,0.00,VWS V14.00,2013-03-07 19:15:00,
2013-03-07 13:16:00,61.3,22.2,30.21,SSW,200,2.0,8.0,22,0.00,,---,0.00,VWS V14.00,2013-03-07 19:16:00,
2013-03-07 13:17:00,61.3,22.2,30.21,SSW,200,3.0,6.0,22,0.00,,---,0.00,VWS V14.00,2013-03-07 19:17:00,
2013-03-07 13:18:00,59.5,23.7,30.24,SE,124,10.0,13.0,25,0.00,,---,0.00,VWS V14.00,2013-03-07 19:18:00,
2013-03-07 13:19:00,60.7,21.7,30.21,ESE,112,9.0,12.0,22,0.00,,---,0.00,VWS V14.00,2013-03-07 19:19:00,
2013-03-07 13:20:00,60.4,21.4,30.21,SE,124,13.0,14.0,22,0.00,,---,0.00,VWS V14.00,2013-03-07 19:20:00,
2013-03-07 13:21:00,60.1,21.1,30.21,ESE,121,9.0,13.0,22,0.00,,---,0.00,VWS V14.00,2013-03-07 19:21:00,
2013-03-07 13:22:00,59.9,19.9,30.21,ESE,119,5.0,10.0,21,0.00,,---,0.00,VWS V14.00,2013-03-07 19:22:00,
2013-03-07 13:23:00,59.8,22.0,30.21,ESE,119,7.0,10.0,23,0.00,,---,0.00,VWS V14.00,2013-03-07 19:23:00,
2013-03-07 13:24:00,59.5,22.7,30.24,SSE,148,4.0,6.0,24,0.00,,---,0.00,VWS V14.00,2013-03-07 19:24:00,
2013-03-07 13:25:00,59.9,21.0,30.20,SE,125,11.0,11.0,22,0.00,,---,0.00,VWS V14.00,2013-03-07 19:25:00,
2013-03-07 13:26:00,60.1,22.2,30.21,SE,137,5.0,11.0,23,0.00,,---,0.00,VWS V14.00,2013-03-07 19:26:00,
2013-03-07 13:27:00,60.4,21.4,30.20,SE,137,4.0,9.0,22,0.00,,---,0.00,VWS V14.00,2013-03-07 19:27:00,
2013-03-07 13:28:00,60.7,22.7,30.21,SE,136,9.0,12.0,23,0.00,,---,0.00,VWS V14.00,2013-03-07 19:28:00,
2013-03-07 13:29:00,59.0,22.3,30.24,ESE,122,10.0,12.0,24,0.00,,---,0.00,VWS V14.00,2013-03-07 19:29:00,
2013-03-07 13:30:00,60.9,20.7,30.20,SSE,163,9.0,12.0,21,0.00,,---,0.00,VWS V14.00,2013-03-07 19:30:00,
2013-03-07 13:31:00,61.0,20.8,30.20,SSE,163,10.0,10.0,21,0.00,,---,0.00,VWS V14.00,2013-03-07 19:31:00,
2013-03-07 13:32:00,61.2,21.0,30.20,South,178,6.0,12.0,21,0.00,,---,0.00,VWS V14.00,2013-03-07 19:32:00,
2013-03-07 13:33:00,61.2,21.0,30.20,SSE,163,8.0,10.0,21,0.00,,---,0.00,VWS V14.00,2013-03-07 19:33:00,
2013-03-07 13:34:00,58.7,22.0,30.23,ESE,110,3.0,6.0,24,0.00,,---,0.00,VWS V14.00,2013-03-07 19:34:00,
2013-03-07 13:35:00,61.2,21.0,30.20,SE,143,7.0,11.0,21,0.00,,---,0.00,VWS V14.00,2013-03-07 19:35:00,
2013-03-07 13:36:00,61.2,21.0,30.20,SE,145,7.0,8.0,21,0.00,,---,0.00,VWS V14.00,2013-03-07 19:36:00,
2013-03-07 13:37:00,61.3,21.1,30.20,SE,144,4.0,7.0,21,0.00,,---,0.00,VWS V14.00,2013-03-07 19:37:00,
2013-03-07 13:38:00,61.3,21.1,30.20,SSE,147,3.0,5.0,21,0.00,,---,0.00,VWS V14.00,2013-03-07 19:38:00,
2013-03-07 13:39:00,59.6,22.8,30.23,SE,138,9.0,9.0,24,0.00,,---,0.00,VWS V14.00,2013-03-07 19:39:00,
2013-03-07 13:40:00,61.3,21.1,30.20,SSE,153,4.0,4.0,21,0.00,,---,0.00,VWS V14.00,2013-03-07 19:40:00,
2013-03-07 13:41:00,61.6,21.3,30.20,SSE,153,2.0,4.0,21,0.00,,---,0.00,VWS V14.00,2013-03-07 19:41:00,
2013-03-07 13:42:00,61.8,21.5,30.20,SSE,159,7.0,7.0,21,0.00,,---,0.00,VWS V14.00,2013-03-07 19:42:00,
2013-03-07 13:43:00,62.0,21.6,30.20,SSE,159,0.0,7.0,21,0.00,,---,0.00,VWS V14.00,2013-03-07 19:43:00,
2013-03-07 13:44:00,59.6,21.8,30.23,SSE,159,12.0,12.0,23,0.00,,---,0.00,VWS V14.00,2013-03-07 19:44:00,
2013-03-07 13:45:00,62.0,21.6,30.20,SSE,161,2.0,5.0,21,0.00,,---,0.00,VWS V14.00,2013-03-07 19:45:00,
2013-03-07 13:46:00,62.1,22.8,30.20,SSE,159,3.0,7.0,22,0.00,,---,0.00,VWS V14.00,2013-03-07 19:46:00,
2013-03-07 13:47:00,62.3,23.0,30.20,SSE,157,10.0,10.0,22,0.00,,---,0.00,VWS V14.00,2013-03-07 19:47:00,
2013-03-07 13:48:00,62.3,21.9,30.20,SE,146,11.0,12.0,21,0.00,,---,0.00,VWS V14.00,2013-03-07 19:48:00,
2013-03-07 13:49:00,60.1,22.2,30.22,SE,136,9.0,16.0,23,0.00,,---,0.00,VWS V14.00,2013-03-07 19:49:00,
2013-03-07 13:50:00,62.1,21.7,30.20,SE,136,9.0,11.0,21,0.00,,---,0.00,VWS V14.00,2013-03-07 19:50:00,
2013-03-07 13:51:00,62.0,21.6,30.20,SE,128,11.0,11.0,21,0.00,,---,0.00,VWS V14.00,2013-03-07 19:51:00,
2013-03-07 13:52:00,61.6,21.3,30.20,SE,125,11.0,12.0,21,0.00,,---,0.00,VWS V14.00,2013-03-07 19:52:00,
2013-03-07 13:53:00,61.3,22.2,30.20,ESE,119,9.0,12.0,22,0.00,,---,0.00,VWS V14.00,2013-03-07 19:53:00,
2013-03-07 13:54:00,60.4,21.4,30.22,ESE,117,9.0,9.0,22,0.00,,---,0.00,VWS V14.00,2013-03-07 19:54:00,
2013-03-07 13:55:00,60.7,22.7,30.20,ESE,115,6.0,9.0,23,0.00,,---,0.00,VWS V14.00,2013-03-07 19:55:00,
2013-03-07 13:56:00,60.5,23.5,30.20,ESE,115,7.0,7.0,24,0.00,,---,0.00,VWS V14.00,2013-03-07 19:56:00,
2013-03-07 13:57:00,60.4,25.4,30.20,ESE,115,4.0,9.0,26,0.00,,---,0.00,VWS V14.00,2013-03-07 19:57:00,
2013-03-07 13:58:00,60.4,21.4,30.20,ESE,116,9.0,9.0,22,0.00,,---,0.00,VWS V14.00,2013-03-07 19:58:00,
2013-03-07 13:59:00,60.2,21.2,30.22,SE,126,9.0,16.0,22,0.00,,---,0.00,VWS V14.00,2013-03-07 19:59:00,
2013-03-07 14:00:00,60.7,22.7,30.20,South,180,8.0,12.0,23,0.00,,---,0.00,VWS V14.00,2013-03-07 20:00:00,
2013-03-07 14:01:00,61.0,21.9,30.20,South,174,6.0,10.0,22,0.00,,---,0.00,VWS V14.00,2013-03-07 20:01:00,
2013-03-07 14:02:00,61.2,22.1,30.20,South,181,3.0,8.0,22,0.00,,---,0.00,VWS V14.00,2013-03-07 20:02:00,
2013-03-07 14:03:00,61.5,22.3,30.20,South,181,7.0,7.0,22,0.00,,---,0.00,VWS V14.00,2013-03-07 20:03:00,
2013-03-07 14:04:00,60.5,21.5,30.22,SSE,156,6.0,10.0,22,0.00,,---,0.00,VWS V14.00,2013-03-07 20:04:00,
2013-03-07 14:05:00,61.6,21.3,30.20,South,181,2.0,6.0,21,0.00,,---,0.00,VWS V14.00,2013-03-07 20:05:00,
2013-03-07 14:06:00,61.8,21.5,30.20,ESE,122,3.0,9.0,21,0.00,,---,0.00,VWS V14.00,2013-03-07 20:06:00,
2013-03-07 14:07:00,62.0,21.6,30.20,SE,133,9.0,9.0,21,0.00,,---,0.00,VWS V14.00,2013-03-07 20:07:00,
2013-03-07 14:08:00,62.0,21.6,30.20,SSE,153,9.0,12.0,21,0.00,,---,0.00,VWS V14.00,2013-03-07 20:08:00,
2013-03-07 14:09:00,60.5,21.5,30.21,SE,140,10.0,10.0,22,0.00,,---,0.00,VWS V14.00,2013-03-07 20:09:00,
2013-03-07 14:10:00,61.8,20.3,30.20,SSE,153,6.0,12.0,20,0.00,,---,0.00,VWS V14.00,2013-03-07 20:10:00,
2013-03-07 14:11:00,61.8,20.3,30.20,SSE,155,5.0,7.0,20,0.00,,---,0.00,VWS V14.00,2013-03-07 20:11:00,
2013-03-07 14:12:00,61.8,20.3,30.20,SSE,155,5.0,7.0,20,0.00,,---,0.00,VWS V14.00,2013-03-07 20:12:00,
2013-03-07 14:13:00,62.0,20.5,30.20,SSE,155,3.0,6.0,20,0.00,,---,0.00,VWS V14.00,2013-03-07 20:13:00,
2013-03-07 14:14:00,61.2,22.1,30.21,South,190,3.0,10.0,22,0.00,,---,0.00,VWS V14.00,2013-03-07 20:14:00,
2013-03-07 14:15:00,61.8,20.3,30.20,SSE,155,6.0,9.0,20,0.00,,---,0.00,VWS V14.00,2013-03-07 20:15:00,
2013-03-07 14:16:00,61.8,20.3,30.20,SSE,155,7.0,7.0,20,0.00,,---,0.00,VWS V14.00,2013-03-07 20:16:00,
2013-03-07 14:17:00,61.8,20.3,30.19,SSE,155,6.0,7.0,20,0.00,,---,0.00,VWS V14.00,2013-03-07 20:17:00,
2013-03-07 14:18:00,61.6,20.2,30.19,SSE,155,2.0,6.0,20,0.00,,---,0.00,VWS V14.00,2013-03-07 20:18:00,
2013-03-07 14:19:00,60.9,21.8,30.21,ESE,117,8.0,10.0,22,0.00,,---,0.00,VWS V14.00,2013-03-07 20:19:00,
2013-03-07 14:20:00,61.5,21.2,30.19,SSE,152,9.0,9.0,21,0.00,,---,0.00,VWS V14.00,2013-03-07 20:20:00,
2013-03-07 14:21:00,61.3,21.1,30.19,SE,143,6.0,10.0,21,0.00,,---,0.00,VWS V14.00,2013-03-07 20:21:00,
2013-03-07 14:22:00,61.3,21.1,30.20,ESE,118,10.0,10.0,21,0.00,,---,0.00,VWS V14.00,2013-03-07 20:22:00,
2013-03-07 14:23:00,61.3,21.1,30.20,SE,127,8.0,13.0,21,0.00,,---,0.00,VWS V14.00,2013-03-07 20:23:00,
2013-03-07 14:24:00,59.8,22.0,30.21,ESE,121,5.0,10.0,23,0.00,,---,0.00,VWS V14.00,2013-03-07 20:24:00,
2013-03-07 14:25:00,61.5,21.2,30.20,SSE,165,2.0,8.0,21,0.00,,---,0.00,VWS V14.00,2013-03-07 20:25:00,
2013-03-07 14:26:00,61.6,21.3,30.20,SSE,165,1.0,2.0,21,0.00,,---,0.00,VWS V14.00,2013-03-07 20:26:00,
2013-03-07 14:27:00,61.8,21.5,30.19,SSE,164,6.0,7.0,21,0.00,,---,0.00,VWS V14.00,2013-03-07 20:27:00,
2013-03-07 14:28:00,61.8,21.5,30.19,SSE,163,8.0,8.0,21,0.00,,---,0.00,VWS V14.00,2013-03-07 20:28:00,
2013-03-07 14:29:00,60.9,21.8,30.20,SSE,148,11.0,13.0,22,0.00,,---,0.00,VWS V14.00,2013-03-07 20:29:00,
2013-03-07 14:30:00,62.0,20.5,30.19,SSE,153,7.0,11.0,20,0.00,,---,0.00,VWS V14.00,2013-03-07 20:30:00,
2013-03-07 14:31:00,62.0,20.5,30.19,SE,139,7.0,8.0,20,0.00,,---,0.00,VWS V14.00,2013-03-07 20:31:00,
2013-03-07 14:32:00,62.0,20.5,30.19,SSE,161,9.0,12.0,20,0.00,,---,0.00,VWS V14.00,2013-03-07 20:32:00,
2013-03-07 14:33:00,62.0,20.5,30.19,SSE,161,5.0,9.0,20,0.00,,---,0.00,VWS V14.00,2013-03-07 20:33:00,
2013-03-07 14:34:00,61.2,21.0,30.20,SSE,166,6.0,10.0,21,0.00,,---,0.00,VWS V14.00,2013-03-07 20:34:00,
2013-03-07 14:35:00,62.0,20.5,30.19,SSE,161,6.0,6.0,20,0.00,,---,0.00,VWS V14.00,2013-03-07 20:35:00,
2013-03-07 14:36:00,62.0,21.6,30.19,SSE,161,1.0,6.0,21,0.00,,---,0.00,VWS V14.00,2013-03-07 20:36:00,
2013-03-07 14:37:00,62.0,22.8,30.19,SSE,160,6.0,7.0,22,0.00,,---,0.00,VWS V14.00,2013-03-07 20:37:00,
2013-03-07 14:38:00,62.0,21.6,30.19,SSE,159,4.0,8.0,21,0.00,,---,0.00,VWS V14.00,2013-03-07 20:38:00,
2013-03-07 14:39:00,61.3,21.1,30.20,SSE,153,0.0,6.0,21,0.00,,---,0.00,VWS V14.00,2013-03-07 20:39:00,
2013-03-07 14:40:00,62.0,21.6,30.19,SSE,161,1.0,4.0,21,0.00,,---,0.00,VWS V14.00,2013-03-07 20:40:00,
2013-03-07 14:41:00,62.0,21.6,30.19,SSE,161,5.0,7.0,21,0.00,,---,0.00,VWS V14.00,2013-03-07 20:41:00,
2013-03-07 14:42:00,62.0,21.6,30.19,SE,142,11.0,13.0,21,0.00,,---,0.00,VWS V14.00,2013-03-07 20:42:00,
2013-03-07 14:43:00,62.0,20.5,30.19,SSE,158,0.0,13.0,20,0.00,,---,0.00,VWS V14.00,2013-03-07 20:43:00,
2013-03-07 14:44:00,62.0,21.6,30.20,SSE,159,4.0,4.0,21,0.00,,---,0.00,VWS V14.00,2013-03-07 20:44:00,
2013-03-07 14:45:00,62.0,21.6,30.19,SSE,159,2.0,5.0,21,0.00,,---,0.00,VWS V14.00,2013-03-07 20:45:00,
2013-03-07 14:46:00,62.1,20.6,30.19,SSE,159,3.0,4.0,20,0.00,,---,0.00,VWS V14.00,2013-03-07 20:46:00,
2013-03-07 14:47:00,62.1,21.7,30.18,SSE,158,5.0,5.0,21,0.00,,---,0.00,VWS V14.00,2013-03-07 20:47:00,
2013-03-07 14:48:00,62.1,21.7,30.18,SSE,155,6.0,9.0,21,0.00,,---,0.00,VWS V14.00,2013-03-07 20:48:00,
2013-03-07 14:49:00,62.1,21.7,30.20,SE,145,11.0,11.0,21,0.00,,---,0.00,VWS V14.00,2013-03-07 20:49:00,
2013-03-07 14:50:00,62.1,21.7,30.18,SE,141,9.0,10.0,21,0.00,,---,0.00,VWS V14.00,2013-03-07 20:50:00,
2013-03-07 14:51:00,62.1,21.7,30.18,SE,141,3.0,9.0,21,0.00,,---,0.00,VWS V14.00,2013-03-07 20:51:00,
2013-03-07 14:52:00,62.0,21.6,30.18,SE,140,3.0,6.0,21,0.00,,---,0.00,VWS V14.00,2013-03-07 20:52:00,
2013-03-07 14:53:00,62.0,22.8,30.18,SE,140,5.0,6.0,22,0.00,,---,0.00,VWS V14.00,2013-03-07 20:53:00,
2013-03-07 14:54:00,61.0,20.8,30.20,ESE,116,9.0,10.0,21,0.00,,---,0.00,VWS V14.00,2013-03-07 20:54:00,
2013-03-07 14:55:00,62.0,21.6,30.18,SE,140,0.0,5.0,21,0.00,,---,0.00,VWS V14.00,2013-03-07 20:55:00,
2013-03-07 14:56:00,62.1,21.7,30.18,SSE,155,6.0,10.0,21,0.00,,---,0.00,VWS V14.00,2013-03-07 20:56:00,
2013-03-07 14:57:00,62.1,20.6,30.18,SSE,155,4.0,7.0,20,0.00,,---,0.00,VWS V14.00,2013-03-07 20:57:00,
2013-03-07 14:58:00,62.1,20.6,30.18,SSE,155,5.0,6.0,20,0.00,,---,0.00,VWS V14.00,2013-03-07 20:58:00,
2013-03-07 14:59:00,60.4,22.5,30.20,SSE,153,3.0,10.0,23,0.00,,---,0.00,VWS V14.00,2013-03-07 20:59:00,
2013-03-07 15:00:00,62.1,21.7,30.18,SSE,155,5.0,7.0,21,0.00,,---,0.00,VWS V14.00,2013-03-07 21:00:00,
2013-03-07 15:01:00,62.1,21.7,30.18,SSE,155,4.0,9.0,21,0.00,,---,0.00,VWS V14.00,2013-03-07 21:01:00,
2013-03-07 15:02:00,62.3,21.9,30.19,SSE,162,4.0,9.0,21,0.00,,---,0.00,VWS V14.00,2013-03-07 21:02:00,
2013-03-07 15:03:00,62.3,21.9,30.18,SSE,161,5.0,6.0,21,0.00,,---,0.00,VWS V14.00,2013-03-07 21:03:00,
2013-03-07 15:04:00,61.5,21.2,30.20,South,181,3.0,7.0,21,0.00,,---,0.00,VWS V14.00,2013-03-07 21:04:00,
2013-03-07 15:05:00,62.3,21.9,30.18,SSE,157,3.0,6.0,21,0.00,,---,0.00,VWS V14.00,2013-03-07 21:05:00,
2013-03-07 15:06:00,62.1,20.6,30.18,SSE,157,5.0,7.0,20,0.00,,---,0.00,VWS V14.00,2013-03-07 21:06:00,
2013-03-07 15:07:00,62.1,20.6,30.18,SSE,157,1.0,6.0,20,0.00,,---,0.00,VWS V14.00,2013-03-07 21:07:00,
2013-03-07 15:08:00,62.1,20.6,30.18,SSE,157,2.0,7.0,20,0.00,,---,0.00,VWS V14.00,2013-03-07 21:08:00,
2013-03-07 15:09:00,62.3,21.9,30.18,SSE,157,4.0,4.0,21,0.00,,---,0.00,VWS V14.00,2013-03-07 21:09:00,
2013-03-07 15:10:00,61.8,20.3,30.20,SSE,153,7.0,12.0,20,0.00,,---,0.00,VWS V14.00,2013-03-07 21:10:00,
2013-03-07 15:11:00,62.3,20.8,30.18,SSE,158,6.0,6.0,20,0.00,,---,0.00,VWS V14.00,2013-03-07 21:11:00,
2013-03-07 15:12:00,62.3,20.8,30.18,SSE,158,3.0,6.0,20,0.00,,---,0.00,VWS V14.00,2013-03-07 21:12:00,
2013-03-07 15:13:00,62.4,22.0,30.18,SSE,158,6.0,6.0,21,0.00,,---,0.00,VWS V14.00,2013-03-07 21:13:00,
2013-03-07 15:14:00,62.4,20.8,30.18,SSE,150,10.0,12.0,20,0.00,,---,0.00,VWS V14.00,2013-03-07 21:14:00,
2013-03-07 15:15:00,62.0,20.5,30.20,SSE,155,6.0,9.0,20,0.00,,---,0.00,VWS V14.00,2013-03-07 21:15:00,
2013-03-07 15:16:00,62.4,22.0,30.18,SSE,155,8.0,12.0,21,0.00,,---,0.00,VWS V14.00,2013-03-07 21:16:00,
2013-03-07 15:17:00,62.4,22.0,30.18,SSE,155,6.0,9.0,21,0.00,,---,0.00,VWS V14.00,2013-03-07 21:17:00,
2013-03-07 15:18:00,62.4,20.8,30.18,SSE,155,7.0,12.0,20,0.00,,---,0.00,VWS V14.00,2013-03-07 21:18:00,
2013-03-07 15:19:00,62.3,20.8,30.18,SSE,154,6.0,11.0,20,0.00,,---,0.00,VWS V14.00,2013-03-07 21:19:00,
2013-03-07 15:20:00,61.5,21.2,30.19,SSE,155,4.0,7.0,21,0.00,,---,0.00,VWS V14.00,2013-03-07 21:20:00,
2013-03-07 15:21:00,62.1,21.7,30.18,SSE,153,2.0,7.0,21,0.00,,---,0.00,VWS V14.00,2013-03-07 21:21:00,
2013-03-07 15:22:00,62.1,20.6,30.18,SSE,153,9.0,12.0,20,0.00,,---,0.00,VWS V14.00,2013-03-07 21:22:00,
2013-03-07 15:23:00,62.1,20.6,30.18,SSE,158,0.0,9.0,20,0.00,,---,0.00,VWS V14.00,2013-03-07 21:23:00,
2013-03-07 15:24:00,62.1,21.7,30.18,SSE,157,1.0,10.0,21,0.00,,---,0.00,VWS V14.00,2013-03-07 21:24:00,
2013-03-07 15:25:00,61.5,21.2,30.20,SSE,165,2.0,8.0,21,0.00,,---,0.00,VWS V14.00,2013-03-07 21:25:00,
2013-03-07 15:26:00,62.3,21.9,30.18,SSE,167,1.0,10.0,21,0.00,,---,0.00,VWS V14.00,2013-03-07 21:26:00,
2013-03-07 15:27:00,62.3,23.0,30.18,SSE,157,9.0,10.0,22,0.00,,---,0.00,VWS V14.00,2013-03-07 21:27:00,
2013-03-07 15:28:00,62.1,22.8,30.18,SE,136,6.0,11.0,22,0.00,,---,0.00,VWS V14.00,2013-03-07 21:28:00,
2013-03-07 15:29:00,62.1,22.8,30.18,SSE,155,6.0,10.0,22,0.00,,---,0.00,VWS V14.00,2013-03-07 21:29:00,
2013-03-07 15:30:00,62.0,21.6,30.19,SSE,154,10.0,11.0,21,0.00,,---,0.00,VWS V14.00,2013-03-07 21:30:00,
2013-03-07 15:31:00,62.1,21.7,30.18,SSE,153,1.0,11.0,21,0.00,,---,0.00,VWS V14.00,2013-03-07 21:31:00,
2013-03-07 15:32:00,62.1,21.7,30.18,SSE,152,6.0,9.0,21,0.00,,---,0.00,VWS V14.00,2013-03-07 21:32:00,
2013-03-07 15:33:00,62.1,20.6,30.18,SSE,152,10.0,10.0,20,0.00,,---,0.00,VWS V14.00,2013-03-07 21:33:00,
2013-03-07 15:34:00,62.1,20.6,30.18,SSE,152,0.0,10.0,20,0.00,,---,0.00,VWS V14.00,2013-03-07 21:34:00,
2013-03-07 15:35:00,62.0,20.5,30.19,SSE,161,1.0,3.0,20,0.00,,---,0.00,VWS V14.00,2013-03-07 21:35:00,
2013-03-07 15:36:00,62.0,22.8,30.18,SE,129,11.0,11.0,22,0.00,,---,0.00,VWS V14.00,2013-03-07 21:36:00,
2013-03-07 15:37:00,61.6,22.4,30.18,SE,130,10.0,11.0,22,0.00,,---,0.00,VWS V14.00,2013-03-07 21:37:00,
2013-03-07 15:38:00,61.6,22.4,30.18,SE,139,6.0,10.0,22,0.00,,---,0.00,VWS V14.00,2013-03-07 21:38:00,
2013-03-07 15:39:00,61.6,22.4,30.18,SE,136,6.0,13.0,22,0.00,,---,0.00,VWS V14.00,2013-03-07 21:39:00,
2013-03-07 15:40:00,62.0,21.6,30.19,SSE,161,3.0,4.0,21,0.00,,---,0.00,VWS V14.00,2013-03-07 21:40:00,
2013-03-07 15:41:00,61.6,22.4,30.18,SE,144,4.0,7.0,22,0.00,,---,0.00,VWS V14.00,2013-03-07 21:41:00,
2013-03-07 15:42:00,61.6,22.4,30.18,SE,138,8.0,11.0,22,0.00,,---,0.00,VWS V14.00,2013-03-07 21:42:00,
2013-03-07 15:43:00,61.6,22.4,30.18,SE,138,7.0,11.0,22,0.00,,---,0.00,VWS V14.00,2013-03-07 21:43:00,
2013-03-07 15:44:00,61.6,22.4,30.18,SE,128,12.0,13.0,22,0.00,,---,0.00,VWS V14.00,2013-03-07 21:44:00,
2013-03-07 15:45:00,62.0,20.5,30.19,SSE,159,1.0,5.0,20,0.00,,---,0.00,VWS V14.00,2013-03-07 21:45:00,
2013-03-07 15:46:00,61.5,22.3,30.18,SE,136,4.0,12.0,22,0.00,,---,0.00,VWS V14.00,2013-03-07 21:46:00,
2013-03-07 15:47:00,61.5,22.3,30.18,SE,142,9.0,10.0,22,0.00,,---,0.00,VWS V14.00,2013-03-07 21:47:00,
2013-03-07 15:48:00,61.5,22.3,30.18,SE,142,6.0,9.0,22,0.00,,---,0.00,VWS V14.00,2013-03-07 21:48:00,
2013-03-07 15:49:00,61.3,22.2,30.18,SSE,157,7.0,10.0,22,0.00,,---,0.00,VWS V14.00,2013-03-07 21:49:00,
2013-03-07 15:50:00,62.1,21.7,30.18,SE,140,5.0,10.0,21,0.00,,---,0.00,VWS V14.00,2013-03-07 21:50:00,
2013-03-07 15:51:00,61.3,22.2,30.18,SSE,155,6.0,11.0,22,0.00,,---,0.00,VWS V14.00,2013-03-07 21:51:00,
2013-03-07 15:52:00,61.3,22.2,30.18,SSE,162,1.0,6.0,22,0.00,,---,0.00,VWS V14.00,2013-03-07 21:52:00,
2013-03-07 15:53:00,61.3,22.2,30.18,SSE,162,0.0,3.0,22,0.00,,---,0.00,VWS V14.00,2013-03-07 21:53:00,
2013-03-07 15:54:00,61.3,23.2,30.18,SSE,160,4.0,9.0,23,0.00,,---,0.00,VWS V14.00,2013-03-07 21:54:00,
2013-03-07 15:55:00,62.0,21.6,30.18,SE,140,2.0,5.0,21,0.00,,---,0.00,VWS V14.00,2013-03-07 21:55:00,
2013-03-07 15:56:00,61.3,22.2,30.18,SSE,167,4.0,9.0,22,0.00,,---,0.00,VWS V14.00,2013-03-07 21:56:00,
2013-03-07 15:57:00,61.3,22.2,30.18,SSE,166,6.0,9.0,22,0.00,,---,0.00,VWS V14.00,2013-03-07 21:57:00,
2013-03-07 15:58:00,61.2,22.1,30.18,SSE,166,3.0,6.0,22,0.00,,---,0.00,VWS V14.00,2013-03-07 21:58:00,
2013-03-07 15:59:00,61.2,22.1,30.18,SSE,163,6.0,10.0,22,0.00,,---,0.00,VWS V14.00,2013-03-07 21:59:00,
2013-03-07 16:00:00,62.1,21.7,30.18,SSE,156,3.0,4.0,21,0.00,,---,0.00,VWS V14.00,2013-03-07 22:00:00,
2013-03-07 16:01:00,61.0,25.9,30.18,SSE,157,5.0,10.0,26,0.00,,---,0.00,VWS V14.00,2013-03-07 22:01:00,
2013-03-07 16:02:00,61.0,25.9,30.19,SSE,153,6.0,11.0,26,0.00,,---,0.00,VWS V14.00,2013-03-07 22:02:00,
2013-03-07 16:03:00,61.0,23.0,30.19,SSE,153,4.0,9.0,23,0.00,,---,0.00,VWS V14.00,2013-03-07 22:03:00,
2013-03-07 16:04:00,60.9,22.9,30.19,SSE,153,5.0,6.0,23,0.00,,---,0.00,VWS V14.00,2013-03-07 22:04:00,
2013-03-07 16:05:00,62.3,20.8,30.18,SSE,157,5.0,6.0,20,0.00,,---,0.00,VWS V14.00,2013-03-07 22:05:00,
2013-03-07 16:06:00,60.9,22.9,30.19,SSE,152,9.0,9.0,23,0.00,,---,0.00,VWS V14.00,2013-03-07 22:06:00,
2013-03-07 16:07:00,60.7,22.7,30.19,SSE,152,4.0,10.0,23,0.00,,---,0.00,VWS V14.00,2013-03-07 22:07:00,
2013-03-07 16:08:00,60.7,22.7,30.18,SSE,153,5.0,6.0,23,0.00,,---,0.00,VWS V14.00,2013-03-07 22:08:00,
2013-03-07 16:09:00,60.7,22.7,30.18,SSE,151,8.0,9.0,23,0.00,,---,0.00,VWS V14.00,2013-03-07 22:09:00,
2013-03-07 16:10:00,62.3,20.8,30.18,SSE,157,5.0,6.0,20,0.00,,---,0.00,VWS V14.00,2013-03-07 22:10:00,
2013-03-07 16:11:00,60.5,22.5,30.18,SSE,151,3.0,7.0,23,0.00,,---,0.00,VWS V14.00,2013-03-07 22:11:00,
2013-03-07 16:12:00,60.5,23.5,30.18,SSE,151,4.0,11.0,24,0.00,,---,0.00,VWS V14.00,2013-03-07 22:12:00,
2013-03-07 16:13:00,60.5,22.5,30.19,SSE,151,10.0,10.0,23,0.00,,---,0.00,VWS V14.00,2013-03-07 22:13:00,
2013-03-07 16:14:00,60.4,22.5,30.18,SSE,151,5.0,10.0,23,0.00,,---,0.00,VWS V14.00,2013-03-07 22:14:00,
2013-03-07 16:15:00,62.4,22.0,30.18,SSE,150,11.0,11.0,21,0.00,,---,0.00,VWS V14.00,2013-03-07 22:15:00,
2013-03-07 16:17:00,60.2,23.3,30.18,SSE,151,6.0,8.0,24,0.00,,---,0.00,VWS V14.00,2013-03-07 22:17:00,
2013-03-07 16:18:00,60.2,23.3,30.19,SSE,151,2.0,6.0,24,0.00,,---,0.00,VWS V14.00,2013-03-07 22:18:00,
2013-03-07 16:19:00,60.2,23.3,30.18,SSE,151,3.0,7.0,24,0.00,,---,0.00,VWS V14.00,2013-03-07 22:19:00,
2013-03-07 16:20:00,62.3,20.8,30.18,SSE,153,7.0,7.0,20,0.00,,---,0.00,VWS V14.00,2013-03-07 22:20:00,
2013-03-07 16:21:00,60.1,23.2,30.19,SSE,151,5.0,6.0,24,0.00,,---,0.00,VWS V14.00,2013-03-07 22:21:00,
2013-03-07 16:22:00,60.1,23.2,30.19,SE,145,3.0,10.0,24,0.00,,---,0.00,VWS V14.00,2013-03-07 22:22:00,
2013-03-07 16:23:00,59.9,23.0,30.19,SE,146,3.0,5.0,24,0.00,,---,0.00,VWS V14.00,2013-03-07 22:23:00,
2013-03-07 16:24:00,59.9,23.0,30.19,SSE,153,4.0,11.0,24,0.00,,---,0.00,VWS V14.00,2013-03-07 22:24:00,
2013-03-07 16:25:00,62.1,21.7,30.18,SSE,157,4.0,4.0,21,0.00,,---,0.00,VWS V14.00,2013-03-07 22:25:00,
2013-03-07 16:26:00,59.8,23.9,30.19,SSE,153,5.0,7.0,25,0.00,,---,0.00,VWS V14.00,2013-03-07 22:26:00,
2013-03-07 16:27:00,59.8,23.0,30.19,SSE,153,0.0,5.0,24,0.00,,---,0.00,VWS V14.00,2013-03-07 22:27:00,
2013-03-07 16:28:00,59.6,23.8,30.19,SSE,152,5.0,7.0,25,0.00,,---,0.00,VWS V14.00,2013-03-07 22:28:00,
2013-03-07 16:29:00,59.6,22.8,30.19,SSE,152,6.0,8.0,24,0.00,,---,0.00,VWS V14.00,2013-03-07 22:29:00,
2013-03-07 16:30:00,62.1,22.8,30.18,SSE,155,3.0,6.0,22,0.00,,---,0.00,VWS V14.00,2013-03-07 22:30:00,
2013-03-07 16:31:00,59.5,22.7,30.19,SSE,151,7.0,7.0,24,0.00,,---,0.00,VWS V14.00,2013-03-07 22:31:00,
2013-03-07 16:32:00,59.5,22.7,30.19,SSE,150,5.0,11.0,24,0.00,,---,0.00,VWS V14.00,2013-03-07 22:32:00,
2013-03-07 16:33:00,59.3,22.5,30.19,SSE,150,1.0,7.0,24,0.00,,---,0.00,VWS V14.00,2013-03-07 22:33:00,
2013-03-07 16:34:00,59.3,23.5,30.19,SSE,150,4.0,4.0,25,0.00,,---,0.00,VWS V14.00,2013-03-07 22:34:00,
2013-03-07 16:35:00,62.1,21.7,30.18,SSE,152,2.0,2.0,21,0.00,,---,0.00,VWS V14.00,2013-03-07 22:35:00,
2013-03-07 16:36:00,59.2,23.4,30.19,SSE,150,3.0,5.0,25,0.00,,---,0.00,VWS V14.00,2013-03-07 22:36:00,
2013-03-07 16:37:00,59.2,23.4,30.19,SSE,150,3.0,5.0,25,0.00,,---,0.00,VWS V14.00,2013-03-07 22:37:00,
2013-03-07 16:38:00,59.0,23.2,30.19,SSE,150,2.0,6.0,25,0.00,,---,0.00,VWS V14.00,2013-03-07 22:38:00,
2013-03-07 16:40:00,61.6,21.3,30.18,SE,138,7.0,10.0,21,0.00,,---,0.00,VWS V14.00,2013-03-07 22:40:00,
2013-03-07 16:41:00,58.9,23.2,30.19,SSE,150,4.0,6.0,25,0.00,,---,0.00,VWS V14.00,2013-03-07 22:41:00,
2013-03-07 16:42:00,58.9,24.1,30.19,SSE,150,3.0,5.0,26,0.00,,---,0.00,VWS V14.00,2013-03-07 22:42:00,
2013-03-07 16:43:00,58.7,23.9,30.19,SSE,149,9.0,9.0,26,0.00,,---,0.00,VWS V14.00,2013-03-07 22:43:00,
2013-03-07 16:44:00,58.7,23.0,30.19,SSE,149,2.0,9.0,25,0.00,,---,0.00,VWS V14.00,2013-03-07 22:44:00,
2013-03-07 16:45:00,61.5,22.3,30.18,SE,140,8.0,13.0,22,0.00,,---,0.00,VWS V14.00,2013-03-07 22:45:00,
2013-03-07 16:46:00,58.6,23.8,30.19,SSE,149,8.0,10.0,26,0.00,,---,0.00,VWS V14.00,2013-03-07 22:46:00,
2013-03-07 16:47:00,58.4,22.7,30.19,SSE,148,7.0,10.0,25,0.00,,---,0.00,VWS V14.00,2013-03-07 22:47:00,
2013-03-07 16:48:00,58.4,22.7,30.19,SSE,148,3.0,9.0,25,0.00,,---,0.00,VWS V14.00,2013-03-07 22:48:00,
2013-03-07 16:49:00,58.3,22.6,30.19,SSE,148,4.0,7.0,25,0.00,,---,0.00,VWS V14.00,2013-03-07 22:49:00,
2013-03-07 16:50:00,61.3,22.2,30.18,SSE,162,9.0,12.0,22,0.00,,---,0.00,VWS V14.00,2013-03-07 22:50:00,
2013-03-07 16:51:00,58.3,23.6,30.19,SSE,148,4.0,6.0,26,0.00,,---,0.00,VWS V14.00,2013-03-07 22:51:00,
2013-03-07 16:52:00,58.1,23.4,30.19,SSE,148,6.0,7.0,26,0.00,,---,0.00,VWS V14.00,2013-03-07 22:52:00,
2013-03-07 16:53:00,58.1,23.4,30.19,SSE,148,4.0,6.0,26,0.00,,---,0.00,VWS V14.00,2013-03-07 22:53:00,
2013-03-07 16:54:00,58.0,23.3,30.19,SSE,148,6.0,6.0,26,0.00,,---,0.00,VWS V14.00,2013-03-07 22:54:00,
2013-03-07 16:55:00,61.3,22.2,30.18,SSE,160,0.0,4.0,22,0.00,,---,0.00,VWS V14.00,2013-03-07 22:55:00,
2013-03-07 16:56:00,57.8,23.2,30.19,SSE,148,5.0,6.0,26,0.00,,---,0.00,VWS V14.00,2013-03-07 22:56:00,
2013-03-07 16:57:00,57.8,23.2,30.19,SSE,148,4.0,10.0,26,0.00,,---,0.00,VWS V14.00,2013-03-07 22:57:00,
2013-03-07 16:58:00,57.6,23.0,30.19,SSE,148,3.0,4.0,26,0.00,,---,0.00,VWS V14.00,2013-03-07 22:58:00,
2013-03-07 16:59:00,57.5,22.9,30.19,SSE,148,4.0,5.0,26,0.00,,---,0.00,VWS V14.00,2013-03-07 22:59:00,
2013-03-07 17:00:00,61.2,22.1,30.18,SSE,162,5.0,7.0,22,0.00,,---,0.00,VWS V14.00,2013-03-07 23:00:00,
2013-03-07 17:01:00,57.3,22.7,30.19,SSE,148,4.0,5.0,26,0.00,,---,0.00,VWS V14.00,2013-03-07 23:01:00,
2013-03-07 17:02:00,57.2,23.5,30.20,SE,146,9.0,9.0,27,0.00,,---,0.00,VWS V14.00,2013-03-07 23:02:00,
2013-03-07 17:03:00,57.2,23.5,30.20,SSE,147,9.0,9.0,27,0.00,,---,0.00,VWS V14.00,2013-03-07 23:03:00,
2013-03-07 17:04:00,57.2,22.6,30.20,SE,144,10.0,12.0,26,0.00,,---,0.00,VWS V14.00,2013-03-07 23:04:00,
2013-03-07 17:05:00,60.9,22.9,30.19,SSE,153,1.0,5.0,23,0.00,,---,0.00,VWS V14.00,2013-03-07 23:05:00,
2013-03-07 17:06:00,57.2,23.5,30.20,SE,144,4.0,6.0,27,0.00,,---,0.00,VWS V14.00,2013-03-07 23:06:00,
2013-03-07 17:07:00,57.0,23.4,30.20,SE,144,3.0,5.0,27,0.00,,---,0.00,VWS V14.00,2013-03-07 23:07:00,
2013-03-07 17:08:00,57.0,23.4,30.20,SE,144,4.0,4.0,27,0.00,,---,0.00,VWS V14.00,2013-03-07 23:08:00,
2013-03-07 17:09:00,56.9,23.3,30.20,SE,144,5.0,6.0,27,0.00,,---,0.00,VWS V14.00,2013-03-07 23:09:00,
2013-03-07 17:10:00,60.7,22.7,30.18,SSE,152,5.0,8.0,23,0.00,,---,0.00,VWS V14.00,2013-03-07 23:10:00,
2013-03-07 17:11:00,56.7,23.1,30.20,SE,144,2.0,5.0,27,0.00,,---,0.00,VWS V14.00,2013-03-07 23:11:00,
2013-03-07 17:12:00,56.6,23.0,30.20,SE,144,5.0,7.0,27,0.00,,---,0.00,VWS V14.00,2013-03-07 23:12:00,
2013-03-07 17:13:00,56.6,23.0,30.20,SE,144,4.0,5.0,27,0.00,,---,0.00,VWS V14.00,2013-03-07 23:13:00,
2013-03-07 17:15:00,60.4,23.5,30.18,SSE,151,4.0,5.0,24,0.00,,---,0.00,VWS V14.00,2013-03-07 23:15:00,
2013-03-07 17:16:00,56.5,23.8,30.20,SE,144,3.0,4.0,28,0.00,,---,0.00,VWS V14.00,2013-03-07 23:16:00,
2013-03-07 17:17:00,56.3,23.6,30.20,SE,144,3.0,4.0,28,0.00,,---,0.00,VWS V14.00,2013-03-07 23:17:00,
2013-03-07 17:18:00,56.3,23.6,30.20,SE,144,3.0,4.0,28,0.00,,---,0.00,VWS V14.00,2013-03-07 23:18:00,
2013-03-07 17:19:00,56.2,23.5,30.20,SE,144,1.0,3.0,28,0.00,,---,0.00,VWS V14.00,2013-03-07 23:19:00,
2013-03-07 17:20:00,60.1,23.2,30.18,SSE,151,6.0,6.0,24,0.00,,---,0.00,VWS V14.00,2013-03-07 23:20:00,
2013-03-07 17:21:00,56.0,22.5,30.20,SE,144,5.0,5.0,27,0.00,,---,0.00,VWS V14.00,2013-03-07 23:21:00,
2013-03-07 17:22:00,56.0,23.4,30.20,SE,144,1.0,6.0,28,0.00,,---,0.00,VWS V14.00,2013-03-07 23:22:00,
2013-03-07 17:23:00,55.9,23.3,30.20,SE,144,4.0,5.0,28,0.00,,---,0.00,VWS V14.00,2013-03-07 23:23:00,
2013-03-07 17:24:00,55.9,23.3,30.20,SE,144,6.0,6.0,28,0.00,,---,0.00,VWS V14.00,2013-03-07 23:24:00,
2013-03-07 17:25:00,59.8,23.0,30.19,SSE,153,4.0,7.0,24,0.00,,---,0.00,VWS V14.00,2013-03-07 23:25:00,
2013-03-07 17:26:00,55.7,23.1,30.20,SE,144,2.0,4.0,28,0.00,,---,0.00,VWS V14.00,2013-03-07 23:26:00,
2013-03-07 17:28:00,55.4,22.9,30.20,SE,144,2.0,3.0,28,0.00,,---,0.00,VWS V14.00,2013-03-07 23:28:00,
2013-03-07 17:29:00,55.4,22.9,30.20,SE,144,3.0,5.0,28,0.00,,---,0.00,VWS V14.00,2013-03-07 23:29:00,
2013-03-07 17:30:00,59.6,22.8,30.19,SSE,151,5.0,6.0,24,0.00,,---,0.00,VWS V14.00,2013-03-07 23:30:00,
2013-03-07 17:31:00,55.3,23.6,30.20,SE,144,1.0,3.0,29,0.00,,---,0.00,VWS V14.00,2013-03-07 23:31:00,
2013-03-07 17:32:00,55.1,23.4,30.20,SE,144,5.0,7.0,29,0.00,,---,0.00,VWS V14.00,2013-03-07 23:32:00,
2013-03-07 17:33:00,55.1,23.4,30.20,SE,144,4.0,5.0,29,0.00,,---,0.00,VWS V14.00,2013-03-07 23:33:00,
2013-03-07 17:34:00,55.1,23.4,30.20,SE,144,3.0,4.0,29,0.00,,---,0.00,VWS V14.00,2013-03-07 23:34:00,
2013-03-07 17:35:00,59.3,23.5,30.19,SSE,150,5.0,6.0,25,0.00,,---,0.00,VWS V14.00,2013-03-07 23:35:00,
2013-03-07 17:36:00,55.0,24.2,30.20,SE,144,3.0,5.0,30,0.00,,---,0.00,VWS V14.00,2013-03-07 23:36:00,
2013-03-07 17:37:00,55.0,24.2,30.20,SE,144,2.0,5.0,30,0.00,,---,0.00,VWS V14.00,2013-03-07 23:37:00,
2013-03-07 17:38:00,55.0,24.2,30.20,SE,144,3.0,4.0,30,0.00,,---,0.00,VWS V14.00,2013-03-07 23:38:00,
2013-03-07 17:39:00,54.8,24.8,30.20,SE,144,3.0,4.0,31,0.00,,---,0.00,VWS V14.00,2013-03-07 23:39:00,
2013-03-07 17:40:00,58.9,23.2,30.19,SSE,150,5.0,7.0,25,0.00,,---,0.00,VWS V14.00,2013-03-07 23:40:00,
2013-03-07 17:41:00,54.7,24.7,30.20,SE,144,1.0,3.0,31,0.00,,---,0.00,VWS V14.00,2013-03-07 23:41:00,
2013-03-07 17:42:00,54.7,24.7,30.20,SE,144,3.0,3.0,31,0.00,,---,0.00,VWS V14.00,2013-03-07 23:42:00,
2013-03-07 17:43:00,54.5,24.5,30.20,SE,144,3.0,4.0,31,0.00,,---,0.00,VWS V14.00,2013-03-07 23:43:00,
2013-03-07 17:44:00,54.5,24.5,30.20,SE,144,2.0,3.0,31,0.00,,---,0.00,VWS V14.00,2013-03-07 23:44:00,
2013-03-07 17:45:00,58.6,23.8,30.19,SSE,149,1.0,4.0,26,0.00,,---,0.00,VWS V14.00,2013-03-07 23:45:00,
2013-03-07 17:46:00,54.4,24.4,30.20,SE,144,0.0,5.0,31,0.00,,---,0.00,VWS V14.00,2013-03-07 23:46:00,
2013-03-07 17:47:00,54.4,24.4,30.20,SE,144,0.0,0.0,31,0.00,,---,0.00,VWS V14.00,2013-03-07 23:47:00,
2013-03-07 17:48:00,54.4,24.4,30.20,SE,144,3.0,3.0,31,0.00,,---,0.00,VWS V14.00,2013-03-07 23:48:00,
2013-03-07 17:49:00,54.2,25.0,30.20,SE,144,0.0,4.0,32,0.00,,---,0.00,VWS V14.00,2013-03-07 23:49:00,
2013-03-07 17:50:00,58.3,22.6,30.19,SSE,148,5.0,9.0,25,0.00,,---,0.00,VWS V14.00,2013-03-07 23:50:00,
2013-03-07 17:51:00,54.2,25.0,30.20,SE,144,0.0,3.0,32,0.00,,---,0.00,VWS V14.00,2013-03-07 23:51:00,
2013-03-07 17:52:00,54.1,24.9,30.20,SE,144,0.0,4.0,32,0.00,,---,0.00,VWS V14.00,2013-03-07 23:52:00,
2013-03-07 17:53:00,54.1,24.9,30.20,SE,144,1.0,2.0,32,0.00,,---,0.00,VWS V14.00,2013-03-07 23:53:00,
2013-03-07 17:54:00,53.9,24.7,30.20,SE,144,2.0,2.0,32,0.00,,---,0.00,VWS V14.00,2013-03-07 23:54:00,
2013-03-07 17:55:00,58.0,23.3,30.19,SSE,148,4.0,7.0,26,0.00,,---,0.00,VWS V14.00,2013-03-07 23:55:00,
2013-03-07 17:56:00,53.8,25.4,30.20,SE,144,2.0,3.0,33,0.00,,---,0.00,VWS V14.00,2013-03-07 23:56:00,
2013-03-07 17:57:00,53.8,25.4,30.20,SE,144,2.0,3.0,33,0.00,,---,0.00,VWS V14.00,2013-03-07 23:57:00,
2013-03-07 17:58:00,53.6,25.2,30.20,SE,144,0.0,4.0,33,0.00,,---,0.00,VWS V14.00,2013-03-07 23:58:00,
2013-03-07 17:59:00,53.6,25.2,30.21,SE,144,0.0,2.0,33,0.00,,---,0.00,VWS V14.00,2013-03-07 23:59:00,
2013-03-07 18:00:00,57.5,22.9,30.19,SSE,148,3.0,7.0,26,0.00,,---,0.00,VWS V14.00,2013-03-08 00:00:00,
2013-03-07 18:01:00,53.5,25.1,30.20,SE,144,3.0,6.0,33,0.00,,---,0.00,VWS V14.00,2013-03-08 00:01:00,
2013-03-07 18:02:00,53.5,25.1,30.20,SE,144,3.0,4.0,33,0.00,,---,0.00,VWS V14.00,2013-03-08 00:02:00,
2013-03-07 18:03:00,53.5,25.1,30.20,SE,144,4.0,4.0,33,0.00,,---,0.00,VWS V14.00,2013-03-08 00:03:00,
2013-03-07 18:04:00,53.5,25.8,30.20,SE,144,1.0,4.0,34,0.00,,---,0.00,VWS V14.00,2013-03-08 00:04:00,
2013-03-07 18:05:00,57.2,23.5,30.20,SE,144,3.0,10.0,27,0.00,,---,0.00,VWS V14.00,2013-03-08 00:05:00,
2013-03-07 18:06:00,53.3,25.7,30.21,SE,144,0.0,1.0,34,0.00,,---,0.00,VWS V14.00,2013-03-08 00:06:00,
2013-03-07 18:07:00,53.2,25.6,30.21,SE,144,0.0,1.0,34,0.00,,---,0.00,VWS V14.00,2013-03-08 00:07:00,
2013-03-07 18:08:00,53.2,25.6,30.21,SE,144,1.0,1.0,34,0.00,,---,0.00,VWS V14.00,2013-03-08 00:08:00,
2013-03-07 18:09:00,53.2,25.6,30.21,SE,144,1.0,2.0,34,0.00,,---,0.00,VWS V14.00,2013-03-08 00:09:00,
2013-03-07 18:10:00,56.9,23.3,30.20,SE,144,4.0,5.0,27,0.00,,---,0.00,VWS V14.00,2013-03-08 00:10:00,
2013-03-07 18:11:00,53.1,26.2,30.21,SE,144,0.0,2.0,35,0.00,,---,0.00,VWS V14.00,2013-03-08 00:11:00,
2013-03-07 18:12:00,53.1,26.2,30.21,SE,144,0.0,2.0,35,0.00,,---,0.00,VWS V14.00,2013-03-08 00:12:00,
2013-03-07 18:13:00,52.9,26.0,30.21,SE,144,0.0,0.0,35,0.00,,---,0.00,VWS V14.00,2013-03-08 00:13:00,
2013-03-07 18:14:00,52.9,26.0,30.21,SE,144,0.0,3.0,35,0.00,,---,0.00,VWS V14.00,2013-03-08 00:14:00,
2013-03-07 18:15:00,56.5,23.8,30.20,SE,144,4.0,7.0,28,0.00,,---,0.00,VWS V14.00,2013-03-08 00:15:00,
2013-03-07 18:16:00,52.8,25.9,30.21,SE,144,3.0,4.0,35,0.00,,---,0.00,VWS V14.00,2013-03-08 00:16:00,
2013-03-07 18:17:00,52.8,25.9,30.21,SE,144,3.0,4.0,35,0.00,,---,0.00,VWS V14.00,2013-03-08 00:17:00,
2013-03-07 18:18:00,52.8,26.6,30.21,SE,144,0.0,4.0,36,0.00,,---,0.00,VWS V14.00,2013-03-08 00:18:00,
2013-03-07 18:19:00,52.8,25.9,30.21,SE,144,3.0,3.0,35,0.00,,---,0.00,VWS V14.00,2013-03-08 00:19:00,
2013-03-07 18:20:00,56.2,22.7,30.20,SE,144,2.0,3.0,27,0.00,,---,0.00,VWS V14.00,2013-03-08 00:20:00,
2013-03-07 18:21:00,52.6,25.8,30.21,SE,144,0.0,2.0,35,0.00,,---,0.00,VWS V14.00,2013-03-08 00:21:00,
2013-03-07 18:22:00,52.6,25.8,30.21,SE,144,0.0,0.0,35,0.00,,---,0.00,VWS V14.00,2013-03-08 00:22:00,
2013-03-07 18:23:00,52.5,25.7,30.21,SE,144,3.0,3.0,35,0.00,,---,0.00,VWS V14.00,2013-03-08 00:23:00,
2013-03-07 18:24:00,52.5,26.3,30.21,SE,144,0.0,3.0,36,0.00,,---,0.00,VWS V14.00,2013-03-08 00:24:00,
2013-03-07 18:25:00,55.7,23.1,30.20,SE,144,4.0,6.0,28,0.00,,---,0.00,VWS V14.00,2013-03-08 00:25:00,
2013-03-07 18:26:00,52.3,26.2,30.21,SE,144,0.0,1.0,36,0.00,,---,0.00,VWS V14.00,2013-03-08 00:26:00,
2013-03-07 18:27:00,52.3,26.2,30.21,SE,144,0.0,2.0,36,0.00,,---,0.00,VWS V14.00,2013-03-08 00:27:00,
2013-03-07 18:28:00,52.3,26.8,30.21,SE,144,3.0,3.0,37,0.00,,---,0.00,VWS V14.00,2013-03-08 00:28:00,
2013-03-07 18:29:00,52.3,26.8,30.21,SE,144,2.0,3.0,37,0.00,,---,0.00,VWS V14.00,2013-03-08 00:29:00,
2013-03-07 18:30:00,55.4,23.7,30.20,SE,144,0.0,4.0,29,0.00,,---,0.00,VWS V14.00,2013-03-08 00:30:00,
2013-03-07 18:31:00,52.3,26.8,30.21,SE,144,0.0,0.0,37,0.00,,---,0.00,VWS V14.00,2013-03-08 00:31:00,
2013-03-07 18:32:00,52.2,26.7,30.20,SE,144,0.0,0.0,37,0.00,,---,0.00,VWS V14.00,2013-03-08 00:32:00,
2013-03-07 18:33:00,52.2,26.7,30.20,SE,144,0.0,0.0,37,0.00,,---,0.00,VWS V14.00,2013-03-08 00:33:00,
2013-03-07 18:34:00,52.2,27.4,30.20,SE,144,0.0,2.0,38,0.00,,---,0.00,VWS V14.00,2013-03-08 00:34:00,
2013-03-07 18:35:00,55.1,24.2,30.20,SE,144,3.0,5.0,30,0.00,,---,0.00,VWS V14.00,2013-03-08 00:35:00,
2013-03-07 18:36:00,51.9,27.1,30.20,SE,144,0.0,0.0,38,0.00,,---,0.00,VWS V14.00,2013-03-08 00:36:00,
2013-03-07 18:37:00,51.7,26.9,30.20,SE,144,0.0,2.0,38,0.00,,---,0.00,VWS V14.00,2013-03-08 00:37:00,
2013-03-07 18:38:00,51.7,27.6,30.20,SE,144,0.0,0.0,39,0.00,,---,0.00,VWS V14.00,2013-03-08 00:38:00,
2013-03-07 18:39:00,51.6,27.5,30.20,SE,144,3.0,4.0,39,0.00,,---,0.00,VWS V14.00,2013-03-08 00:39:00,
2013-03-07 18:40:00,54.8,24.8,30.20,SE,144,3.0,4.0,31,0.00,,---,0.00,VWS V14.00,2013-03-08 00:40:00,
2013-03-07 18:41:00,51.4,27.3,30.20,SE,144,3.0,4.0,39,0.00,,---,0.00,VWS V14.00,2013-03-08 00:41:00,
2013-03-07 18:42:00,51.4,27.9,30.20,SE,144,2.0,6.0,40,0.00,,---,0.00,VWS V14.00,2013-03-08 00:42:00,
2013-03-07 18:43:00,51.3,27.8,30.20,SE,144,2.0,6.0,40,0.00,,---,0.00,VWS V14.00,2013-03-08 00:43:00,
2013-03-07 18:44:00,51.4,27.9,30.20,SE,144,0.0,2.0,40,0.00,,---,0.00,VWS V14.00,2013-03-08 00:44:00,
2013-03-07 18:45:00,54.5,24.5,30.20,SE,144,4.0,4.0,31,0.00,,---,0.00,VWS V14.00,2013-03-08 00:45:00,
2013-03-07 18:46:00,51.3,27.8,30.20,SE,144,0.0,3.0,40,0.00,,---,0.00,VWS V14.00,2013-03-08 00:46:00,
2013-03-07 18:47:00,51.3,27.8,30.20,SE,144,5.0,5.0,40,0.00,,---,0.00,VWS V14.00,2013-03-08 00:47:00,
2013-03-07 18:48:00,51.3,27.8,30.20,SE,144,2.0,5.0,40,0.00,,---,0.00,VWS V14.00,2013-03-08 00:48:00,
2013-03-07 18:49:00,51.1,27.6,30.20,SE,144,2.0,3.0,40,0.00,,---,0.00,VWS V14.00,2013-03-08 00:49:00,
2013-03-07 18:50:00,51.1,27.6,30.20,SE,144,1.0,3.0,40,0.00,,---,0.00,VWS V14.00,2013-03-08 00:50:00,
2013-03-07 18:51:00,54.2,25.0,30.20,SE,144,3.0,3.0,32,0.00,,---,0.00,VWS V14.00,2013-03-08 00:51:00,
2013-03-07 18:52:00,50.8,28.0,30.20,SE,144,3.0,4.0,41,0.00,,---,0.00,VWS V14.00,2013-03-08 00:52:00,
2013-03-07 18:53:00,50.8,28.5,30.20,SE,144,4.0,4.0,42,0.00,,---,0.00,VWS V14.00,2013-03-08 00:53:00,
2013-03-07 18:54:00,50.7,27.9,30.20,SE,144,1.0,4.0,41,0.00,,---,0.00,VWS V14.00,2013-03-08 00:54:00,
2013-03-07 18:55:00,50.7,27.9,30.20,SE,144,2.0,2.0,41,0.00,,---,0.00,VWS V14.00,2013-03-08 00:55:00,
2013-03-07 18:56:00,53.8,25.4,30.20,SE,144,1.0,2.0,33,0.00,,---,0.00,VWS V14.00,2013-03-08 00:56:00,
2013-03-07 18:57:00,50.5,28.3,30.20,SE,144,0.0,0.0,42,0.00,,---,0.00,VWS V14.00,2013-03-08 00:57:00,
2013-03-07 18:58:00,50.5,28.3,30.20,SE,144,0.0,0.0,42,0.00,,---,0.00,VWS V14.00,2013-03-08 00:58:00,
2013-03-07 18:59:00,50.5,28.3,30.21,SE,144,0.0,0.0,42,0.00,,---,0.00,VWS V14.00,2013-03-08 00:59:00,
2013-03-07 19:00:00,50.5,28.3,30.20,SE,144,0.0,0.0,42,0.00,,---,0.00,VWS V14.00,2013-03-08 01:00:00,
2013-03-07 19:01:00,53.6,25.2,30.20,SE,144,0.0,1.0,33,0.00,,---,0.00,VWS V14.00,2013-03-08 01:01:00,
2013-03-07 19:02:00,50.5,28.3,30.19,SE,144,0.0,0.0,42,0.00,,---,0.00,VWS V14.00,2013-03-08 01:02:00,
2013-03-07 19:03:00,50.4,28.2,30.19,SE,144,0.0,0.0,42,0.00,,---,0.00,VWS V14.00,2013-03-08 01:03:00,
2013-03-07 19:04:00,50.2,28.0,30.19,SE,144,0.0,0.0,42,0.00,,---,0.00,VWS V14.00,2013-03-08 01:04:00,
2013-03-07 19:05:00,50.2,28.6,30.19,SE,144,0.0,0.0,43,0.00,,---,0.00,VWS V14.00,2013-03-08 01:05:00,
2013-03-07 19:06:00,53.3,25.7,30.21,SE,144,0.0,1.0,34,0.00,,---,0.00,VWS V14.00,2013-03-08 01:06:00,
2013-03-07 19:07:00,49.9,28.9,30.19,SE,144,0.0,0.0,44,0.00,,---,0.00,VWS V14.00,2013-03-08 01:07:00,
2013-03-07 19:08:00,49.6,28.0,30.19,SE,144,0.0,0.0,43,0.00,,---,0.00,VWS V14.00,2013-03-08 01:08:00,
2013-03-07 19:09:00,49.5,28.0,30.19,SE,144,0.0,0.0,43,0.00,,---,0.00,VWS V14.00,2013-03-08 01:09:00,
2013-03-07 19:10:00,49.4,27.9,30.19,SE,144,0.0,0.0,43,0.00,,---,0.00,VWS V14.00,2013-03-08 01:10:00,
2013-03-07 19:11:00,53.1,26.2,30.21,SE,144,0.0,0.0,35,0.00,,---,0.00,VWS V14.00,2013-03-08 01:11:00,
2013-03-07 19:12:00,48.9,28.0,30.19,SE,144,0.0,0.0,44,0.00,,---,0.00,VWS V14.00,2013-03-08 01:12:00,
2013-03-07 19:13:00,48.6,28.8,30.19,SE,144,0.0,0.0,46,0.00,,---,0.00,VWS V14.00,2013-03-08 01:13:00,
2013-03-07 19:14:00,48.5,29.2,30.19,SE,144,0.0,0.0,47,0.00,,---,0.00,VWS V14.00,2013-03-08 01:14:00,
2013-03-07 19:15:00,48.2,29.5,30.19,SE,144,0.0,0.0,48,0.00,,---,0.00,VWS V14.00,2013-03-08 01:15:00,
2013-03-07 19:16:00,52.9,26.0,30.21,SE,144,0.0,0.0,35,0.00,,---,0.00,VWS V14.00,2013-03-08 01:16:00,
2013-03-07 19:17:00,47.9,29.2,30.19,SE,144,0.0,0.0,48,0.00,,---,0.00,VWS V14.00,2013-03-08 01:17:00,
2013-03-07 19:18:00,47.7,29.0,30.19,SE,144,0.0,0.0,48,0.00,,---,0.00,VWS V14.00,2013-03-08 01:18:00,
2013-03-07 19:19:00,47.7,29.0,30.19,SE,144,0.0,0.0,48,0.00,,---,0.00,VWS V14.00,2013-03-08 01:19:00,
2013-03-07 19:20:00,47.6,28.9,30.19,SE,144,0.0,0.0,48,0.00,,---,0.00,VWS V14.00,2013-03-08 01:20:00,
2013-03-07 19:21:00,52.6,26.4,30.21,SE,144,0.0,2.0,36,0.00,,---,0.00,VWS V14.00,2013-03-08 01:21:00,
2013-03-07 19:22:00,47.6,28.9,30.19,SE,144,0.0,0.0,48,0.00,,---,0.00,VWS V14.00,2013-03-08 01:22:00,
2013-03-07 19:23:00,47.6,28.9,30.19,SE,144,0.0,0.0,48,0.00,,---,0.00,VWS V14.00,2013-03-08 01:23:00,
2013-03-07 19:24:00,47.6,28.9,30.19,SE,144,0.0,0.0,48,0.00,,---,0.00,VWS V14.00,2013-03-08 01:24:00,
2013-03-07 19:25:00,47.6,28.9,30.19,SE,144,0.0,0.0,48,0.00,,---,0.00,VWS V14.00,2013-03-08 01:25:00,
2013-03-07 19:26:00,52.3,26.2,30.21,SE,144,0.0,0.0,36,0.00,,---,0.00,VWS V14.00,2013-03-08 01:26:00,
2013-03-07 19:27:00,47.4,29.7,30.19,SE,144,0.0,0.0,50,0.00,,---,0.00,VWS V14.00,2013-03-08 01:27:00,
2013-03-07 19:28:00,47.4,29.7,30.20,SE,144,0.0,0.0,50,0.00,,---,0.00,VWS V14.00,2013-03-08 01:28:00,
2013-03-07 19:29:00,47.3,29.1,30.20,SE,144,0.0,0.0,49,0.00,,---,0.00,VWS V14.00,2013-03-08 01:29:00,
2013-03-07 19:30:00,47.1,28.9,30.20,SE,144,0.0,0.0,49,0.00,,---,0.00,VWS V14.00,2013-03-08 01:30:00,
2013-03-07 19:31:00,52.3,26.8,30.21,SE,144,0.0,0.0,37,0.00,,---,0.00,VWS V14.00,2013-03-08 01:31:00,
2013-03-07 19:32:00,47.0,28.9,30.20,SE,144,0.0,0.0,49,0.00,,---,0.00,VWS V14.00,2013-03-08 01:32:00,
2013-03-07 19:33:00,46.8,28.7,30.20,SE,144,0.0,0.0,49,0.00,,---,0.00,VWS V14.00,2013-03-08 01:33:00,
2013-03-07 19:34:00,46.8,28.7,30.20,SE,144,0.0,0.0,49,0.00,,---,0.00,VWS V14.00,2013-03-08 01:34:00,
2013-03-07 19:35:00,46.7,29.1,30.20,SE,144,0.0,0.0,50,0.00,,---,0.00,VWS V14.00,2013-03-08 01:35:00,
2013-03-07 19:36:00,51.9,27.1,30.20,SE,144,0.0,0.0,38,0.00,,---,0.00,VWS V14.00,2013-03-08 01:36:00,
2013-03-07 19:37:00,46.5,28.9,30.20,SE,144,1.0,3.0,50,0.00,,---,0.00,VWS V14.00,2013-03-08 01:37:00,
2013-03-07 19:38:00,46.7,29.1,30.20,SE,144,1.0,1.0,50,0.00,,---,0.00,VWS V14.00,2013-03-08 01:38:00,
2013-03-07 19:39:00,46.8,29.2,30.20,SE,144,1.0,3.0,50,0.00,,---,0.00,VWS V14.00,2013-03-08 01:39:00,
2013-03-07 19:40:00,47.0,29.3,30.20,SE,144,2.0,3.0,50,0.00,,---,0.00,VWS V14.00,2013-03-08 01:40:00,
2013-03-07 19:41:00,51.4,27.3,30.20,SE,144,4.0,4.0,39,0.00,,---,0.00,VWS V14.00,2013-03-08 01:41:00,
2013-03-07 19:42:00,47.1,29.4,30.20,SE,144,0.0,4.0,50,0.00,,---,0.00,VWS V14.00,2013-03-08 01:42:00,
2013-03-07 19:43:00,47.3,29.6,30.20,SE,144,1.0,4.0,50,0.00,,---,0.00,VWS V14.00,2013-03-08 01:43:00,
2013-03-07 19:44:00,47.4,29.7,30.20,SE,144,0.0,2.0,50,0.00,,---,0.00,VWS V14.00,2013-03-08 01:44:00,
2013-03-07 19:45:00,47.6,29.9,30.20,SE,144,0.0,2.0,50,0.00,,---,0.00,VWS V14.00,2013-03-08 01:45:00,
2013-03-07 19:46:00,51.3,27.8,30.20,SE,144,2.0,3.0,40,0.00,,---,0.00,VWS V14.00,2013-03-08 01:46:00,
2013-03-07 19:47:00,47.7,29.5,30.20,SE,144,1.0,1.0,49,0.00,,---,0.00,VWS V14.00,2013-03-08 01:47:00,
2013-03-07 19:48:00,47.7,29.5,30.20,SE,144,0.0,2.0,49,0.00,,---,0.00,VWS V14.00,2013-03-08 01:48:00,
2013-03-07 19:49:00,47.9,29.7,30.20,SE,144,0.0,0.0,49,0.00,,---,0.00,VWS V14.00,2013-03-08 01:49:00,
2013-03-07 19:50:00,48.0,29.8,30.20,SE,144,0.0,0.0,49,0.00,,---,0.00,VWS V14.00,2013-03-08 01:50:00,
2013-03-07 19:51:00,51.0,28.1,30.20,SE,144,1.0,2.0,41,0.00,,---,0.00,VWS V14.00,2013-03-08 01:51:00,
2013-03-07 19:52:00,48.0,29.8,30.20,SE,144,1.0,1.0,49,0.00,,---,0.00,VWS V14.00,2013-03-08 01:52:00,
2013-03-07 19:53:00,48.0,29.8,30.20,SE,144,3.0,4.0,49,0.00,,---,0.00,VWS V14.00,2013-03-08 01:53:00,
2013-03-07 19:54:00,48.0,30.3,30.20,SE,144,3.0,4.0,50,0.00,,---,0.00,VWS V14.00,2013-03-08 01:54:00,
2013-03-07 19:55:00,48.0,30.3,30.20,SE,144,3.0,5.0,50,0.00,,---,0.00,VWS V14.00,2013-03-08 01:55:00,
2013-03-07 19:56:00,50.7,28.5,30.20,SE,144,0.0,2.0,42,0.00,,---,0.00,VWS V14.00,2013-03-08 01:56:00,
2013-03-07 19:57:00,48.0,30.3,30.20,SE,144,2.0,5.0,50,0.00,,---,0.00,VWS V14.00,2013-03-08 01:57:00,
2013-03-07 19:58:00,48.0,30.3,30.20,SE,144,3.0,3.0,50,0.00,,---,0.00,VWS V14.00,2013-03-08 01:58:00,
2013-03-07 19:59:00,48.0,30.3,30.20,SE,144,3.0,3.0,50,0.00,,---,0.00,VWS V14.00,2013-03-08 01:59:00,
2013-03-07 20:00:00,47.9,30.2,30.20,SE,144,1.0,3.0,50,0.00,,---,0.00,VWS V14.00,2013-03-08 02:00:00,
2013-03-07 20:01:00,50.5,28.3,30.20,SE,144,0.0,0.0,42,0.00,,---,0.00,VWS V14.00,2013-03-08 02:01:00,
2013-03-07 20:02:00,47.9,30.2,30.20,SE,144,2.0,3.0,50,0.00,,---,0.00,VWS V14.00,2013-03-08 02:02:00,
2013-03-07 20:03:00,48.0,30.3,30.20,SE,144,2.0,4.0,50,0.00,,---,0.00,VWS V14.00,2013-03-08 02:03:00,
2013-03-07 20:04:00,48.0,30.3,30.20,SE,144,3.0,5.0,50,0.00,,---,0.00,VWS V14.00,2013-03-08 02:04:00,
2013-03-07 20:05:00,48.0,30.3,30.20,SE,144,2.0,4.0,50,0.00,,---,0.00,VWS V14.00,2013-03-08 02:05:00,
2013-03-07 20:06:00,50.1,28.5,30.19,SE,144,0.0,0.0,43,0.00,,---,0.00,VWS V14.00,2013-03-08 02:06:00,
2013-03-07 20:07:00,47.9,30.2,30.20,SE,144,0.0,2.0,50,0.00,,---,0.00,VWS V14.00,2013-03-08 02:07:00,
2013-03-07 20:08:00,47.9,30.2,30.20,SE,144,0.0,2.0,50,0.00,,---,0.00,VWS V14.00,2013-03-08 02:08:00,
2013-03-07 20:09:00,47.9,30.2,30.20,SE,144,0.0,3.0,50,0.00,,---,0.00,VWS V14.00,2013-03-08 02:09:00,
2013-03-07 20:10:00,47.9,30.2,30.20,SE,144,0.0,1.0,50,0.00,,---,0.00,VWS V14.00,2013-03-08 02:10:00,
2013-03-07 20:11:00,49.2,27.7,30.19,SE,144,0.0,0.0,43,0.00,,---,0.00,VWS V14.00,2013-03-08 02:11:00,
2013-03-07 20:12:00,47.7,30.0,30.20,SE,144,0.0,2.0,50,0.00,,---,0.00,VWS V14.00,2013-03-08 02:12:00,
2013-03-07 20:13:00,47.7,30.0,30.20,SE,144,0.0,0.0,50,0.00,,---,0.00,VWS V14.00,2013-03-08 02:13:00,
2013-03-07 20:14:00,47.6,30.4,30.20,SE,144,0.0,0.0,51,0.00,,---,0.00,VWS V14.00,2013-03-08 02:14:00,
2013-03-07 20:15:00,47.4,30.7,30.20,SE,144,0.0,0.0,52,0.00,,---,0.00,VWS V14.00,2013-03-08 02:15:00,
2013-03-07 20:16:00,48.0,29.3,30.19,SE,144,0.0,0.0,48,0.00,,---,0.00,VWS V14.00,2013-03-08 02:16:00,
2013-03-07 20:17:00,47.3,30.6,30.20,SE,144,0.0,0.0,52,0.00,,---,0.00,VWS V14.00,2013-03-08 02:17:00,
2013-03-07 20:18:00,47.1,30.4,30.20,SE,144,0.0,0.0,52,0.00,,---,0.00,VWS V14.00,2013-03-08 02:18:00,
2013-03-07 20:19:00,47.0,29.8,30.20,SE,144,0.0,0.0,51,0.00,,---,0.00,VWS V14.00,2013-03-08 02:19:00,
2013-03-07 20:20:00,47.0,30.3,30.20,SE,144,0.0,0.0,52,0.00,,---,0.00,VWS V14.00,2013-03-08 02:20:00,
2013-03-07 20:21:00,47.6,28.9,30.19,SE,144,0.0,0.0,48,0.00,,---,0.00,VWS V14.00,2013-03-08 02:21:00,
2013-03-07 20:22:00,46.7,30.0,30.20,SE,144,0.0,0.0,52,0.00,,---,0.00,VWS V14.00,2013-03-08 02:22:00,
2013-03-07 20:23:00,46.4,29.8,30.20,SE,144,0.0,0.0,52,0.00,,---,0.00,VWS V14.00,2013-03-08 02:23:00,
2013-03-07 20:24:00,46.2,29.6,30.20,SE,144,0.0,0.0,52,0.00,,---,0.00,VWS V14.00,2013-03-08 02:24:00,
2013-03-07 20:25:00,46.1,29.5,30.20,SE,144,0.0,0.0,52,0.00,,---,0.00,VWS V14.00,2013-03-08 02:25:00,
2013-03-07 20:26:00,47.6,29.4,30.19,SE,144,0.0,0.0,49,0.00,,---,0.00,VWS V14.00,2013-03-08 02:26:00,
2013-03-07 20:27:00,45.8,29.2,30.20,SE,144,0.0,0.0,52,0.00,,---,0.00,VWS V14.00,2013-03-08 02:27:00,
2013-03-07 20:28:00,45.7,29.6,30.20,SE,144,0.0,0.0,53,0.00,,---,0.00,VWS V14.00,2013-03-08 02:28:00,
2013-03-07 20:29:00,45.7,30.0,30.20,SE,144,0.0,0.0,54,0.00,,---,0.00,VWS V14.00,2013-03-08 02:29:00,
2013-03-07 20:30:00,45.5,29.8,30.20,SE,144,0.0,0.0,54,0.00,,---,0.00,VWS V14.00,2013-03-08 02:30:00,
2013-03-07 20:31:00,47.1,28.9,30.20,SE,144,0.0,0.0,49,0.00,,---,0.00,VWS V14.00,2013-03-08 02:31:00,
2013-03-07 20:32:00,45.4,30.2,30.20,SE,144,0.0,0.0,55,0.00,,---,0.00,VWS V14.00,2013-03-08 02:32:00,
2013-03-07 20:33:00,45.2,30.5,30.20,SE,144,0.0,0.0,56,0.00,,---,0.00,VWS V14.00,2013-03-08 02:33:00,
2013-03-07 20:34:00,45.1,30.4,30.20,SE,144,0.0,0.0,56,0.00,,---,0.00,VWS V14.00,2013-03-08 02:34:00,
2013-03-07 20:35:00,45.1,30.8,30.20,SE,144,0.0,0.0,57,0.00,,---,0.00,VWS V14.00,2013-03-08 02:35:00,
2013-03-07 20:36:00,46.7,29.5,30.20,SE,144,0.0,0.0,51,0.00,,---,0.00,VWS V14.00,2013-03-08 02:36:00,
2013-03-07 20:37:00,44.8,30.5,30.20,SE,144,0.0,0.0,57,0.00,,---,0.00,VWS V14.00,2013-03-08 02:37:00,
2013-03-07 20:38:00,44.8,30.5,30.20,SE,144,0.0,0.0,57,0.00,,---,0.00,VWS V14.00,2013-03-08 02:38:00,
2013-03-07 20:39:00,44.6,30.3,30.20,SE,144,0.0,0.0,57,0.00,,---,0.00,VWS V14.00,2013-03-08 02:39:00,
2013-03-07 20:40:00,44.6,30.3,30.20,SE,144,0.0,0.0,57,0.00,,---,0.00,VWS V14.00,2013-03-08 02:40:00,
2013-03-07 20:41:00,47.0,29.3,30.20,SE,144,2.0,4.0,50,0.00,,---,0.00,VWS V14.00,2013-03-08 02:41:00,
2013-03-07 20:42:00,44.5,30.7,30.20,SE,144,0.0,0.0,58,0.00,,---,0.00,VWS V14.00,2013-03-08 02:42:00,
2013-03-07 20:43:00,44.3,30.5,30.21,SE,144,0.0,0.0,58,0.00,,---,0.00,VWS V14.00,2013-03-08 02:43:00,
2013-03-07 20:44:00,44.3,30.5,30.21,SE,144,0.0,0.0,58,0.00,,---,0.00,VWS V14.00,2013-03-08 02:44:00,
2013-03-07 20:45:00,44.2,30.8,30.21,SE,144,0.0,0.0,59,0.00,,---,0.00,VWS V14.00,2013-03-08 02:45:00,
2013-03-07 20:46:00,47.6,29.9,30.20,SE,144,0.0,0.0,50,0.00,,---,0.00,VWS V14.00,2013-03-08 02:46:00,
2013-03-07 20:47:00,44.2,30.8,30.21,SE,144,0.0,0.0,59,0.00,,---,0.00,VWS V14.00,2013-03-08 02:47:00,
2013-03-07 20:48:00,44.1,30.7,30.20,SE,144,0.0,0.0,59,0.00,,---,0.00,VWS V14.00,2013-03-08 02:48:00,
2013-03-07 20:49:00,44.1,30.7,30.20,SE,144,0.0,0.0,59,0.00,,---,0.00,VWS V14.00,2013-03-08 02:49:00,
2013-03-07 20:50:00,43.9,30.5,30.20,SE,144,0.0,0.0,59,0.00,,---,0.00,VWS V14.00,2013-03-08 02:50:00,
2013-03-07 20:51:00,48.0,29.8,30.20,SE,144,0.0,3.0,49,0.00,,---,0.00,VWS V14.00,2013-03-08 02:51:00,
2013-03-07 20:53:00,43.8,30.4,30.21,SE,144,0.0,0.0,59,0.00,,---,0.00,VWS V14.00,2013-03-08 02:53:00,
2013-03-07 20:54:00,43.8,30.4,30.21,SE,144,0.0,0.0,59,0.00,,---,0.00,VWS V14.00,2013-03-08 02:54:00,
2013-03-07 20:55:00,43.6,30.2,30.21,SE,144,0.0,0.0,59,0.00,,---,0.00,VWS V14.00,2013-03-08 02:55:00,
2013-03-07 20:56:00,48.0,30.3,30.20,SE,144,3.0,6.0,50,0.00,,---,0.00,VWS V14.00,2013-03-08 02:56:00,
2013-03-07 20:57:00,43.5,30.1,30.21,SE,144,0.0,0.0,59,0.00,,---,0.00,VWS V14.00,2013-03-08 02:57:00,
2013-03-07 20:58:00,43.5,29.7,30.21,SE,144,0.0,0.0,58,0.00,,---,0.00,VWS V14.00,2013-03-08 02:58:00,
2013-03-07 20:59:00,43.3,29.5,30.21,SE,144,0.0,0.0,58,0.00,,---,0.00,VWS V14.00,2013-03-08 02:59:00,
2013-03-07 21:00:00,43.3,29.5,30.21,SE,144,0.0,0.0,58,0.00,,---,0.00,VWS V14.00,2013-03-08 03:00:00,
2013-03-07 21:01:00,47.9,30.2,30.20,SE,144,0.0,4.0,50,0.00,,---,0.00,VWS V14.00,2013-03-08 03:01:00,
2013-03-07 21:02:00,43.1,30.2,30.21,SE,144,0.0,0.0,60,0.00,,---,0.00,VWS V14.00,2013-03-08 03:02:00,
2013-03-07 21:03:00,43.1,30.2,30.21,SE,144,0.0,0.0,60,0.00,,---,0.00,VWS V14.00,2013-03-08 03:03:00,
2013-03-07 21:04:00,42.9,30.0,30.21,SE,144,0.0,0.0,60,0.00,,---,0.00,VWS V14.00,2013-03-08 03:04:00,
2013-03-07 21:05:00,42.9,30.0,30.21,SE,144,0.0,0.0,60,0.00,,---,0.00,VWS V14.00,2013-03-08 03:05:00,
2013-03-07 21:06:00,47.9,30.2,30.20,SE,144,0.0,3.0,50,0.00,,---,0.00,VWS V14.00,2013-03-08 03:06:00,
2013-03-07 21:07:00,42.8,29.5,30.22,SE,144,0.0,0.0,59,0.00,,---,0.00,VWS V14.00,2013-03-08 03:07:00,
2013-03-07 21:08:00,42.8,29.9,30.22,SE,144,0.0,0.0,60,0.00,,---,0.00,VWS V14.00,2013-03-08 03:08:00,
2013-03-07 21:09:00,42.6,30.1,30.22,SE,144,2.0,2.0,61,0.00,,---,0.00,VWS V14.00,2013-03-08 03:09:00,
2013-03-07 21:10:00,42.6,30.5,30.22,SE,144,2.0,3.0,62,0.00,,---,0.00,VWS V14.00,2013-03-08 03:10:00,
2013-03-07 21:11:00,47.9,30.2,30.20,SE,144,0.0,1.0,50,0.00,,---,0.00,VWS V14.00,2013-03-08 03:11:00,
2013-03-07 21:12:00,42.6,30.9,30.22,SE,144,3.0,3.0,63,0.00,,---,0.00,VWS V14.00,2013-03-08 03:12:00,
2013-03-07 21:13:00,42.6,30.9,30.22,SE,144,2.0,4.0,63,0.00,,---,0.00,VWS V14.00,2013-03-08 03:13:00,
2013-03-07 21:14:00,42.5,30.4,30.22,SE,144,1.0,2.0,62,0.00,,---,0.00,VWS V14.00,2013-03-08 03:14:00,
2013-03-07 21:15:00,42.5,30.8,30.22,SE,144,0.0,2.0,63,0.00,,---,0.00,VWS V14.00,2013-03-08 03:15:00,
2013-03-07 21:16:00,47.4,30.7,30.20,SE,144,0.0,0.0,52,0.00,,---,0.00,VWS V14.00,2013-03-08 03:16:00,
2013-03-07 21:17:00,42.5,30.8,30.22,SE,144,0.0,0.0,63,0.00,,---,0.00,VWS V14.00,2013-03-08 03:17:00,
2013-03-07 21:18:00,42.5,30.8,30.22,SE,144,0.0,1.0,63,0.00,,---,0.00,VWS V14.00,2013-03-08 03:18:00,
2013-03-07 21:19:00,42.5,30.8,30.22,SE,144,0.0,0.0,63,0.00,,---,0.00,VWS V14.00,2013-03-08 03:19:00,
2013-03-07 21:20:00,42.5,30.8,30.22,SE,144,0.0,0.0,63,0.00,,---,0.00,VWS V14.00,2013-03-08 03:20:00,
2013-03-07 21:21:00,46.8,30.1,30.20,SE,144,0.0,0.0,52,0.00,,---,0.00,VWS V14.00,2013-03-08 03:21:00,
2013-03-07 21:22:00,42.5,30.4,30.22,SE,144,0.0,0.0,62,0.00,,---,0.00,VWS V14.00,2013-03-08 03:22:00,
2013-03-07 21:23:00,42.5,30.8,30.22,SE,144,0.0,0.0,63,0.00,,---,0.00,VWS V14.00,2013-03-08 03:23:00,
2013-03-07 21:24:00,42.3,30.6,30.22,SE,144,0.0,0.0,63,0.00,,---,0.00,VWS V14.00,2013-03-08 03:24:00,
2013-03-07 21:25:00,42.3,30.6,30.23,SE,144,0.0,0.0,63,0.00,,---,0.00,VWS V14.00,2013-03-08 03:25:00,
2013-03-07 21:26:00,46.1,29.5,30.20,SE,144,0.0,0.0,52,0.00,,---,0.00,VWS V14.00,2013-03-08 03:26:00,
2013-03-07 21:27:00,42.3,31.0,30.23,SE,144,0.0,0.0,64,0.00,,---,0.00,VWS V14.00,2013-03-08 03:27:00,
2013-03-07 21:28:00,42.3,31.0,30.23,SE,144,0.0,0.0,64,0.00,,---,0.00,VWS V14.00,2013-03-08 03:28:00,
2013-03-07 21:29:00,42.3,31.0,30.23,SE,144,0.0,0.0,64,0.00,,---,0.00,VWS V14.00,2013-03-08 03:29:00,
2013-03-07 21:30:00,42.3,30.6,30.23,SE,144,0.0,0.0,63,0.00,,---,0.00,VWS V14.00,2013-03-08 03:30:00,
2013-03-07 21:31:00,45.4,29.7,30.20,SE,144,0.0,0.0,54,0.00,,---,0.00,VWS V14.00,2013-03-08 03:31:00,
2013-03-07 21:33:00,42.2,30.5,30.23,SE,144,0.0,0.0,63,0.00,,---,0.00,VWS V14.00,2013-03-08 03:33:00,
2013-03-07 21:34:00,42.1,30.0,30.23,SE,144,0.0,0.0,62,0.00,,---,0.00,VWS V14.00,2013-03-08 03:34:00,
2013-03-07 21:35:00,42.1,30.0,30.23,SE,144,0.0,0.0,62,0.00,,---,0.00,VWS V14.00,2013-03-08 03:35:00,
2013-03-07 21:36:00,44.9,30.6,30.20,SE,144,0.0,0.0,57,0.00,,---,0.00,VWS V14.00,2013-03-08 03:36:00,
2013-03-07 21:37:00,41.9,29.9,30.24,SE,144,0.0,0.0,62,0.00,,---,0.00,VWS V14.00,2013-03-08 03:37:00,
2013-03-07 21:38:00,41.9,29.9,30.24,SE,144,0.0,0.0,62,0.00,,---,0.00,VWS V14.00,2013-03-08 03:38:00,
2013-03-07 21:39:00,41.9,29.9,30.24,SE,144,0.0,0.0,62,0.00,,---,0.00,VWS V14.00,2013-03-08 03:39:00,
2013-03-07 21:40:00,41.9,29.9,30.24,SE,144,0.0,0.0,62,0.00,,---,0.00,VWS V14.00,2013-03-08 03:40:00,
2013-03-07 21:41:00,44.5,30.2,30.20,SE,144,0.0,0.0,57,0.00,,---,0.00,VWS V14.00,2013-03-08 03:41:00,
2013-03-07 21:42:00,41.8,30.5,30.24,SE,144,0.0,0.0,64,0.00,,---,0.00,VWS V14.00,2013-03-08 03:42:00,
2013-03-07 21:43:00,41.8,30.5,30.24,SE,144,0.0,0.0,64,0.00,,---,0.00,VWS V14.00,2013-03-08 03:43:00,
2013-03-07 21:44:00,41.8,30.5,30.24,SE,144,0.0,0.0,64,0.00,,---,0.00,VWS V14.00,2013-03-08 03:44:00,
2013-03-07 21:45:00,41.8,30.5,30.24,SE,144,0.0,0.0,64,0.00,,---,0.00,VWS V14.00,2013-03-08 03:45:00,
2013-03-07 21:46:00,44.2,30.8,30.21,SE,144,0.0,0.0,59,0.00,,---,0.00,VWS V14.00,2013-03-08 03:46:00,
2013-03-07 21:47:00,41.6,30.3,30.24,SE,144,0.0,0.0,64,0.00,,---,0.00,VWS V14.00,2013-03-08 03:47:00,
2013-03-07 21:48:00,41.6,30.3,30.24,SE,144,0.0,0.0,64,0.00,,---,0.00,VWS V14.00,2013-03-08 03:48:00,
2013-03-07 21:49:00,41.6,30.7,30.24,SE,144,0.0,0.0,65,0.00,,---,0.00,VWS V14.00,2013-03-08 03:49:00,
2013-03-07 21:50:00,41.6,30.7,30.24,SE,144,0.0,0.0,65,0.00,,---,0.00,VWS V14.00,2013-03-08 03:50:00,
2013-03-07 21:51:00,43.9,30.5,30.20,SE,144,0.0,0.0,59,0.00,,---,0.00,VWS V14.00,2013-03-08 03:51:00,
2013-03-07 21:52:00,41.6,30.7,30.24,SE,144,0.0,0.0,65,0.00,,---,0.00,VWS V14.00,2013-03-08 03:52:00,
2013-03-07 21:53:00,41.6,30.7,30.24,SE,144,0.0,0.0,65,0.00,,---,0.00,VWS V14.00,2013-03-08 03:53:00,
2013-03-07 21:54:00,41.6,30.7,30.24,SE,144,0.0,0.0,65,0.00,,---,0.00,VWS V14.00,2013-03-08 03:54:00,
2013-03-07 21:55:00,41.5,30.6,30.24,SE,144,0.0,0.0,65,0.00,,---,0.00,VWS V14.00,2013-03-08 03:55:00,
2013-03-07 21:56:00,43.6,30.2,30.21,SE,144,0.0,0.0,59,0.00,,---,0.00,VWS V14.00,2013-03-08 03:56:00,
2013-03-07 21:57:00,41.5,30.6,30.24,SE,144,0.0,0.0,65,0.00,,---,0.00,VWS V14.00,2013-03-08 03:57:00,
2013-03-07 21:58:00,41.3,30.4,30.24,SE,144,0.0,0.0,65,0.00,,---,0.00,VWS V14.00,2013-03-08 03:58:00,
2013-03-07 21:59:00,41.3,30.4,30.24,SE,144,0.0,0.0,65,0.00,,---,0.00,VWS V14.00,2013-03-08 03:59:00,
2013-03-07 22:00:00,41.3,30.4,30.24,SE,144,0.0,0.0,65,0.00,,---,0.00,VWS V14.00,2013-03-08 04:00:00,
2013-03-07 22:01:00,43.2,29.9,30.21,SE,144,0.0,0.0,59,0.00,,---,0.00,VWS V14.00,2013-03-08 04:01:00,
2013-03-07 22:02:00,41.2,30.7,30.24,SE,144,0.0,0.0,66,0.00,,---,0.00,VWS V14.00,2013-03-08 04:02:00,
2013-03-07 22:03:00,41.2,30.7,30.24,SE,144,0.0,0.0,66,0.00,,---,0.00,VWS V14.00,2013-03-08 04:03:00,
2013-03-07 22:04:00,41.2,30.7,30.24,SE,144,0.0,0.0,66,0.00,,---,0.00,VWS V14.00,2013-03-08 04:04:00,
2013-03-07 22:05:00,41.2,30.7,30.24,SE,144,0.0,0.0,66,0.00,,---,0.00,VWS V14.00,2013-03-08 04:05:00,
2013-03-07 22:06:00,42.9,30.0,30.22,SE,144,0.0,0.0,60,0.00,,---,0.00,VWS V14.00,2013-03-08 04:06:00,
2013-03-07 22:07:00,41.1,30.2,30.24,SE,144,0.0,0.0,65,0.00,,---,0.00,VWS V14.00,2013-03-08 04:07:00,
2013-03-07 22:08:00,41.1,30.2,30.24,SE,144,0.0,0.0,65,0.00,,---,0.00,VWS V14.00,2013-03-08 04:08:00,
2013-03-07 22:09:00,41.1,30.2,30.24,SE,144,0.0,0.0,65,0.00,,---,0.00,VWS V14.00,2013-03-08 04:09:00,
2013-03-07 22:10:00,41.1,30.2,30.24,SE,144,0.0,0.0,65,0.00,,---,0.00,VWS V14.00,2013-03-08 04:10:00,
2013-03-07 22:11:00,42.6,30.5,30.22,SE,144,2.0,3.0,62,0.00,,---,0.00,VWS V14.00,2013-03-08 04:11:00,
2013-03-07 22:12:00,41.1,30.2,30.24,SE,144,0.0,0.0,65,0.00,,---,0.00,VWS V14.00,2013-03-08 04:12:00,
2013-03-07 22:13:00,41.1,30.2,30.24,SE,144,0.0,0.0,65,0.00,,---,0.00,VWS V14.00,2013-03-08 04:13:00,
2013-03-07 22:14:00,41.1,30.2,30.24,SE,144,0.0,0.0,65,0.00,,---,0.00,VWS V14.00,2013-03-08 04:14:00,
2013-03-07 22:15:00,40.9,30.1,30.24,SE,144,0.0,0.0,65,0.00,,---,0.00,VWS V14.00,2013-03-08 04:15:00,
2013-03-07 22:16:00,42.5,30.8,30.22,SE,144,0.0,0.0,63,0.00,,---,0.00,VWS V14.00,2013-03-08 04:16:00,
2013-03-07 22:17:00,40.9,30.1,30.24,SE,144,0.0,0.0,65,0.00,,---,0.00,VWS V14.00,2013-03-08 04:17:00,
2013-03-07 22:18:00,40.8,30.0,30.24,SE,144,0.0,0.0,65,0.00,,---,0.00,VWS V14.00,2013-03-08 04:18:00,
2013-03-07 22:19:00,40.8,30.0,30.24,SE,144,0.0,0.0,65,0.00,,---,0.00,VWS V14.00,2013-03-08 04:19:00,
2013-03-07 22:20:00,40.6,29.8,30.24,SE,144,0.0,0.0,65,0.00,,---,0.00,VWS V14.00,2013-03-08 04:20:00,
2013-03-07 22:21:00,42.5,30.4,30.22,SE,144,0.0,0.0,62,0.00,,---,0.00,VWS V14.00,2013-03-08 04:21:00,
2013-03-07 22:22:00,40.6,29.8,30.24,SE,144,0.0,0.0,65,0.00,,---,0.00,VWS V14.00,2013-03-08 04:22:00,
2013-03-07 22:23:00,40.6,29.8,30.24,SE,144,0.0,0.0,65,0.00,,---,0.00,VWS V14.00,2013-03-08 04:23:00,
2013-03-07 22:24:00,40.6,30.1,30.24,SE,144,0.0,0.0,66,0.00,,---,0.00,VWS V14.00,2013-03-08 04:24:00,
2013-03-07 22:25:00,40.5,30.0,30.24,SE,144,0.0,0.0,66,0.00,,---,0.00,VWS V14.00,2013-03-08 04:25:00,
2013-03-07 22:26:00,42.3,30.6,30.23,SE,144,0.0,0.0,63,0.00,,---,0.00,VWS V14.00,2013-03-08 04:26:00,
2013-03-07 22:27:00,40.5,30.0,30.24,SE,144,0.0,0.0,66,0.00,,---,0.00,VWS V14.00,2013-03-08 04:27:00,
2013-03-07 22:28:00,40.5,30.0,30.24,SE,144,0.0,0.0,66,0.00,,---,0.00,VWS V14.00,2013-03-08 04:28:00,
2013-03-07 22:29:00,40.5,30.0,30.24,SE,144,0.0,0.0,66,0.00,,---,0.00,VWS V14.00,2013-03-08 04:29:00,
2013-03-07 22:30:00,40.5,29.7,30.24,SE,144,0.0,0.0,65,0.00,,---,0.00,VWS V14.00,2013-03-08 04:30:00,
2013-03-07 22:31:00,42.2,30.9,30.23,SE,144,0.0,0.0,64,0.00,,---,0.00,VWS V14.00,2013-03-08 04:31:00,
2013-03-07 22:32:00,40.3,29.9,30.24,SE,144,0.0,0.0,66,0.00,,---,0.00,VWS V14.00,2013-03-08 04:32:00,
2013-03-07 22:33:00,40.3,29.9,30.24,SE,144,0.0,0.0,66,0.00,,---,0.00,VWS V14.00,2013-03-08 04:33:00,
2013-03-07 22:34:00,40.2,29.8,30.24,SE,144,0.0,0.0,66,0.00,,---,0.00,VWS V14.00,2013-03-08 04:34:00,
2013-03-07 22:35:00,40.2,30.1,30.24,SE,144,0.0,0.0,67,0.00,,---,0.00,VWS V14.00,2013-03-08 04:35:00,
2013-03-07 22:36:00,42.1,30.0,30.24,SE,144,0.0,0.0,62,0.00,,---,0.00,VWS V14.00,2013-03-08 04:36:00,
2013-03-07 22:37:00,40.2,30.1,30.24,SE,144,0.0,0.0,67,0.00,,---,0.00,VWS V14.00,2013-03-08 04:37:00,
2013-03-07 22:38:00,40.2,30.1,30.24,SE,144,0.0,0.0,67,0.00,,---,0.00,VWS V14.00,2013-03-08 04:38:00,
2013-03-07 22:39:00,40.2,30.1,30.24,SE,144,0.0,0.0,67,0.00,,---,0.00,VWS V14.00,2013-03-08 04:39:00,
2013-03-07 22:40:00,40.2,30.1,30.24,SE,144,0.0,0.0,67,0.00,,---,0.00,VWS V14.00,2013-03-08 04:40:00,
2013-03-07 22:41:00,41.9,30.2,30.24,SE,144,0.0,0.0,63,0.00,,---,0.00,VWS V14.00,2013-03-08 04:41:00,
2013-03-07 22:42:00,40.2,30.1,30.24,SE,144,0.0,0.0,67,0.00,,---,0.00,VWS V14.00,2013-03-08 04:42:00,
2013-03-07 22:43:00,40.2,29.8,30.23,SE,144,0.0,0.0,66,0.00,,---,0.00,VWS V14.00,2013-03-08 04:43:00,
2013-03-07 22:44:00,40.2,30.1,30.23,SE,144,0.0,0.0,67,0.00,,---,0.00,VWS V14.00,2013-03-08 04:44:00,
2013-03-07 22:45:00,40.2,30.1,30.24,SE,144,0.0,0.0,67,0.00,,---,0.00,VWS V14.00,2013-03-08 04:45:00,
2013-03-07 22:46:00,41.8,30.5,30.24,SE,144,0.0,0.0,64,0.00,,---,0.00,VWS V14.00,2013-03-08 04:46:00,
2013-03-07 22:47:00,40.2,30.1,30.24,SE,144,0.0,0.0,67,0.00,,---,0.00,VWS V14.00,2013-03-08 04:47:00,
2013-03-07 22:48:00,40.2,30.5,30.24,SE,144,0.0,0.0,68,0.00,,---,0.00,VWS V14.00,2013-03-08 04:48:00,
2013-03-07 22:49:00,40.2,30.5,30.24,SE,144,0.0,0.0,68,0.00,,---,0.00,VWS V14.00,2013-03-08 04:49:00,
2013-03-07 22:50:00,40.3,30.6,30.24,SE,144,0.0,0.0,68,0.00,,---,0.00,VWS V14.00,2013-03-08 04:50:00,
2013-03-07 22:51:00,41.6,30.7,30.24,SE,144,0.0,0.0,65,0.00,,---,0.00,VWS V14.00,2013-03-08 04:51:00,
2013-03-07 22:52:00,40.3,30.6,30.24,SE,144,0.0,0.0,68,0.00,,---,0.00,VWS V14.00,2013-03-08 04:52:00,
2013-03-07 22:53:00,40.3,30.6,30.24,SE,144,0.0,0.0,68,0.00,,---,0.00,VWS V14.00,2013-03-08 04:53:00,
2013-03-07 22:54:00,40.3,30.6,30.24,SE,144,0.0,0.0,68,0.00,,---,0.00,VWS V14.00,2013-03-08 04:54:00,
2013-03-07 22:55:00,40.2,30.5,30.24,SE,144,0.0,0.0,68,0.00,,---,0.00,VWS V14.00,2013-03-08 04:55:00,
2013-03-07 22:56:00,41.5,30.6,30.24,SE,144,0.0,0.0,65,0.00,,---,0.00,VWS V14.00,2013-03-08 04:56:00,
2013-03-07 22:57:00,40.2,30.5,30.24,SE,144,0.0,0.0,68,0.00,,---,0.00,VWS V14.00,2013-03-08 04:57:00,
2013-03-07 22:58:00,40.2,30.1,30.24,SE,144,0.0,0.0,67,0.00,,---,0.00,VWS V14.00,2013-03-08 04:58:00,
2013-03-07 22:59:00,40.2,30.1,30.24,SE,144,0.0,0.0,67,0.00,,---,0.00,VWS V14.00,2013-03-08 04:59:00,
2013-03-07 23:00:00,41.3,30.4,30.24,SE,144,0.0,0.0,65,0.00,,---,0.00,VWS V14.00,2013-03-08 05:00:00,
2013-03-07 23:01:00,40.3,30.2,30.24,SE,144,0.0,0.0,67,0.00,,---,0.00,VWS V14.00,2013-03-08 05:01:00,
2013-03-07 23:02:00,41.3,30.8,30.24,SE,144,0.0,0.0,66,0.00,,---,0.00,VWS V14.00,2013-03-08 05:02:00,
2013-03-07 23:03:00,40.3,30.2,30.23,SE,144,0.0,0.0,67,0.00,,---,0.00,VWS V14.00,2013-03-08 05:03:00,
2013-03-07 23:04:00,40.3,30.2,30.23,SE,144,0.0,0.0,67,0.00,,---,0.00,VWS V14.00,2013-03-08 05:04:00,
2013-03-07 23:05:00,40.3,30.2,30.23,SE,144,0.0,0.0,67,0.00,,---,0.00,VWS V14.00,2013-03-08 05:05:00,
2013-03-07 23:06:00,40.3,30.2,30.23,SE,144,0.0,0.0,67,0.00,,---,0.00,VWS V14.00,2013-03-08 05:06:00,
2013-03-07 23:07:00,41.2,30.3,30.24,SE,144,0.0,0.0,65,0.00,,---,0.00,VWS V14.00,2013-03-08 05:07:00,
2013-03-07 23:08:00,40.3,30.2,30.23,SE,144,0.0,0.0,67,0.00,,---,0.00,VWS V14.00,2013-03-08 05:08:00,
2013-03-07 23:09:00,40.3,30.2,30.23,SE,144,0.0,0.0,67,0.00,,---,0.00,VWS V14.00,2013-03-08 05:09:00,
2013-03-07 23:10:00,40.3,30.2,30.23,SE,144,0.0,0.0,67,0.00,,---,0.00,VWS V14.00,2013-03-08 05:10:00,
2013-03-07 23:11:00,40.3,30.2,30.23,SE,144,0.0,0.0,67,0.00,,---,0.00,VWS V14.00,2013-03-08 05:11:00,
2013-03-07 23:12:00,41.1,30.2,30.24,SE,144,0.0,0.0,65,0.00,,---,0.00,VWS V14.00,2013-03-08 05:12:00,
2013-03-07 23:13:00,40.3,30.2,30.23,SE,144,0.0,0.0,67,0.00,,---,0.00,VWS V14.00,2013-03-08 05:13:00,
2013-03-07 23:14:00,40.3,30.2,30.23,SE,144,0.0,0.0,67,0.00,,---,0.00,VWS V14.00,2013-03-08 05:14:00,
2013-03-07 23:15:00,40.2,30.1,30.23,SE,144,0.0,0.0,67,0.00,,---,0.00,VWS V14.00,2013-03-08 05:15:00,
2013-03-07 23:16:00,40.2,30.1,30.23,SE,144,0.0,0.0,67,0.00,,---,0.00,VWS V14.00,2013-03-08 05:16:00,
2013-03-07 23:17:00,40.9,30.1,30.24,SE,144,0.0,0.0,65,0.00,,---,0.00,VWS V14.00,2013-03-08 05:17:00,
2013-03-07 23:18:00,40.2,30.1,30.23,SE,144,0.0,0.0,67,0.00,,---,0.00,VWS V14.00,2013-03-08 05:18:00,
2013-03-07 23:19:00,40.2,30.1,30.23,SE,144,0.0,0.0,67,0.00,,---,0.00,VWS V14.00,2013-03-08 05:19:00,
2013-03-07 23:20:00,40.2,30.1,30.23,SE,144,0.0,0.0,67,0.00,,---,0.00,VWS V14.00,2013-03-08 05:20:00,
2013-03-07 23:21:00,40.2,30.1,30.23,SE,144,0.0,0.0,67,0.00,,---,0.00,VWS V14.00,2013-03-08 05:21:00,
2013-03-07 23:22:00,40.6,29.8,30.24,SE,144,0.0,0.0,65,0.00,,---,0.00,VWS V14.00,2013-03-08 05:22:00,
2013-03-07 23:23:00,40.2,30.1,30.23,SE,144,0.0,0.0,67,0.00,,---,0.00,VWS V14.00,2013-03-08 05:23:00,
2013-03-07 23:24:00,40.2,30.1,30.23,SE,144,0.0,0.0,67,0.00,,---,0.00,VWS V14.00,2013-03-08 05:24:00,
2013-03-07 23:25:00,40.2,30.1,30.24,SE,144,0.0,0.0,67,0.00,,---,0.00,VWS V14.00,2013-03-08 05:25:00,
2013-03-07 23:26:00,40.2,30.1,30.24,SE,144,0.0,0.0,67,0.00,,---,0.00,VWS V14.00,2013-03-08 05:26:00,
2013-03-07 23:27:00,40.5,30.0,30.24,SE,144,0.0,0.0,66,0.00,,---,0.00,VWS V14.00,2013-03-08 05:27:00,
2013-03-07 23:28:00,40.2,30.1,30.24,SE,144,0.0,0.0,67,0.00,,---,0.00,VWS V14.00,2013-03-08 05:28:00,
2013-03-07 23:29:00,40.1,30.0,30.24,SE,144,0.0,0.0,67,0.00,,---,0.00,VWS V14.00,2013-03-08 05:29:00,
2013-03-07 23:30:00,40.1,30.0,30.24,SE,144,0.0,0.0,67,0.00,,---,0.00,VWS V14.00,2013-03-08 05:30:00,
2013-03-07 23:31:00,40.1,30.0,30.24,SE,144,0.0,0.0,67,0.00,,---,0.00,VWS V14.00,2013-03-08 05:31:00,
2013-03-07 23:32:00,40.3,29.9,30.24,SE,144,0.0,0.0,66,0.00,,---,0.00,VWS V14.00,2013-03-08 05:32:00,
2013-03-07 23:33:00,40.1,30.0,30.24,SE,144,0.0,0.0,67,0.00,,---,0.00,VWS V14.00,2013-03-08 05:33:00,
2013-03-07 23:34:00,40.1,30.4,30.24,SE,144,0.0,0.0,68,0.00,,---,0.00,VWS V14.00,2013-03-08 05:34:00,
2013-03-07 23:35:00,39.9,29.9,30.24,SE,144,0.0,0.0,67,0.00,,---,0.00,VWS V14.00,2013-03-08 05:35:00,
2013-03-07 23:36:00,39.9,30.2,30.24,SE,144,0.0,0.0,68,0.00,,---,0.00,VWS V14.00,2013-03-08 05:36:00,
2013-03-07 23:37:00,40.2,30.1,30.24,SE,144,0.0,0.0,67,0.00,,---,0.00,VWS V14.00,2013-03-08 05:37:00,
2013-03-07 23:38:00,39.9,30.2,30.24,SE,144,0.0,0.0,68,0.00,,---,0.00,VWS V14.00,2013-03-08 05:38:00,
2013-03-07 23:39:00,39.9,30.2,30.25,SE,144,0.0,0.0,68,0.00,,---,0.00,VWS V14.00,2013-03-08 05:39:00,
2013-03-07 23:40:00,39.9,30.2,30.25,SE,144,0.0,0.0,68,0.00,,---,0.00,VWS V14.00,2013-03-08 05:40:00,
2013-03-07 23:41:00,39.9,30.2,30.25,SE,144,0.0,0.0,68,0.00,,---,0.00,VWS V14.00,2013-03-08 05:41:00,
2013-03-07 23:42:00,40.2,30.1,30.24,SE,144,0.0,0.0,67,0.00,,---,0.00,VWS V14.00,2013-03-08 05:42:00,
2013-03-07 23:43:00,39.9,30.2,30.25,SE,144,0.0,0.0,68,0.00,,---,0.00,VWS V14.00,2013-03-08 05:43:00,
2013-03-07 23:44:00,39.9,30.2,30.25,SE,144,0.0,0.0,68,0.00,,---,0.00,VWS V14.00,2013-03-08 05:44:00,
2013-03-07 23:45:00,39.9,30.2,30.25,SE,144,0.0,0.0,68,0.00,,---,0.00,VWS V14.00,2013-03-08 05:45:00,
2013-03-07 23:46:00,39.8,30.1,30.25,SE,144,0.0,0.0,68,0.00,,---,0.00,VWS V14.00,2013-03-08 05:46:00,
2013-03-07 23:47:00,40.2,30.1,30.24,SE,144,0.0,0.0,67,0.00,,---,0.00,VWS V14.00,2013-03-08 05:47:00,
2013-03-07 23:48:00,39.8,30.1,30.25,SE,144,0.0,0.0,68,0.00,,---,0.00,VWS V14.00,2013-03-08 05:48:00,
2013-03-07 23:49:00,39.8,30.1,30.25,SE,144,0.0,0.0,68,0.00,,---,0.00,VWS V14.00,2013-03-08 05:49:00,
2013-03-07 23:50:00,39.6,29.9,30.25,SE,144,0.0,0.0,68,0.00,,---,0.00,VWS V14.00,2013-03-08 05:50:00,
2013-03-07 23:51:00,40.3,30.6,30.24,SE,144,0.0,0.0,68,0.00,,---,0.00,VWS V14.00,2013-03-08 05:51:00,
2013-03-07 23:52:00,39.5,29.8,30.25,SE,144,0.0,0.0,68,0.00,,---,0.00,VWS V14.00,2013-03-08 05:52:00,
2013-03-07 23:53:00,39.3,29.6,30.25,SE,144,0.0,0.0,68,0.00,,---,0.00,VWS V14.00,2013-03-08 05:53:00,
2013-03-07 23:54:00,39.2,29.9,30.25,SE,144,0.0,0.0,69,0.00,,---,0.00,VWS V14.00,2013-03-08 05:54:00,
2013-03-07 23:55:00,39.2,29.9,30.25,SE,144,0.0,0.0,69,0.00,,---,0.00,VWS V14.00,2013-03-08 05:55:00,
2013-03-07 23:56:00,40.2,30.5,30.24,SE,144,0.0,0.0,68,0.00,,---,0.00,VWS V14.00,2013-03-08 05:56:00,
2013-03-07 23:57:00,39.1,29.8,30.25,SE,144,0.0,0.0,69,0.00,,---,0.00,VWS V14.00,2013-03-08 05:57:00,
2013-03-07 23:58:00,39.1,29.8,30.25,SE,144,0.0,0.0,69,0.00,,---,0.00,VWS V14.00,2013-03-08 05:58:00,
2013-03-07 23:59:00,38.9,29.6,30.25,SE,144,0.0,0.0,69,0.00,,---,0.00,VWS V14.00,2013-03-08 05:59:00,